GFSGBSN_925_rhum_036.txt.gz
RH
80 87 88 86 84 79 78 82 94 87 87 79 83 88 90 90 83 83 86 83 82 79 78 83 80 72 66 65 51 82 80 80 88 72 66 62 63 70 63 53 52 46 44 37 34 42 39
78 86 87 84 85 77 88 73 76 76 73 74 77 88 89 89 83 85 87 79 82 79 82 82 78 71 64 80 43 67 85 72 80 66 65 63 51 53 55 55 50 43 44 38 38 39 40
86 84 85 86 81 87 88 75 88 80 91 92 90 91 93 90 84 81 87 87 84 84 85 85 74 71 66 56 73 87 86 76 80 62 64 64 48 51 49 60 45 48 50 46 44 39 39
86 76 77 85 84 84 82 87 80 90 93 89 88 87 92 92 86 75 80 89 90 86 86 78 78 75 66 50 52 79 82 73 73 64 64 68 55 50 48 44 50 51 47 61 37 40 40
80 78 87 74 81 83 83 80 94 92 89 83 86 91 93 86 85 81 84 82 86 85 84 86 76 69 59 67 71 71 77 79 70 72 72 70 51 49 52 51 58 49 44 43 44 42 36
79 79 74 79 77 80 79 90 86 94 85 83 86 89 93 87 88 86 85 79 79 86 84 80 73 72 57 62 72 78 78 84 70 80 75 72 69 64 49 46 46 49 42 45 38 44 49
82 81 79 78 77 85 86 88 92 94 90 88 94 96 87 94 73 74 72 70 62 65 68 50 49 75 64 64 70 91 80 91 72 73 84 78 75 77 55 43 36 42 43 44 42 44 45
83 82 82 78 77 84 86 88 96 96 89 87 98 96 98 79 77 78 72 67 74 80 64 54 62 72 71 72 68 77 80 92 75 83 70 88 86 49 47 50 48 45 45 46 53 46 44
84 83 81 81 78 82 85 91 96 94 92 93 96 94 75 77 74 76 79 88 82 90 73 76 84 85 83 58 64 83 73 94 75 85 81 82 66 49 54 57 54 53 51 58 49 49 44
85 85 82 83 80 82 85 91 95 97 97 95 85 88 76 81 76 82 82 98 86 87 99 94 92 90 76 66 90 80 91 83 89 90 75 81 69 52 55 56 46 62 56 55 54 53 46
86 86 84 84 83 83 86 88 92 97 100 95 64 66 70 65 82 78 99 93 91 82 87 98 92 79 66 80 84 92 88 92 90 92 84 97 84 67 60 57 48 51 50 51 52 54 55
88 90 87 85 84 84 86 88 92 94 100 100 80 61 59 60 83 82 82 79 84 95 95 99 90 84 75 88 85 84 83 76 79 87 82 94 80 88 81 77 54 47 50 51 52 55 77
89 90 88 87 86 85 86 88 89 95 97 99 98 69 65 66 66 72 87 79 98 91 97 97 94 78 81 88 83 77 84 88 93 100 100 98 94 93 83 87 66 55 60 85 81 89 64
91 89 89 90 88 88 87 88 88 90 98 99 90 68 66 72 75 86 90 83 87 87 79 74 67 62 86 83 87 84 91 87 65 71 94 86 96 90 88 91 95 71 62 64 62 50 41
91 87 92 89 93 92 90 88 88 88 92 100 66 66 71 72 84 98 82 95 98 96 65 62 57 64 71 69 64 65 66 65 62 58 70 74 90 56 59 60 73 86 82 46 60 57 56
91 88 90 91 94 94 91 89 88 86 93 93 71 72 71 72 90 90 86 96 90 79 63 54 64 62 66 71 64 59 60 57 59 52 48 60 92 63 57 53 51 55 48 68 74 71 53
93 91 92 91 90 92 94 91 89 85 94 84 73 64 67 71 86 71 99 99 79 66 62 53 61 63 67 67 68 64 60 57 51 52 45 50 59 78 60 64 59 60 62 57 51 54 43
94 92 91 97 93 94 95 92 89 85 95 90 76 83 63 71 80 81 92 85 79 68 61 49 50 57 62 63 66 63 54 54 47 44 51 52 62 83 73 59 55 53 53 43 50 68 62
95 95 93 94 97 95 94 92 91 86 94 100 82 75 56 79 73 72 70 68 70 62 60 53 50 50 53 57 63 56 59 51 49 47 50 49 65 89 86 67 62 66 56 51 50 58 77
94 97 92 89 94 95 90 92 90 86 90 90 80 81 68 69 72 65 68 68 66 65 62 51 50 51 49 52 51 57 55 59 51 49 58 45 57 68 52 69 64 83 66 57 55 72 54
94 94 92 92 95 91 90 92 88 85 80 81 82 89 78 85 73 73 76 74 70 67 64 51 52 49 46 55 56 57 57 59 55 61 53 50 89 81 60 59 70 68 65 66 80 56 62
88 94 89 91 92 95 93 90 90 73 61 78 85 82 66 75 80 72 70 70 72 69 69 56 54 50 49 52 44 56 55 55 54 60 54 57 92 86 83 68 70 79 65 62 63 58 55
83 93 94 94 94 90 96 91 90 77 53 77 85 82 82 69 76 71 67 70 69 69 62 65 48 56 60 55 54 48 43 43 47 54 59 61 90 84 76 65 67 73 66 62 59 58 54
86 95 94 89 95 96 88 90 91 90 70 72 87 95 80 74 75 76 76 77 74 73 78 65 56 54 61 49 47 46 48 51 50 54 48 65 77 78 82 72 82 52 54 53 55 49 51
90 96 93 95 96 96 94 85 91 96 81 67 72 88 81 68 69 62 73 82 76 67 73 70 65 64 55 58 59 62 62 58 61 62 54 50 58 82 83 69 51 42 59 61 63 64 48
90 96 95 74 95 94 93 91 92 90 86 80 72 70 82 79 53 74 66 65 85 76 68 72 72 69 63 63 69 68 77 58 75 75 66 60 52 63 78 83 71 48 59 51 52 70 54
91 90 85 91 96 91 88 88 88 98 96 85 77 78 76 71 46 73 67 74 79 90 84 73 80 76 68 71 66 60 66 60 75 71 83 79 82 82 71 68 56 42 58 58 83 66 53
88 83 85 94 96 92 92 86 93 95 95 98 87 80 77 78 61 57 50 56 55 44 91 82 87 86 84 84 73 73 58 63 69 58 65 64 71 85 73 80 76 48 61 64 56 54 55
76 82 83 91 93 85 87 90 92 93 98 96 94 82 85 84 72 67 60 53 48 46 50 50 92 83 74 78 75 68 71 69 63 76 64 70 53 56 55 52 40 50 55 53 51 51 57

GFSGBSN_925_rhum_039.txt.gz
RH
79 84 81 86 84 77 85 75 83 82 82 85 90 91 91 89 87 88 87 83 83 82 78 81 85 80 63 56 43 72 88 87 90 70 56 53 44 54 56 42 36 43 29 26 26 34 32
81 82 81 84 81 80 79 88 80 88 92 93 88 87 91 95 88 90 84 68 68 81 80 83 81 81 57 63 35 61 76 74 91 73 53 43 39 44 46 42 39 38 33 33 28 36 35
80 80 81 84 74 81 88 79 88 91 92 86 76 85 91 92 90 82 81 71 82 86 85 84 75 62 55 50 42 82 73 73 74 78 44 40 36 44 42 55 36 39 39 38 32 34 35
82 79 78 78 78 81 85 85 87 93 93 81 84 86 89 87 81 78 77 84 86 87 86 82 83 63 61 42 42 56 93 75 71 73 43 42 41 38 43 40 46 48 43 50 37 38 34
86 81 80 79 77 84 85 85 88 94 93 83 92 92 92 83 84 81 84 83 84 85 84 85 69 62 49 49 45 45 78 79 73 72 44 57 60 45 44 50 56 47 47 45 37 34 36
84 83 84 80 78 82 89 87 90 93 94 89 93 95 96 90 78 74 78 68 73 74 79 73 61 62 44 48 51 70 81 87 84 58 71 80 75 57 51 44 52 43 46 31 34 41 37
85 84 84 83 80 81 88 91 90 93 92 88 97 97 93 68 66 69 74 65 63 64 53 49 53 53 61 46 70 77 74 90 62 75 81 87 80 72 49 34 26 24 35 28 26 36 41
86 86 84 83 82 81 85 92 95 93 97 93 95 89 86 95 72 68 65 55 73 81 59 44 55 60 65 69 78 73 83 94 67 87 50 93 92 45 35 31 30 35 32 33 33 34 40
87 87 86 84 84 82 84 88 95 96 96 99 95 88 77 71 74 66 72 78 82 78 96 77 78 84 70 81 84 89 81 87 63 73 65 75 74 43 44 41 42 35 37 34 40 44 38
88 88 87 86 85 85 85 85 89 96 96 100 97 91 67 71 74 68 74 91 92 89 100 99 94 78 72 81 90 81 87 92 83 68 61 76 57 49 54 51 36 39 34 41 50 47 36
89 91 88 88 87 87 87 86 86 90 96 99 97 95 69 63 67 65 80 88 82 80 93 97 92 71 61 68 78 86 89 83 89 92 90 94 80 59 51 45 34 45 44 46 49 50 50
91 91 90 89 93 92 88 88 88 87 90 98 100 87 72 73 72 70 88 84 79 97 95 98 79 76 72 67 79 83 86 74 86 84 80 89 80 71 52 55 39 43 47 48 49 51 74
91 89 94 94 94 96 92 90 89 89 89 93 100 99 81 76 62 82 89 74 99 88 89 91 83 79 80 84 88 86 88 94 98 100 100 96 97 89 76 63 49 46 52 75 77 88 60
91 93 92 92 94 94 94 93 92 90 89 90 99 76 80 72 77 88 81 88 90 86 68 64 59 70 90 85 86 83 87 95 86 81 100 99 98 97 86 75 70 57 52 69 62 59 49
92 91 89 95 90 90 96 94 91 90 87 94 73 72 72 73 89 93 87 94 98 97 58 54 48 63 67 60 79 73 59 79 74 60 89 88 98 92 91 81 64 86 85 43 49 38 44
94 93 90 94 94 94 89 90 91 91 72 95 82 60 58 78 93 88 75 89 87 62 51 46 53 51 55 54 56 55 50 50 54 45 43 53 90 67 76 80 83 88 51 72 70 76 45
95 93 94 92 95 96 94 92 91 89 69 74 72 57 72 79 93 67 94 97 62 54 51 47 49 50 46 52 49 48 49 51 44 44 38 43 54 74 57 70 75 82 94 62 50 50 54
94 96 96 92 92 96 94 93 92 88 83 87 72 85 76 80 72 56 70 63 69 53 48 42 43 47 44 46 49 47 45 46 41 39 43 46 57 77 69 53 48 48 47 46 54 65 48
93 95 93 92 94 95 94 92 92 89 81 96 69 57 68 74 67 62 56 54 56 52 48 45 43 44 45 48 54 49 47 45 43 42 43 41 64 85 78 60 54 60 51 46 42 52 71
92 95 93 93 94 95 95 94 92 89 77 88 64 83 53 51 52 50 50 50 55 57 52 46 43 42 43 46 41 51 52 51 45 43 55 39 48 67 56 72 53 72 56 51 55 73 50
87 96 92 94 94 95 96 95 92 85 67 80 60 72 70 78 57 58 60 57 55 56 55 46 48 44 40 46 44 45 46 53 49 60 46 45 90 78 50 49 61 64 57 55 72 59 57
88 94 95 95 94 95 94 96 94 79 61 58 80 90 68 59 66 61 65 58 59 56 58 50 51 43 40 42 38 44 44 45 47 50 48 50 86 79 85 56 58 68 56 51 56 53 49
88 86 94 88 94 95 92 85 89 87 59 47 64 65 80 59 61 59 53 58 60 61 55 54 44 43 48 44 45 38 34 34 38 47 50 54 85 89 71 56 60 70 58 53 50 47 46
80 84 92 95 95 96 96 92 85 94 72 63 72 86 69 54 59 63 63 65 64 63 71 55 42 48 50 40 39 38 39 40 41 42 40 53 73 73 82 68 82 53 45 45 47 44 43
78 87 94 92 95 96 95 96 95 92 80 76 84 71 63 53 36 38 56 60 61 56 64 63 52 56 41 48 51 58 58 55 51 47 45 40 48 68 78 64 45 37 45 54 56 56 41
88 90 84 86 97 93 85 87 94 92 89 80 84 89 68 67 48 58 51 42 68 62 60 59 62 58 54 56 57 62 64 49 66 62 52 46 43 56 63 73 62 48 52 42 44 65 48
91 88 87 88 94 83 91 85 95 91 90 87 86 76 76 76 41 47 44 61 56 77 80 64 73 70 61 63 65 62 58 49 62 60 70 68 61 73 65 66 50 33 53 48 73 69 51
76 73 80 82 92 84 85 88 87 88 95 94 85 82 75 65 54 48 45 45 42 40 69 75 74 81 84 77 76 59 53 49 51 46 54 61 67 67 61 69 73 41 59 62 53 48 52
79 76 77 80 92 91 89 86 89 94 99 95 97 92 89 87 61 58 56 55 55 42 50 46 76 76 93 85 62 51 49 44 48 57 43 59 44 48 47 48 38 39 41 48 45 47 51

GFSGBSN_925_rhum_042.txt.gz
RH
83 81 78 78 77 85 85 80 84 92 89 89 81 76 85 89 90 92 89 86 81 82 79 82 81 76 79 67 54 53 49 66 72 87 61 63 48 56 62 53 42 51 38 30 29 36 33
83 81 80 79 77 84 82 87 87 90 91 83 79 83 87 92 93 90 81 78 80 70 79 83 81 81 65 67 34 47 73 83 74 89 55 64 41 44 49 42 45 39 39 35 28 36 34
87 82 82 79 78 82 86 86 86 91 90 82 86 88 91 92 77 80 78 82 75 73 83 85 84 72 62 52 40 64 65 76 85 77 53 45 36 40 47 52 41 38 45 40 36 39 38
88 84 83 80 78 83 85 89 89 90 90 85 89 90 92 83 82 73 78 77 86 79 86 85 82 67 63 41 41 43 64 68 68 77 61 49 38 39 44 46 46 46 46 58 40 38 36
87 85 85 82 80 80 88 89 89 92 94 85 94 92 92 87 83 80 80 80 80 84 85 82 68 57 56 44 41 38 50 74 66 79 67 50 53 49 47 63 67 59 63 57 47 36 39
87 87 86 84 82 80 88 89 89 93 94 88 86 91 90 86 82 80 70 62 67 73 76 66 55 63 48 41 41 38 64 83 78 79 82 60 68 70 64 68 84 70 64 45 47 43 43
88 88 88 86 83 81 79 87 92 92 92 98 91 94 95 87 66 65 77 68 72 63 56 61 67 55 52 57 48 67 85 88 87 96 84 78 86 82 68 51 47 42 45 45 38 38 45
89 89 88 87 85 83 83 83 87 90 95 95 99 92 93 90 72 75 72 58 70 73 73 44 49 50 52 62 71 84 89 99 90 89 73 92 89 57 47 41 39 34 38 42 31 40 42
90 91 89 90 89 88 86 85 85 85 89 96 100 96 92 86 70 75 81 89 88 81 97 73 68 81 72 84 78 84 91 87 79 72 75 74 65 47 44 46 42 36 42 38 41 43 40
90 90 91 90 93 98 95 88 86 87 89 90 97 99 94 82 87 64 69 84 87 83 100 93 84 78 76 78 92 82 85 89 79 76 60 70 61 62 55 48 35 44 32 33 44 56 61
91 91 93 92 91 96 90 94 93 88 90 92 95 99 96 73 86 61 74 82 79 84 97 98 89 86 75 90 89 96 85 84 74 70 80 91 81 84 76 54 39 42 45 49 51 59 60
93 92 94 92 93 88 93 92 90 94 91 92 95 99 97 78 76 67 81 81 78 99 95 97 86 88 96 79 76 85 84 80 72 83 78 90 81 82 72 58 44 44 52 52 50 56 92
94 95 91 96 90 92 90 90 91 92 94 82 94 99 96 80 69 79 83 89 100 93 86 82 91 74 73 83 84 84 91 95 97 99 100 98 97 86 82 74 55 50 61 92 94 95 87
94 95 93 95 95 94 91 91 90 92 93 54 57 75 73 81 72 82 90 99 89 86 68 61 67 69 81 74 88 85 95 98 90 85 100 100 99 96 88 77 85 62 58 85 72 91 74
93 96 95 93 92 96 93 90 90 91 89 48 65 71 72 74 84 87 97 87 95 96 52 53 58 67 70 72 75 90 95 96 89 82 97 100 99 92 90 78 72 72 88 46 68 39 78
95 94 96 94 92 96 96 92 90 90 86 56 96 64 58 75 87 91 99 88 85 58 48 44 55 53 55 56 61 67 78 76 63 61 54 63 98 96 94 85 79 83 61 78 91 88 63
96 94 97 93 93 95 97 92 91 90 82 67 89 66 78 71 92 92 92 94 56 49 49 50 47 46 46 51 50 48 52 50 42 44 41 47 66 97 97 98 98 92 96 78 61 73 87
96 94 92 93 94 94 95 93 92 91 82 77 85 86 73 80 90 79 87 61 56 48 46 41 43 47 43 44 46 47 49 50 39 38 49 48 68 91 76 55 55 70 74 72 90 77 67
87 92 93 94 94 95 95 94 94 92 85 91 77 63 70 72 91 58 53 53 52 51 47 44 42 43 44 44 51 47 52 44 43 43 48 47 77 87 81 67 57 67 55 72 68 71 82
87 97 94 95 95 95 95 95 95 92 84 93 73 86 72 72 55 59 55 52 55 57 52 43 43 42 44 47 40 50 55 50 45 46 49 44 55 76 85 73 71 79 62 57 66 92 66
92 96 95 95 94 95 95 94 93 56 63 82 63 77 67 90 70 69 58 58 52 59 55 46 49 46 44 47 43 48 53 58 50 59 46 55 90 74 58 52 70 69 64 61 76 69 78
92 93 94 94 93 94 95 95 95 60 46 54 75 80 68 71 59 64 65 54 58 56 55 52 52 43 40 44 40 44 47 50 52 55 52 56 93 84 84 55 56 72 64 58 60 61 61
77 83 94 95 94 95 95 96 95 73 62 49 50 60 74 65 58 62 68 66 64 61 55 51 52 44 46 57 52 47 37 37 43 56 58 63 91 93 83 57 61 83 68 62 57 55 56
76 80 93 95 94 96 95 96 96 88 76 66 73 75 70 57 47 58 58 60 63 62 72 63 45 53 51 41 40 38 38 38 41 44 44 63 84 92 92 74 95 55 46 48 53 49 49
79 79 88 91 88 95 96 96 96 91 82 78 77 76 64 55 41 50 50 46 51 57 66 62 62 62 43 50 52 63 62 54 49 46 48 46 65 69 77 88 62 52 58 57 57 57 43
77 93 90 89 80 85 89 92 94 85 83 81 82 83 73 65 53 37 41 46 72 76 70 64 64 61 56 70 66 67 79 61 72 66 52 45 49 68 74 76 80 63 49 40 44 77 50
79 78 74 78 75 86 87 88 91 84 87 89 88 73 74 78 53 50 54 62 50 67 76 73 71 71 64 78 77 69 69 50 66 62 80 76 71 85 80 78 63 46 50 46 84 79 54
73 70 74 76 79 92 91 86 92 95 98 93 87 89 83 75 64 50 46 53 51 47 56 58 74 80 88 88 88 92 66 60 53 46 64 69 82 78 71 81 84 57 62 72 65 60 60
76 77 80 86 87 86 83 85 83 82 95 99 97 98 96 96 73 66 68 60 55 55 58 55 65 62 97 98 87 79 67 49 55 67 48 69 58 64 60 67 48 47 54 53 53 57 59

GFSGBSN_925_rhum_048.txt.gz
RH
88 86 88 84 82 80 87 84 90 94 88 79 90 85 84 89 91 94 86 86 81 83 76 78 74 74 80 80 72 55 62 68 66 80 74 68 87 83 87 76 72 63 57 51 62 79 80
88 87 84 84 84 81 86 90 90 90 92 83 82 82 84 83 88 91 90 84 82 79 84 84 90 75 76 96 63 60 58 54 65 85 77 74 75 76 68 70 75 63 51 60 64 64 66
89 87 85 86 83 83 79 86 90 95 89 92 87 89 90 87 82 88 89 86 84 74 86 85 84 85 73 77 67 65 67 71 65 89 74 72 58 70 65 67 56 52 66 60 53 48 46
90 89 87 87 86 85 84 82 81 90 88 91 96 90 93 92 90 87 87 89 79 75 78 82 83 79 84 46 57 45 54 70 90 91 73 72 59 67 61 53 56 55 58 72 55 49 42
91 88 88 89 89 91 89 85 84 80 89 92 93 96 93 93 89 87 81 73 74 75 84 79 77 75 80 47 50 44 45 70 87 95 84 71 65 62 54 76 74 63 83 68 60 47 46
93 90 90 92 90 92 87 94 88 85 84 84 93 98 94 93 94 91 74 68 74 72 68 78 76 71 58 56 51 59 56 70 84 91 98 87 84 82 77 82 82 78 77 58 63 54 50
95 92 91 90 88 91 87 85 82 91 90 88 86 94 98 92 90 77 63 67 75 74 66 67 60 66 60 50 60 66 64 78 80 89 97 92 87 88 74 66 62 64 60 61 53 48 50
96 93 92 94 93 87 89 91 90 89 85 96 91 90 96 92 70 63 61 84 88 79 82 62 60 69 62 54 78 73 65 76 90 94 89 97 88 70 65 63 61 61 65 62 46 44 50
97 94 94 92 89 92 93 92 93 89 89 90 96 91 91 99 78 69 56 78 76 80 91 76 71 78 78 74 82 83 78 86 92 95 95 84 72 64 64 66 69 63 66 61 51 50 45
97 95 92 93 92 97 94 92 93 90 88 92 94 92 93 94 89 69 74 61 75 82 97 92 88 85 80 80 91 77 88 95 91 94 88 79 69 69 70 71 58 68 46 43 55 63 77
97 96 96 94 88 89 88 97 93 91 92 95 94 93 97 99 76 82 71 69 78 83 93 82 90 76 76 84 80 94 94 80 86 94 90 98 80 76 76 65 52 57 44 57 59 68 64
88 96 96 97 90 90 88 90 92 91 92 95 94 95 94 93 99 76 71 80 78 83 94 99 85 92 94 85 88 84 88 85 84 83 84 90 79 85 82 70 55 53 58 66 72 74 86
82 97 92 97 94 93 87 91 90 90 93 94 89 76 97 93 83 77 82 84 88 92 72 95 95 92 88 85 84 75 88 92 96 97 98 95 94 84 86 72 62 54 65 93 89 94 84
83 96 92 96 90 93 89 92 88 91 91 90 51 77 81 83 79 76 81 91 86 81 97 78 77 87 93 76 84 86 93 93 84 83 95 97 99 94 86 83 76 66 65 88 88 97 83
84 97 93 92 94 90 89 86 89 90 88 89 70 78 80 76 80 79 92 94 86 88 64 77 79 91 85 80 82 89 96 84 82 86 85 94 98 87 86 81 78 85 95 63 74 66 88
82 97 91 88 92 94 93 91 89 92 89 90 82 85 80 77 83 85 94 88 87 68 58 54 74 71 95 90 94 88 92 70 80 81 71 84 97 95 91 82 80 85 68 85 92 96 72
80 96 94 92 95 95 94 94 94 93 93 76 91 88 89 83 84 97 95 93 78 58 54 54 58 54 53 67 79 83 92 82 69 76 72 72 80 99 95 99 97 95 99 94 74 80 90
74 97 95 95 95 95 96 95 95 94 93 78 88 95 87 86 99 98 96 81 58 55 50 55 48 53 56 50 55 63 72 61 68 64 70 57 86 94 93 81 79 81 84 71 90 88 82
73 94 96 95 96 96 96 96 95 94 85 82 96 90 92 92 99 88 65 62 61 58 55 55 49 48 48 53 62 64 61 52 52 53 65 58 84 98 93 78 78 97 93 75 76 78 84
76 82 96 96 96 96 96 96 85 66 44 77 92 93 82 96 82 81 80 64 66 58 57 47 49 46 48 52 46 64 64 57 50 50 49 55 74 76 82 70 82 99 93 82 86 98 73
67 77 95 96 96 96 94 95 82 53 34 68 93 92 85 94 74 75 76 74 66 75 59 50 53 51 53 56 50 65 66 61 55 53 52 57 80 72 64 65 72 74 81 83 93 73 81
64 76 95 95 94 96 94 95 72 53 40 54 90 92 90 91 82 74 77 78 82 68 62 64 58 63 50 67 56 59 64 64 61 59 57 70 89 80 79 60 69 74 72 81 77 78 77
67 77 88 86 72 94 86 84 91 69 50 71 80 80 93 82 56 70 62 59 65 69 70 68 71 65 67 67 60 54 52 52 54 65 70 74 89 89 85 71 66 76 72 71 71 68 75
70 78 88 90 75 88 79 88 85 80 72 71 84 89 75 70 64 62 42 44 55 61 74 71 78 61 67 69 50 46 52 58 58 57 65 82 82 89 93 75 91 54 50 57 58 56 58
74 82 90 86 76 82 86 86 84 80 76 79 75 84 92 81 70 53 56 56 63 68 79 72 78 71 78 64 69 70 73 60 57 60 61 65 80 91 93 96 67 51 60 64 67 62 52
77 78 74 72 71 83 79 84 88 92 78 82 86 79 88 91 85 62 66 61 75 69 76 76 64 53 71 86 83 80 89 72 75 66 56 58 59 75 88 77 93 54 53 50 54 81 56
70 71 73 73 74 73 74 80 89 82 78 80 90 87 82 91 81 69 74 70 61 64 64 70 58 73 79 92 88 87 77 63 83 82 80 74 74 86 88 94 76 52 48 48 77 66 61
69 72 76 80 79 77 68 80 85 92 85 74 90 91 85 94 91 68 70 78 77 65 72 66 78 82 95 95 92 87 83 69 69 68 78 83 84 93 88 94 84 48 60 68 62 62 63
71 75 76 84 89 81 84 88 87 94 96 88 89 90 96 94 86 80 75 68 73 67 75 73 80 79 100 100 99 98 96 79 73 76 67 76 71 82 76 74 47 48 58 58 64 63 60

GFSGBSN_925_rhum_051.txt.gz
RH
88 87 84 86 82 83 79 85 88 91 91 93 83 84 86 82 87 90 88 83 80 82 81 85 73 76 82 85 80 61 70 68 74 75 80 78 79 77 70 58 74 69 65 55 69 76 74
89 84 86 85 86 87 84 81 79 86 92 92 90 86 88 88 83 89 88 86 83 85 85 87 90 68 77 92 65 61 59 70 65 69 76 75 74 61 70 79 75 71 62 67 73 75 69
92 88 88 88 89 86 88 86 84 77 87 92 95 95 89 91 89 88 89 90 86 84 87 86 85 87 81 79 68 65 64 86 62 68 75 80 63 72 70 78 72 72 75 82 82 76 79
94 89 86 93 84 88 85 83 87 84 79 81 95 90 96 92 93 91 89 87 87 86 89 85 83 80 82 62 68 66 60 81 73 69 80 78 63 75 65 58 63 63 78 82 77 69 61
94 92 86 90 88 87 88 82 82 86 90 84 82 89 96 94 94 95 84 90 79 86 84 86 77 76 83 61 78 64 62 75 86 89 81 71 69 71 66 79 81 68 91 77 68 58 58
96 94 91 88 85 90 84 88 88 90 86 89 93 84 92 98 95 95 76 66 69 73 64 76 78 76 62 56 51 62 69 66 77 91 81 75 80 85 83 83 83 81 83 70 68 60 55
96 96 94 91 92 88 91 92 81 86 88 88 90 90 86 96 99 96 69 71 72 70 65 80 67 66 60 51 63 67 65 75 90 87 93 90 95 85 81 74 58 69 67 71 55 53 54
95 96 93 91 93 92 90 93 92 92 89 84 89 86 86 94 99 93 60 79 74 73 78 64 68 68 66 58 79 76 69 85 87 97 95 95 95 74 68 61 58 64 69 65 50 50 55
96 96 92 86 89 90 90 92 93 93 91 91 90 90 91 93 90 79 58 70 72 83 89 78 72 79 78 79 84 84 75 82 93 98 96 92 72 68 69 70 67 66 71 65 60 52 48
82 97 95 93 94 89 92 90 92 94 90 91 92 92 92 89 84 77 75 60 72 84 97 90 86 87 83 78 89 79 83 81 90 96 94 86 68 73 78 74 66 72 51 54 58 64 78
73 98 96 90 94 90 89 92 92 91 88 92 94 92 93 91 84 82 71 67 79 81 92 78 89 76 73 88 77 85 81 87 94 92 94 97 75 77 79 73 54 59 49 50 59 70 62
69 89 97 92 94 92 91 86 92 90 92 90 94 95 97 96 92 77 73 80 79 84 94 97 87 91 93 88 86 88 92 95 79 87 88 93 85 76 76 66 52 55 61 66 75 73 91
67 77 96 89 95 91 92 86 84 89 90 91 95 96 99 94 86 75 80 80 88 89 69 91 93 91 92 88 83 84 92 94 99 99 100 89 94 86 80 72 59 54 64 94 93 94 92
66 83 96 90 95 93 89 90 88 90 91 90 95 91 98 88 80 79 79 83 92 81 87 70 84 84 88 76 85 84 90 97 86 79 93 97 99 90 88 78 75 66 61 88 86 95 82
65 83 95 90 88 90 93 91 91 90 90 93 78 90 90 83 83 81 85 96 81 86 78 80 81 84 90 83 80 90 86 92 82 81 86 97 98 85 87 82 76 85 90 60 79 72 90
63 83 94 92 96 94 95 94 93 93 92 93 80 86 91 81 81 83 94 90 88 71 61 62 84 84 96 90 84 88 94 77 81 81 69 79 98 83 89 80 81 79 72 83 92 92 81
63 81 93 96 96 96 96 95 94 94 93 76 89 91 95 86 84 97 95 92 79 64 56 57 60 63 74 90 86 94 85 77 70 83 68 72 80 95 91 94 88 94 98 89 77 84 82
64 83 90 85 93 94 96 96 96 95 86 66 85 96 92 89 99 96 98 84 60 57 52 57 50 54 56 62 75 74 91 73 71 73 80 68 82 91 86 79 75 83 86 87 90 93 89
69 71 79 86 93 84 92 94 93 95 82 79 93 92 90 97 97 93 77 63 62 62 58 57 53 51 49 54 71 66 64 60 70 66 69 67 87 97 97 90 83 98 88 83 74 81 87
70 68 84 85 94 83 65 66 63 75 41 84 90 91 83 97 89 80 86 78 64 60 60 51 54 49 50 53 59 68 67 58 53 52 56 54 77 76 84 71 86 97 89 92 95 98 81
63 73 86 74 95 83 67 60 56 57 42 70 93 94 86 93 80 80 76 82 74 73 60 59 58 62 57 57 57 72 68 61 56 54 63 59 82 78 69 64 79 86 89 81 98 93 87
60 73 82 68 81 75 71 61 54 54 48 58 79 76 89 86 79 76 74 91 83 79 71 68 67 74 54 68 63 66 68 65 60 60 62 70 89 80 82 61 77 78 77 86 79 79 82
64 74 83 69 70 70 70 68 66 62 51 73 84 85 92 71 60 71 56 62 64 66 72 68 78 76 72 70 69 64 56 55 54 66 72 73 89 88 83 78 66 77 70 72 79 79 78
67 78 85 80 69 71 71 74 69 73 73 73 90 88 65 65 67 57 56 56 61 70 82 71 85 76 75 79 68 50 57 62 60 64 69 78 80 86 92 76 87 54 49 58 65 56 71
70 80 82 73 71 70 72 75 71 73 81 81 86 86 83 83 78 65 70 65 62 64 78 77 75 59 59 72 68 70 78 62 58 62 70 66 83 93 92 97 69 46 62 65 66 61 56
77 74 68 68 71 69 72 71 70 74 77 83 88 86 87 84 87 70 75 66 81 75 67 74 58 48 74 87 83 78 91 70 76 69 58 63 65 76 92 77 92 53 58 52 53 82 56
72 65 69 71 71 72 73 73 72 75 74 80 88 88 80 89 81 75 79 77 66 73 71 69 63 70 79 88 96 91 83 65 83 77 83 81 79 92 86 95 83 55 49 50 78 61 68
63 68 73 74 80 82 80 79 78 85 85 76 86 82 85 92 88 77 76 78 80 73 76 69 84 82 95 94 96 88 90 74 73 70 77 83 87 92 89 95 90 47 59 67 60 66 64
63 71 76 87 90 85 86 85 80 81 84 81 87 95 86 88 84 86 77 72 73 70 76 77 86 92 98 100 98 97 87 92 77 78 71 79 71 81 81 76 50 46 61 55 64 70 60

GFSGBSN_925_rhum_054.txt.gz
RH
90 88 87 85 87 85 89 87 84 74 82 89 94 92 82 87 85 86 88 86 82 84 86 88 74 78 78 84 85 67 73 62 79 78 77 88 79 81 86 83 86 82 72 61 66 62 59
93 90 86 88 83 89 88 89 87 87 78 80 91 91 94 84 87 87 90 89 86 87 86 86 92 74 79 90 63 65 66 62 70 76 83 85 72 66 73 70 76 68 64 65 68 66 68
94 92 87 86 91 82 86 81 81 82 87 83 75 83 78 99 88 90 89 89 89 86 89 85 84 86 90 74 68 68 63 65 76 70 75 85 74 64 71 80 67 68 68 86 88 78 84
96 94 91 88 90 85 90 90 87 88 85 87 91 77 89 90 94 93 94 92 89 86 85 87 84 84 90 60 68 66 60 63 67 74 65 75 81 67 70 68 78 84 81 87 86 83 73
95 95 93 91 87 89 89 90 86 89 90 88 87 89 86 87 96 95 95 94 89 89 87 84 86 80 81 69 77 61 59 72 70 74 68 74 81 71 68 82 89 78 94 86 94 80 89
96 96 95 91 89 90 88 90 89 92 94 94 93 84 88 84 93 98 94 68 69 73 66 73 82 88 62 57 55 63 70 75 77 84 88 97 90 78 86 85 90 89 89 80 82 85 85
92 96 96 94 88 92 84 92 94 92 95 94 93 79 82 86 91 97 78 66 71 67 66 75 68 70 62 53 64 68 65 87 84 76 92 96 94 90 84 75 62 76 70 78 61 60 69
88 96 96 93 88 88 90 89 91 89 95 90 91 79 82 89 93 95 72 70 78 73 86 65 70 72 66 63 79 77 68 81 85 93 93 97 94 71 74 64 63 69 74 73 54 57 68
79 96 96 95 91 92 93 91 88 94 95 81 91 92 85 89 92 91 62 70 76 79 88 76 73 79 77 80 82 85 69 77 88 96 97 95 77 68 72 71 71 68 75 68 68 60 51
75 96 97 95 86 94 92 89 92 91 92 78 88 90 89 90 92 82 75 66 75 71 92 84 89 82 82 78 87 77 76 77 89 97 96 88 69 72 79 74 66 73 59 57 66 69 86
73 84 98 96 91 94 92 93 90 86 88 81 89 89 89 86 93 83 74 69 72 73 91 80 88 77 74 82 81 83 77 76 89 96 97 96 78 83 80 69 56 62 54 55 62 73 65
69 70 95 96 88 87 95 90 91 92 87 88 93 97 96 89 89 81 74 79 78 81 90 96 83 88 92 89 89 86 88 84 80 92 93 92 82 77 75 63 54 60 62 67 73 74 92
66 65 89 97 90 90 90 90 91 91 87 92 96 97 99 91 88 79 81 83 87 88 69 89 87 87 89 87 86 87 93 96 100 100 100 92 92 87 76 74 58 55 68 97 94 96 92
64 65 79 95 93 89 88 92 89 88 90 96 93 99 98 90 81 79 80 83 92 81 81 75 84 87 89 81 88 92 92 100 89 93 98 99 99 92 87 73 75 63 63 88 86 97 82
64 65 75 96 94 95 91 92 91 94 95 96 84 98 94 86 81 85 89 96 83 81 74 87 84 89 88 82 83 83 90 96 82 79 85 95 99 87 87 81 72 80 77 56 80 76 90
62 62 80 98 97 97 96 95 95 94 96 83 83 86 95 84 85 88 98 91 88 69 64 69 94 88 100 88 86 82 89 78 80 80 66 77 96 83 87 80 82 73 69 81 91 89 88
56 59 85 82 76 80 96 95 95 95 81 68 85 92 91 87 89 98 98 92 79 67 61 58 63 68 89 98 77 86 84 77 71 85 68 75 73 98 85 93 93 90 96 85 77 82 86
55 64 78 67 69 78 77 96 95 93 46 63 82 97 86 89 100 97 98 87 64 59 55 57 50 55 60 84 90 96 86 79 70 75 73 70 82 92 88 81 78 79 86 81 91 87 92
53 70 71 68 72 72 59 73 89 59 41 73 93 96 93 97 97 91 82 69 64 63 60 58 55 54 51 57 73 69 66 67 74 64 70 70 88 98 96 82 84 91 86 79 80 85 93
55 68 73 68 81 61 59 58 54 50 47 74 89 93 83 97 93 84 86 87 68 62 60 53 55 51 52 57 66 72 69 62 56 57 70 60 81 77 84 70 85 96 79 76 87 98 83
60 67 77 69 72 58 59 60 58 47 41 51 92 93 87 95 86 80 81 83 86 86 68 61 61 74 60 59 63 74 69 63 60 70 76 70 94 78 69 62 84 89 87 86 96 82 88
63 73 74 66 64 61 64 62 60 48 44 61 74 72 89 82 73 76 64 86 78 73 82 79 82 81 60 73 71 66 68 66 63 60 71 71 92 79 82 68 83 85 83 89 83 81 84
67 76 73 61 62 62 72 68 70 52 44 74 90 90 87 67 66 69 53 55 65 72 74 71 81 78 76 86 86 70 66 59 57 67 75 73 90 88 80 76 71 84 76 80 81 82 72
66 79 77 61 62 66 74 74 86 63 54 66 91 85 64 66 63 57 67 59 64 74 84 73 80 76 77 68 79 62 61 66 64 69 70 79 80 84 88 76 74 46 47 58 68 63 73
72 78 80 62 66 68 70 74 75 68 68 69 89 84 78 85 78 70 73 70 64 64 75 84 76 57 57 74 67 70 77 64 62 63 69 66 80 93 90 95 67 44 62 65 66 62 57
75 85 72 65 66 69 68 71 70 69 73 70 86 82 85 84 90 78 78 71 81 78 72 72 61 49 79 85 83 77 88 72 78 73 65 64 69 76 92 86 85 49 58 54 54 78 54
83 81 63 67 67 70 74 70 74 76 69 70 87 75 74 91 84 80 86 82 74 78 76 76 62 74 80 85 92 93 87 65 82 72 83 83 81 92 89 89 82 59 52 51 76 58 63
91 67 67 69 70 75 78 74 79 78 71 68 96 82 78 94 86 82 78 78 81 78 77 70 87 82 96 91 95 94 92 81 77 69 77 84 90 94 91 93 92 50 59 67 56 65 67
80 68 68 74 80 84 87 79 80 81 69 74 95 82 78 85 86 87 78 74 74 74 80 80 90 95 94 99 94 92 79 96 84 80 68 82 73 78 81 77 52 46 59 55 65 73 68

GFSGBSN_925_rhum_057.txt.gz
RH
94 93 90 87 88 85 87 86 81 84 86 83 73 84 90 95 78 86 84 88 85 87 85 88 83 69 76 81 80 64 69 63 74 88 81 88 85 77 81 85 88 81 75 68 62 60 58
96 94 92 89 88 88 85 82 90 87 86 89 84 80 83 93 98 81 87 88 88 86 87 86 86 82 79 88 60 66 65 59 68 88 86 85 74 66 72 83 76 76 68 70 71 62 64
97 95 93 90 86 85 89 88 89 77 86 92 90 87 85 84 92 95 90 90 88 88 87 87 83 85 91 80 57 66 66 63 63 82 80 83 87 68 66 82 67 72 74 84 82 72 74
99 96 94 86 90 87 88 91 86 82 93 93 89 87 83 86 87 94 95 92 91 90 85 85 86 84 92 60 58 64 64 59 58 76 76 72 92 73 74 70 69 79 78 86 83 82 78
98 97 96 94 85 88 88 89 80 79 93 95 83 83 83 80 84 92 98 94 92 87 92 86 83 78 85 68 64 60 66 72 69 76 72 79 98 76 75 82 87 85 90 84 95 79 79
97 98 96 96 93 91 89 94 92 81 92 96 93 81 76 81 83 85 95 74 77 82 68 78 84 83 70 58 63 60 74 63 74 82 81 79 94 84 89 80 84 92 92 82 90 89 84
97 97 97 96 94 89 88 92 87 80 90 94 84 78 75 85 87 84 93 63 67 67 69 72 62 68 64 57 68 67 67 74 76 83 89 84 98 93 80 67 65 70 79 75 65 81 83
99 94 97 95 94 92 91 88 90 92 89 86 83 79 80 87 88 86 92 69 63 59 76 64 70 71 66 66 77 73 73 83 94 88 91 96 100 77 72 63 65 67 76 78 58 76 76
100 93 97 95 94 89 94 93 93 92 84 79 85 80 80 88 89 88 76 66 67 82 89 75 72 78 75 80 84 82 73 90 78 90 99 99 88 64 72 71 70 71 70 74 67 70 58
100 90 95 96 95 92 92 93 91 94 88 80 85 82 87 86 89 85 76 63 75 84 89 90 91 82 78 76 82 78 74 80 88 95 96 90 72 70 79 76 65 75 61 61 71 72 87
100 89 87 95 96 90 90 92 91 93 83 84 85 86 87 89 92 85 75 67 77 74 91 74 90 79 74 80 75 77 77 69 87 94 91 94 81 77 85 76 57 66 58 62 67 71 67
98 85 75 85 96 90 92 88 89 89 89 86 88 92 91 89 86 81 72 80 75 84 95 94 83 93 91 87 86 79 85 80 76 82 87 91 72 75 73 70 52 61 62 66 72 70 81
97 81 67 81 94 94 90 90 89 87 88 93 93 97 93 86 87 82 80 80 89 88 70 83 89 90 96 94 87 85 86 91 97 95 100 96 93 86 74 73 58 56 66 93 87 88 83
97 75 64 71 96 93 95 90 92 92 92 94 88 98 93 95 84 79 80 80 93 79 93 75 82 88 93 91 95 90 95 90 94 94 100 99 99 90 84 72 76 61 60 83 86 91 81
96 72 60 70 96 93 97 95 92 95 95 93 93 94 89 89 84 83 89 96 87 81 77 77 78 77 91 82 91 94 97 96 86 90 100 99 100 88 83 78 67 72 74 56 78 78 79
91 67 59 78 77 79 96 96 96 96 97 78 83 89 96 87 87 87 95 92 86 65 71 79 92 89 89 86 85 96 99 80 85 88 72 76 98 87 87 77 79 68 64 78 86 87 83
83 60 64 74 61 70 75 96 96 82 80 80 79 93 91 88 88 97 99 88 78 65 68 60 64 86 98 98 86 88 88 80 72 82 67 71 75 95 77 88 92 81 89 84 72 74 78
77 56 70 63 57 66 65 67 73 55 55 74 85 94 86 89 99 98 99 83 66 61 57 56 52 57 84 86 92 89 85 77 69 72 73 70 77 97 97 82 77 74 79 74 82 84 88
69 56 67 58 56 65 64 55 54 46 57 70 94 90 92 95 97 91 80 74 68 68 63 58 56 54 52 64 84 84 72 74 73 63 72 69 85 95 91 78 73 85 84 80 83 85 94
61 58 61 54 58 64 62 55 48 44 64 72 90 95 88 98 91 84 88 87 76 64 62 57 62 54 54 62 69 74 73 69 63 72 68 62 80 76 82 71 83 98 77 76 80 88 69
55 65 62 50 61 65 66 57 48 44 54 57 89 88 86 96 91 79 78 81 88 88 78 73 64 79 65 61 68 78 70 65 64 71 76 73 91 79 67 68 86 85 86 80 83 72 85
56 66 58 53 62 66 64 52 48 48 46 58 74 85 90 78 67 76 65 78 79 73 82 80 80 81 74 82 82 72 70 66 65 64 78 70 92 78 81 69 78 85 82 88 78 71 73
74 60 59 58 70 68 64 55 51 47 47 75 92 92 72 72 64 71 55 57 100 85 74 78 84 75 89 94 90 87 74 64 61 70 79 75 87 87 79 77 68 68 69 78 84 83 78
64 58 64 64 70 68 64 60 56 49 46 58 84 71 64 71 61 62 67 59 70 90 86 78 76 73 78 61 78 71 65 69 67 77 70 78 78 79 83 70 85 51 49 59 72 67 71
59 63 82 68 70 67 63 66 61 59 53 52 77 75 72 89 71 73 69 69 61 62 70 83 75 56 57 72 66 71 77 65 66 69 69 66 78 94 90 91 67 49 63 66 66 62 58
77 92 79 73 68 64 65 65 62 67 62 56 76 71 76 83 93 81 76 73 76 77 74 66 63 53 78 85 80 81 90 74 82 75 67 63 64 73 93 90 79 44 58 55 54 76 52
92 97 70 73 66 64 68 71 68 66 64 60 82 72 68 95 88 77 87 86 77 79 75 80 63 77 80 90 94 94 86 66 86 73 85 84 83 88 88 91 74 56 54 54 72 58 57
63 92 72 68 64 67 71 73 72 70 69 67 90 80 63 96 90 84 78 82 80 80 79 72 88 83 95 96 93 97 92 84 78 69 78 85 91 96 90 95 89 50 56 66 65 74 73
80 69 75 68 64 71 75 74 74 69 71 74 79 74 64 85 90 81 78 77 76 78 84 81 91 96 96 99 94 92 76 95 88 80 70 82 75 78 81 76 54 55 56 62 74 73 76

GFSGBSN_925_rhum_060.txt.gz
RH
99 95 94 92 88 90 91 87 87 77 90 90 89 87 85 84 95 87 81 84 89 85 87 85 87 82 74 63 53 65 70 65 72 72 88 92 81 62 49 52 63 80 53 50 38 45 43
99 98 95 94 91 86 85 90 89 76 83 91 93 90 86 86 86 95 86 91 87 86 86 88 84 74 66 64 58 59 67 65 64 86 80 97 74 51 42 46 64 56 59 57 51 56 45
86 99 96 94 91 91 90 87 86 83 88 90 92 88 87 90 84 88 96 91 90 89 86 86 84 81 69 48 54 63 71 67 65 73 77 92 86 55 41 50 41 47 62 62 72 59 58
91 99 89 94 94 89 89 88 90 82 91 91 95 93 90 91 83 84 94 99 92 93 90 85 86 78 62 60 61 66 64 67 68 78 82 94 92 65 43 44 51 51 54 72 61 62 55
94 99 90 90 94 93 91 89 94 82 90 90 95 91 85 89 79 84 92 98 95 92 91 90 80 71 57 69 57 59 62 63 66 74 87 95 90 64 60 53 59 58 49 52 61 52 58
100 100 98 97 83 95 91 88 92 94 92 93 94 86 77 89 82 84 88 89 73 80 77 79 74 77 54 50 59 65 63 72 59 78 76 83 89 73 57 53 61 54 45 42 51 66 58
100 99 100 92 85 96 93 90 92 92 84 89 90 80 78 88 78 85 89 69 62 64 68 54 52 56 51 60 73 64 63 58 68 80 94 90 100 90 52 42 33 35 43 48 43 59 65
100 100 98 86 91 95 90 90 95 95 88 82 78 83 80 85 83 90 90 56 57 62 66 57 56 59 59 64 79 61 72 65 85 97 80 91 98 85 50 48 47 44 44 46 52 60 60
100 100 98 96 94 92 92 90 94 90 81 85 80 80 78 84 86 90 83 64 70 77 72 72 71 69 64 73 70 77 81 76 89 93 69 78 85 83 57 50 52 46 46 55 49 70 58
100 100 99 93 88 91 89 91 92 91 83 83 80 79 84 83 89 89 71 65 74 70 90 79 84 75 72 69 74 76 91 82 89 88 73 88 83 88 63 50 45 64 44 51 64 55 51
100 100 99 83 72 74 85 95 89 91 83 86 81 86 90 85 88 76 80 69 75 75 84 77 88 76 67 68 69 81 85 69 75 86 90 92 96 89 65 53 40 55 48 47 51 41 45
100 100 97 80 66 55 82 93 91 90 87 86 89 90 88 88 88 83 70 79 76 91 92 95 82 87 79 74 71 65 76 61 58 70 90 89 75 59 54 57 48 48 50 49 47 45 64
100 100 94 74 58 52 87 95 92 93 90 90 91 95 89 90 73 80 78 75 94 84 72 76 85 95 94 86 73 72 69 76 81 92 99 92 75 69 61 59 50 45 47 72 69 78 57
100 100 94 70 49 57 77 97 94 91 96 96 95 93 92 93 83 81 84 72 90 78 82 66 69 86 87 89 83 82 78 83 83 78 80 98 100 75 63 49 59 54 40 53 60 55 45
100 100 92 66 48 58 60 88 98 96 96 91 98 94 94 90 85 84 77 88 91 78 72 65 66 67 97 94 92 94 86 80 79 82 76 100 97 82 69 61 48 59 65 42 57 55 56
100 99 86 59 50 51 55 60 92 95 92 80 90 88 88 86 87 88 83 89 92 61 67 76 77 90 80 97 98 92 89 78 79 73 65 68 99 79 72 62 58 52 45 60 70 75 56
100 100 81 54 53 48 56 49 61 94 53 78 86 74 86 89 89 92 93 96 79 57 60 57 76 97 81 88 76 83 92 84 75 80 65 58 64 97 68 74 78 63 63 60 49 54 56
99 99 78 51 54 52 57 49 52 80 51 84 82 84 90 89 94 93 92 79 68 58 54 53 64 66 81 76 76 74 83 87 74 66 76 58 66 97 99 72 62 54 53 48 57 70 60
100 97 74 50 52 56 54 50 52 55 51 74 78 82 90 96 86 82 74 70 66 62 57 53 59 52 49 64 78 78 66 65 72 58 60 53 67 94 97 71 65 74 62 51 54 63 72
100 90 67 54 53 55 52 53 52 45 57 71 71 91 87 94 82 76 79 76 68 63 60 54 55 49 50 57 57 69 76 63 62 64 65 52 60 65 58 64 56 68 61 63 61 82 60
100 86 60 54 53 52 54 56 49 44 63 63 61 69 73 91 71 70 74 70 78 74 64 58 58 60 53 57 60 68 71 70 64 64 62 57 88 76 56 64 71 70 62 59 76 61 70
98 72 60 52 54 53 59 56 48 45 58 51 51 61 65 57 58 68 68 71 76 72 73 66 66 68 56 63 68 63 61 62 78 63 68 60 88 71 77 61 64 70 61 61 60 57 55
100 78 64 53 54 61 58 52 47 46 44 61 88 83 47 61 61 62 58 68 94 81 70 73 78 66 71 77 71 71 62 53 52 66 71 68 78 81 75 62 59 64 54 54 56 58 56
98 80 71 61 55 60 57 51 46 45 44 52 76 62 43 56 55 55 56 56 96 90 81 75 64 65 65 54 64 64 50 53 52 58 52 62 67 70 76 63 68 45 41 46 49 46 46
95 92 94 65 59 63 54 53 48 44 46 48 59 52 44 59 53 56 54 56 54 82 88 73 67 52 53 66 57 60 60 58 60 59 54 49 55 75 74 64 48 54 56 52 53 56 48
89 93 96 84 62 64 57 56 54 47 48 49 65 58 52 51 67 63 54 57 50 57 75 71 53 55 67 66 62 65 68 64 70 68 57 54 49 55 66 72 59 46 49 48 48 60 54
91 96 96 83 64 66 61 60 58 58 56 48 71 60 59 66 73 64 61 58 60 58 57 63 58 71 73 73 72 67 68 56 69 62 70 68 66 70 66 68 50 42 48 47 66 65 56
88 91 95 69 66 67 68 66 61 58 59 57 83 60 62 68 78 72 67 64 64 58 57 56 74 74 95 84 75 79 68 64 64 61 65 64 65 67 66 71 72 50 54 59 63 47 47
86 94 85 71 76 65 75 70 63 63 58 55 80 65 58 68 70 83 81 78 75 70 61 67 81 88 85 100 81 74 70 74 67 62 58 74 62 61 62 57 56 50 55 57 44 44 42

GFSGBSN_925_rhum_063.txt.gz
RH
92 90 93 92 93 92 89 88 90 92 88 90 90 94 88 89 86 86 96 80 88 86 86 87 85 85 63 49 42 56 60 60 60 92 84 80 85 79 59 42 62 68 56 39 43 43 38
82 82 91 83 94 93 91 91 89 92 93 87 89 93 90 89 86 85 86 98 88 88 86 85 85 70 53 53 44 46 53 56 54 73 80 86 82 58 43 33 54 55 74 57 48 52 42
94 98 99 95 94 94 92 92 89 94 96 93 90 92 94 90 92 86 85 87 96 88 90 85 84 68 54 48 42 49 56 57 51 66 69 86 86 97 45 33 30 46 76 78 52 62 40
100 99 99 98 96 95 94 92 92 94 92 93 90 96 95 88 88 91 82 88 95 94 91 88 82 60 55 46 50 51 52 54 58 68 69 93 95 93 80 28 36 51 62 97 56 57 48
100 100 100 98 96 87 95 94 92 91 95 95 93 91 92 86 92 90 81 90 96 94 91 90 75 57 49 55 51 49 53 50 55 73 86 94 87 90 51 47 55 56 58 91 78 48 47
97 100 100 100 96 90 95 95 93 93 96 89 87 89 89 83 92 81 80 92 81 80 74 64 56 66 49 41 46 61 57 62 57 69 91 94 90 95 57 55 66 50 42 40 65 55 51
90 99 100 100 99 95 97 94 94 96 95 83 82 78 80 85 87 82 84 75 67 66 58 50 44 46 41 49 58 58 53 55 63 79 96 92 100 93 50 39 26 28 31 27 34 43 54
90 100 100 99 99 96 94 94 93 95 93 85 92 82 80 90 79 81 86 61 47 63 60 47 50 49 49 62 69 55 62 66 84 96 89 94 100 66 43 32 32 27 33 35 31 52 50
88 100 100 100 99 85 88 96 93 93 95 86 81 82 79 75 92 84 80 54 69 67 65 59 60 60 55 65 75 69 67 70 92 97 79 83 92 72 56 43 38 30 35 41 46 44 49
82 98 100 100 98 84 74 95 96 92 92 82 81 84 80 81 86 74 63 65 77 69 91 71 77 66 60 63 84 84 82 75 95 91 62 68 77 75 83 42 35 42 29 30 37 54 54
79 97 100 99 99 83 64 93 95 93 92 84 87 91 85 78 77 66 71 75 77 66 90 71 81 63 57 64 81 83 71 72 70 74 57 82 79 96 89 41 31 40 32 39 48 48 34
79 97 100 100 95 74 58 87 94 92 89 88 89 90 84 79 83 74 79 80 73 90 88 81 70 72 59 61 71 74 69 53 54 74 77 82 67 85 66 41 37 40 46 46 44 38 60
85 97 100 99 94 70 53 82 78 94 91 90 89 91 88 78 64 82 79 70 97 85 62 68 95 91 86 61 60 62 63 66 78 95 99 96 95 86 62 54 45 37 45 64 62 70 57
93 100 100 100 94 65 50 72 67 95 93 90 92 88 86 88 88 85 76 76 90 71 64 53 71 88 87 80 75 61 66 74 71 59 100 100 100 60 49 44 52 41 34 48 54 51 41
93 100 100 99 93 59 54 52 62 92 88 84 90 87 82 88 91 86 84 99 88 68 63 56 57 93 100 94 72 83 76 64 53 63 91 100 95 67 56 48 43 52 61 38 47 37 40
96 99 100 100 93 56 52 45 60 84 80 78 76 71 73 90 92 82 96 78 77 59 63 62 67 88 99 94 89 96 77 71 69 61 55 80 100 74 62 52 48 48 37 50 59 65 42
100 99 100 100 93 59 47 44 54 69 53 76 74 68 86 90 88 84 92 92 69 52 54 53 69 86 84 98 76 70 85 81 66 65 54 52 71 97 60 65 61 56 58 50 43 48 53
99 100 100 100 92 66 43 45 48 63 53 82 68 80 87 90 89 79 78 72 68 52 48 49 57 59 70 67 69 64 90 85 61 57 59 51 70 94 95 65 56 45 44 41 51 63 45
99 100 100 100 91 67 43 48 46 57 69 72 63 67 87 86 82 72 65 64 60 54 50 48 54 50 44 55 71 61 69 66 66 59 64 53 78 93 93 65 58 62 49 45 41 56 64
98 100 100 100 88 58 49 47 45 47 58 78 62 83 77 78 66 65 62 62 62 56 51 47 47 44 45 49 49 61 72 74 62 56 61 50 54 62 64 57 48 63 50 47 49 76 54
99 100 100 99 92 50 49 47 46 43 48 73 54 51 58 85 62 53 62 56 60 60 52 47 47 49 46 52 52 62 67 69 62 61 56 52 80 74 50 56 61 59 50 47 66 59 64
100 100 100 99 91 53 52 52 46 44 67 58 43 51 57 55 52 55 65 59 60 65 60 55 53 51 45 53 59 57 62 60 59 56 58 51 86 68 81 54 56 63 52 50 49 48 50
100 100 100 98 83 56 51 52 47 47 65 42 57 54 42 55 52 52 49 59 68 69 65 62 60 51 61 68 57 54 49 44 48 59 58 60 71 86 73 52 51 55 44 45 47 45 47
100 100 100 98 71 56 53 54 47 48 52 50 52 41 36 50 50 51 51 62 85 73 71 64 53 53 60 50 52 47 42 44 44 47 46 60 65 66 76 57 68 44 34 38 40 40 39
100 99 100 96 95 53 56 52 46 48 47 60 64 41 33 43 43 50 52 54 76 80 75 67 60 51 51 55 52 56 55 53 53 50 46 43 50 66 74 56 40 52 49 46 48 63 50
100 98 100 98 88 55 54 49 48 47 50 62 69 57 35 44 48 41 47 48 59 73 75 65 51 51 59 54 53 55 59 52 63 64 49 47 44 50 56 64 52 50 44 41 42 62 51
100 100 99 92 83 58 53 52 49 49 52 62 70 60 42 52 57 46 45 47 45 49 58 58 57 64 63 57 59 53 54 47 60 59 67 61 55 64 64 63 47 46 45 42 60 69 48
100 100 94 80 82 61 50 58 57 48 46 56 82 63 49 53 67 56 54 51 49 45 48 54 64 65 81 72 65 57 54 49 51 47 51 54 58 56 57 70 66 49 51 56 55 43 42
100 97 91 61 95 61 58 60 53 53 53 60 72 73 60 53 68 66 67 71 68 63 49 61 69 69 74 94 68 61 62 57 53 62 50 62 54 54 51 55 50 41 46 47 42 47 48

GFSGBSN_925_rhum_066.txt.gz
RH
98 96 97 99 97 95 94 93 92 91 91 94 90 88 93 93 91 90 84 84 96 86 85 85 84 84 69 54 44 57 48 52 57 65 87 85 84 81 79 65 58 84 56 49 50 65 45
99 100 97 98 98 95 95 92 93 92 92 96 94 90 95 95 91 91 90 81 86 98 87 88 83 82 69 61 38 40 49 52 50 70 90 86 77 72 62 60 58 65 63 51 65 70 68
92 99 99 99 99 96 98 92 94 94 92 95 93 91 95 94 92 86 92 78 86 91 91 89 84 75 60 54 38 40 46 50 51 51 76 86 74 89 83 58 40 58 75 77 74 77 55
85 92 99 100 99 100 99 90 96 94 92 94 94 93 93 94 91 91 82 78 85 92 97 90 86 73 64 41 45 45 43 47 53 61 68 87 84 90 93 53 40 59 70 90 64 77 77
81 89 93 98 100 100 98 92 96 95 93 94 96 94 91 87 86 81 80 79 86 94 91 89 84 71 57 49 49 43 49 49 47 66 82 82 93 85 83 89 54 63 89 83 77 69 84
74 88 91 91 100 100 99 97 97 96 93 96 94 87 80 86 87 82 78 83 90 79 78 68 57 60 52 43 47 55 56 55 53 70 84 83 92 92 91 84 77 65 79 81 77 73 91
86 84 91 95 100 100 100 95 97 96 94 96 91 83 74 82 88 76 72 88 77 75 63 57 49 48 40 42 52 57 53 59 65 71 96 92 100 98 92 72 42 48 53 92 79 71 88
86 85 88 92 96 100 99 93 96 96 94 96 93 82 80 78 78 83 75 79 54 63 71 49 45 48 45 69 70 50 58 67 78 89 93 99 99 83 86 68 39 39 44 48 66 62 67
98 85 86 91 100 100 100 92 97 94 95 93 87 82 87 78 80 79 79 74 63 64 75 58 55 58 52 66 77 68 60 70 84 96 94 93 93 86 84 56 40 33 35 48 76 68 85
99 98 89 92 99 100 99 90 93 79 96 94 87 88 79 76 86 76 65 61 71 67 99 78 73 64 57 66 85 76 75 79 92 98 94 85 86 87 76 76 39 43 31 44 54 62 75
95 99 97 98 98 100 99 90 78 81 95 90 90 87 84 79 82 67 70 70 74 69 99 65 78 58 57 66 73 83 67 82 97 90 76 94 96 85 69 39 29 39 31 43 51 54 46
95 93 100 99 99 100 98 88 71 88 87 87 90 87 86 81 79 75 75 75 74 98 84 80 65 68 60 59 68 70 74 86 57 70 75 85 80 84 88 46 40 40 45 50 52 57 82
79 96 100 100 100 100 98 81 76 69 84 85 84 88 88 72 79 78 75 76 100 96 58 72 81 78 71 83 68 58 63 77 78 93 98 92 95 76 79 57 48 48 55 86 87 88 76
91 96 92 100 100 100 97 81 82 67 84 69 84 86 80 79 82 79 75 95 89 62 64 55 70 82 80 72 58 54 60 76 63 77 100 100 97 88 60 49 57 59 48 77 63 81 65
100 96 96 99 98 100 95 90 64 67 72 65 83 86 80 84 84 82 92 100 91 70 56 55 94 100 94 76 64 74 67 71 58 63 100 94 100 85 59 49 54 52 70 43 60 37 73
100 99 96 100 100 100 98 89 51 64 68 70 86 76 71 86 86 84 99 85 72 58 61 57 69 82 97 81 77 82 68 65 62 55 56 74 96 72 61 54 50 61 44 62 84 70 50
99 100 96 100 100 100 97 92 53 58 57 75 86 78 86 87 87 93 100 93 66 50 51 58 66 76 95 94 81 67 76 76 58 59 58 68 69 91 67 66 62 62 82 55 53 69 84
99 97 98 100 100 100 98 91 62 54 54 82 70 89 84 84 98 81 93 66 62 50 47 50 54 62 74 74 68 72 83 78 58 55 59 56 82 98 90 68 56 63 48 48 76 73 64
96 93 98 100 100 99 98 86 86 50 64 79 73 80 80 82 84 77 63 62 57 50 49 47 54 49 44 58 72 70 74 68 55 57 61 53 84 97 98 71 57 71 56 48 48 69 82
86 88 98 100 100 100 98 85 95 43 66 72 72 85 84 81 68 75 59 59 62 55 50 45 46 44 46 52 49 67 74 70 62 56 58 55 69 80 90 71 66 74 58 52 59 91 68
97 94 100 100 100 100 96 84 87 43 76 82 71 71 64 87 73 63 58 53 53 60 50 45 48 48 46 54 58 70 67 74 68 66 61 60 79 74 54 58 68 60 58 55 69 66 72
100 99 100 100 99 99 88 83 60 47 72 82 63 64 64 55 51 58 63 61 52 63 64 52 53 48 45 60 61 62 62 64 68 62 61 58 93 74 82 53 55 64 56 54 52 56 54
100 96 98 100 100 98 95 85 56 50 64 67 52 49 55 60 58 57 57 57 61 62 63 59 57 56 67 67 58 53 49 45 51 61 65 64 82 90 82 53 53 69 58 55 53 49 49
100 99 96 100 99 95 86 75 53 47 53 51 47 46 57 59 57 55 53 67 74 71 61 60 54 56 61 50 51 56 43 44 46 50 50 68 73 90 88 69 86 50 37 42 42 45 43
100 95 100 100 99 98 91 74 50 46 57 57 50 53 48 54 53 50 55 73 74 73 70 61 58 54 52 56 62 64 63 57 55 50 46 49 63 85 93 85 53 60 52 52 55 69 57
94 98 100 99 100 94 92 75 49 46 65 59 55 49 58 52 57 44 53 68 83 79 79 64 51 52 63 71 60 61 72 55 68 66 49 48 50 66 67 79 65 60 46 41 42 83 54
99 100 100 99 100 92 86 57 46 61 78 55 53 52 51 66 65 59 57 56 47 59 70 63 60 64 62 72 72 62 69 51 68 67 74 70 64 78 75 81 64 52 47 42 71 77 47
100 98 100 99 97 97 85 50 48 60 64 56 64 57 55 72 70 58 57 56 51 52 64 61 72 72 84 85 73 77 74 57 57 52 55 73 78 74 68 80 78 50 53 67 60 48 53
100 96 99 99 93 99 84 60 51 63 66 51 66 58 49 74 73 66 67 67 69 63 72 67 72 75 82 88 73 68 66 63 59 72 52 72 70 74 63 73 55 42 55 48 49 55 62

GFSGBSN_925_rhum_069.txt.gz
RH
94 99 100 100 97 95 92 98 96 91 94 92 95 96 92 96 96 91 89 90 81 85 95 89 88 84 75 74 70 54 53 51 53 63 72 81 90 83 77 73 74 83 73 58 50 61 70
87 86 89 98 100 100 98 99 94 91 96 94 94 95 94 96 96 93 88 89 77 83 90 92 92 84 84 90 44 45 47 50 51 59 83 94 76 83 84 78 75 68 70 66 68 66 78
72 77 85 85 97 100 100 99 95 88 96 95 93 96 96 95 95 89 86 87 80 81 90 97 88 85 76 83 41 44 43 44 51 53 74 87 78 90 84 74 57 61 83 77 80 72 75
94 83 69 80 91 98 100 100 98 85 97 95 94 97 95 90 85 80 72 78 81 80 91 95 89 84 87 45 46 42 41 47 49 54 67 79 88 85 87 77 64 70 72 91 86 87 81
98 98 88 79 89 92 99 100 99 89 97 96 96 93 80 81 82 79 76 82 83 86 94 91 85 83 78 47 49 47 47 49 50 60 78 82 87 91 92 92 86 80 85 83 90 82 83
98 96 99 87 84 92 100 99 99 92 98 96 95 90 78 76 74 75 74 79 84 92 72 80 78 79 57 49 51 53 55 56 58 76 85 85 88 96 97 95 96 83 85 74 89 84 81
99 93 96 100 87 89 94 99 100 90 95 97 95 90 79 77 76 80 77 74 84 88 78 71 66 64 50 58 51 56 55 60 70 78 87 88 99 98 97 90 83 56 64 84 68 71 75
84 86 96 94 100 93 96 100 100 92 94 97 95 90 80 78 83 77 77 91 65 66 87 65 57 52 48 72 76 56 59 78 84 89 90 99 96 81 76 79 79 57 84 86 77 75 70
87 85 86 92 95 100 99 100 100 94 96 98 96 92 82 75 77 77 79 78 67 66 88 62 55 61 59 70 77 79 73 72 86 96 94 98 84 78 87 88 86 63 71 79 76 74 75
84 87 88 86 85 98 100 100 100 94 89 98 92 92 85 76 83 74 79 66 65 68 96 78 78 67 62 77 83 71 74 78 87 95 100 98 86 84 84 85 66 62 43 55 73 89 100
87 91 95 86 92 94 100 100 100 99 84 98 91 90 86 76 81 76 71 67 70 72 88 69 79 59 59 73 71 82 84 85 90 93 96 97 96 89 86 70 58 50 48 63 76 87 65
87 92 96 85 93 94 98 100 99 96 88 84 91 82 85 81 75 79 71 68 75 92 83 83 69 73 69 71 79 76 87 90 85 78 81 88 90 89 84 76 42 55 56 62 66 65 85
93 93 96 76 98 97 93 100 99 93 79 72 82 83 80 75 82 77 73 82 98 93 60 80 75 81 81 84 74 74 80 81 85 90 99 97 93 78 81 63 56 53 63 95 88 84 76
99 97 87 83 100 94 95 100 99 96 59 80 81 81 76 76 79 75 77 98 80 58 70 69 76 79 78 74 61 57 65 81 70 82 94 97 92 93 73 58 61 54 52 79 82 92 70
88 90 96 96 100 97 98 100 99 85 75 72 83 85 83 83 77 80 95 89 86 78 58 78 95 95 87 78 73 76 71 74 64 77 95 99 100 82 71 60 54 57 74 46 61 53 81
86 98 97 88 98 99 99 100 97 82 61 76 87 84 81 80 80 84 98 88 76 60 63 66 88 90 89 68 82 92 78 72 69 65 74 79 97 83 64 54 54 58 48 63 83 65 59
72 79 97 85 96 98 99 100 98 86 52 78 83 93 85 78 87 97 93 85 69 53 56 61 72 88 77 85 85 78 81 74 62 60 62 72 75 82 69 84 76 70 73 61 64 77 83
76 77 96 91 96 100 86 100 97 91 57 96 86 96 86 86 98 94 96 65 57 56 49 53 58 65 91 81 74 79 85 82 62 58 63 62 87 94 90 75 62 66 62 58 78 73 74
74 80 90 96 99 96 91 99 95 92 68 86 88 98 85 86 98 90 70 71 63 57 53 51 58 50 58 64 78 75 80 70 60 64 68 62 88 94 90 70 60 73 63 58 66 73 84
76 81 98 96 96 90 100 99 92 92 62 72 80 97 98 96 87 84 79 77 75 57 52 48 49 48 50 58 59 76 71 72 65 62 56 60 78 79 88 73 70 81 67 60 68 90 72
75 85 90 100 95 99 99 99 83 70 73 77 83 87 81 98 95 87 67 67 70 71 55 48 51 51 50 65 64 75 66 79 70 63 62 67 80 73 62 62 66 64 66 67 74 68 74
74 92 95 99 98 100 100 98 82 56 87 88 84 86 76 84 73 87 71 68 62 71 68 56 56 60 68 75 75 67 68 71 77 67 66 66 88 74 83 56 58 65 61 59 62 62 64
76 89 99 100 100 100 100 95 82 92 92 83 59 55 68 74 79 80 80 63 70 73 67 64 67 71 78 72 64 59 53 56 62 72 73 73 82 91 85 56 54 68 62 61 57 51 56
79 95 99 99 95 100 99 91 81 89 69 52 45 62 69 78 77 70 73 74 75 78 72 65 64 68 64 53 54 52 47 54 53 53 58 75 78 92 91 71 76 51 41 45 58 64 57
88 94 100 97 96 97 99 98 93 73 68 51 50 58 64 77 67 74 80 88 83 79 77 73 62 61 62 60 68 72 70 61 61 59 52 60 77 92 92 90 59 60 52 52 61 74 63
92 97 100 91 98 96 98 100 87 65 70 52 53 53 67 69 69 66 88 82 88 85 81 70 54 57 67 84 73 74 84 71 79 70 54 53 58 75 80 84 78 62 48 44 45 84 58
90 99 100 100 99 100 96 88 97 74 88 48 53 54 59 82 80 68 72 82 68 81 88 73 64 69 70 85 81 72 77 56 81 81 79 76 72 79 79 88 70 59 54 45 62 66 57
95 93 99 98 99 97 92 89 98 87 94 51 58 61 61 91 84 77 76 74 62 70 84 68 75 78 88 86 81 86 78 66 67 63 73 77 85 83 81 90 90 53 60 65 65 61 66
96 98 100 99 97 98 91 89 96 98 78 49 62 57 54 82 82 70 72 73 73 71 77 79 79 84 89 90 85 81 75 76 74 80 59 76 70 75 72 75 57 52 64 67 68 73 74

GFSGBSN_925_rhum_072.txt.gz
RH
99 96 82 84 86 93 99 100 100 99 99 97 94 94 97 95 96 94 92 90 86 80 84 93 92 90 68 81 76 52 60 52 46 60 69 76 85 76 94 83 80 88 76 68 57 61 70
98 98 99 97 80 79 92 99 100 100 96 98 96 96 97 89 95 96 95 90 83 82 82 93 92 89 82 90 42 53 50 46 49 60 75 78 82 69 84 86 80 76 72 72 70 63 77
100 100 98 98 99 91 82 95 100 100 99 98 95 96 86 83 82 88 91 75 82 78 82 91 92 90 82 79 39 49 49 45 46 51 80 80 86 94 86 80 68 67 83 79 77 73 71
90 95 99 98 98 100 96 90 99 100 100 98 100 96 86 80 81 81 78 72 76 84 80 90 88 87 93 45 48 46 45 44 48 51 61 68 81 86 88 81 73 75 77 87 72 76 78
75 84 92 97 94 96 99 99 95 100 100 98 97 97 87 78 81 74 76 80 84 87 89 96 88 87 87 50 55 49 47 49 46 58 64 81 86 86 93 92 86 87 85 84 89 76 95
81 75 84 93 89 98 97 99 100 100 100 99 94 93 86 78 77 76 80 79 75 93 84 84 84 89 67 52 51 52 52 57 62 76 84 84 89 97 98 92 98 80 89 75 94 93 87
72 75 75 83 88 92 95 93 99 100 99 99 95 93 81 80 79 83 79 73 84 88 78 80 72 70 56 54 54 57 57 61 76 78 85 84 99 99 98 80 86 84 79 77 89 84 81
82 81 79 82 88 93 97 96 96 100 100 100 98 92 85 81 82 80 83 87 66 65 80 67 69 62 53 64 74 59 60 74 85 93 89 95 99 79 85 85 86 85 74 88 72 86 80
86 87 82 85 92 95 97 86 91 100 100 98 92 91 82 80 81 80 83 76 67 68 91 69 66 63 63 66 84 75 70 73 83 82 85 96 82 69 80 83 95 93 73 87 90 79 81
84 84 84 83 89 90 96 88 88 98 100 98 93 95 88 79 80 77 82 66 67 70 90 81 81 68 71 70 84 68 75 78 89 94 96 99 85 79 82 92 87 98 69 68 88 94 96
86 84 82 88 97 94 97 85 90 95 100 95 94 95 88 82 80 80 69 67 71 69 91 70 77 59 66 78 74 83 86 86 96 98 98 98 92 89 93 92 76 56 62 64 76 98 97
76 75 89 88 92 97 94 94 99 98 100 97 96 95 88 84 83 78 72 68 73 85 83 85 71 73 76 76 82 84 89 91 82 96 88 94 82 80 82 71 64 55 73 77 74 85 98
68 75 76 85 98 95 81 84 99 95 100 91 80 85 86 72 78 74 73 80 88 84 55 89 80 79 82 79 81 86 87 90 92 97 98 99 97 90 86 79 67 61 75 98 98 97 86
74 73 74 80 89 100 84 91 99 98 99 88 79 78 81 75 75 74 78 90 78 64 80 73 79 79 83 78 68 68 68 79 75 82 100 99 99 96 74 65 86 63 54 81 88 92 74
66 72 76 80 82 99 86 91 95 100 97 93 85 87 85 82 78 78 86 94 79 77 63 89 88 86 87 77 76 75 74 79 72 80 93 95 100 82 70 60 54 61 77 49 66 64 72
63 67 71 78 80 93 88 98 99 99 87 92 88 89 84 78 81 84 84 91 79 63 68 90 96 92 88 73 82 85 83 75 71 67 72 80 95 85 74 54 57 56 48 63 82 73 66
69 67 68 73 80 93 87 99 96 100 90 87 86 94 86 76 84 98 98 91 69 57 57 64 79 80 80 81 82 83 83 71 67 62 65 68 76 82 72 88 86 68 65 66 68 77 74
78 75 75 74 80 93 93 98 98 98 93 99 88 97 91 83 98 95 97 71 58 60 53 56 60 74 82 85 87 84 90 86 75 62 72 78 83 96 89 74 68 68 66 63 74 69 80
79 81 77 78 81 93 98 100 96 95 91 97 96 98 94 86 98 89 74 66 64 62 59 56 63 55 68 86 85 82 79 74 70 69 74 64 87 94 78 64 60 72 62 60 68 77 81
82 79 77 81 80 98 98 99 94 91 86 96 90 98 100 99 86 86 82 80 76 58 54 49 52 49 55 60 69 81 74 71 71 65 58 63 81 74 86 73 70 79 71 63 67 86 75
84 80 80 82 94 99 98 93 100 86 79 100 84 89 80 93 96 90 76 78 76 71 58 51 53 53 56 72 70 76 76 77 69 66 63 70 81 74 65 64 68 68 69 71 76 66 67
87 85 84 88 96 98 99 95 100 90 86 90 95 92 83 89 85 90 82 82 73 77 64 60 61 69 62 73 68 73 73 75 76 70 68 71 91 73 82 59 61 64 62 65 71 64 63
88 87 88 95 99 100 95 100 94 85 100 90 74 65 73 84 92 85 80 74 71 77 71 68 70 76 79 71 64 61 59 63 64 74 78 75 83 89 88 68 58 68 57 62 60 58 61
88 88 88 98 99 99 95 98 94 98 98 60 53 66 76 88 86 78 73 73 77 75 80 67 66 68 64 56 54 53 55 59 60 64 66 76 80 90 90 69 81 54 46 51 68 73 68
89 87 93 99 95 88 99 98 93 97 88 53 56 59 72 89 80 84 84 87 78 82 79 73 65 65 64 63 71 74 77 63 64 61 57 69 83 94 87 90 61 57 54 53 60 79 66
90 84 92 100 99 98 100 99 90 91 90 56 58 61 68 72 81 76 87 80 89 90 83 73 58 63 71 83 77 80 90 76 84 70 57 61 70 75 86 85 80 62 51 48 49 85 58
90 88 93 99 95 99 99 93 91 90 100 54 60 60 58 87 90 76 87 81 81 84 90 75 68 74 72 87 82 75 81 65 86 83 79 77 72 83 83 89 75 61 58 51 62 61 68
91 96 92 98 99 98 99 91 84 82 92 52 66 63 60 95 88 82 81 66 66 80 87 75 75 77 89 84 82 84 79 70 73 68 75 79 87 87 86 93 93 54 60 65 66 70 71
93 95 87 99 99 98 97 87 89 91 82 56 59 60 57 85 86 71 72 74 74 71 82 86 78 87 88 90 89 85 79 80 77 84 63 76 73 79 76 78 64 77 71 73 66 76 74

GFSGBSN_925_rhum_075.txt.gz
RH
97 98 99 100 95 96 98 99 91 94 100 99 99 98 93 95 96 97 94 94 89 85 89 83 94 94 71 82 79 41 68 60 48 55 69 74 87 83 83 87 79 83 80 64 69 60 73
87 86 88 97 100 98 97 99 98 99 100 100 99 98 93 91 86 86 91 91 89 87 87 82 94 94 77 93 40 49 64 49 49 62 73 76 83 82 77 70 88 74 73 72 67 73 69
81 79 81 83 94 100 99 99 99 99 100 100 100 97 94 90 88 90 89 90 86 85 82 81 90 95 83 81 38 57 57 50 47 51 82 75 78 87 77 76 63 78 92 73 72 81 73
79 73 75 78 79 91 99 94 97 92 98 99 100 99 96 91 87 82 89 89 82 81 83 82 92 90 88 42 54 52 48 48 49 49 60 70 77 78 91 78 87 92 86 83 64 81 73
80 86 83 76 76 80 87 93 93 96 91 97 100 98 97 88 87 79 88 81 89 86 86 87 95 85 86 54 60 48 49 50 48 55 62 81 82 92 93 99 98 85 99 83 81 76 85
87 86 85 87 79 81 82 93 98 93 90 98 100 99 99 90 83 80 79 83 75 92 92 90 87 91 75 54 52 51 53 58 66 68 81 85 89 99 98 100 94 84 90 74 79 82 77
70 83 90 88 84 85 84 90 91 91 90 94 100 100 96 91 82 81 80 77 86 89 82 83 75 74 58 54 56 58 60 70 76 81 88 85 100 99 97 95 84 70 82 77 88 82 86
71 71 80 90 84 86 88 83 87 92 73 82 100 100 90 93 81 89 82 84 70 64 79 73 75 72 61 62 79 64 62 74 88 96 84 91 97 80 83 93 93 72 89 84 86 87 88
71 68 68 70 82 84 90 96 88 91 93 99 100 100 95 89 88 94 86 73 67 70 87 68 72 70 67 68 82 79 71 77 87 80 76 94 77 69 86 88 95 90 82 90 85 86 77
65 66 64 67 70 75 84 96 90 90 81 99 100 98 95 89 83 82 83 63 71 71 88 77 83 70 72 71 85 69 76 74 94 93 84 99 85 77 81 89 77 86 74 78 88 95 100
62 62 74 71 73 74 83 85 94 87 86 95 100 96 90 80 82 84 68 68 69 64 82 62 78 60 70 79 76 84 91 83 89 93 98 98 98 88 77 78 72 73 68 86 84 97 99
63 65 62 72 72 71 81 91 84 92 89 87 100 96 91 96 90 79 70 71 72 84 75 86 74 77 84 77 80 89 87 90 84 98 100 98 81 72 70 74 78 75 77 83 88 100 98
66 62 62 64 70 72 78 97 91 92 90 92 99 90 93 85 81 78 70 79 90 88 53 92 82 77 80 79 79 84 85 92 98 99 99 97 92 87 77 95 79 79 90 99 98 98 94
73 65 66 65 67 70 75 84 97 84 97 95 95 88 94 78 77 74 75 90 82 64 81 76 79 79 86 80 70 77 71 100 80 96 99 92 99 90 76 72 82 70 60 93 92 92 78
73 66 71 73 74 69 73 80 93 90 86 100 92 100 95 83 78 72 87 94 78 72 76 86 80 87 87 74 81 79 85 87 80 85 97 98 99 85 78 65 59 64 77 50 68 63 84
68 78 84 82 76 74 77 80 94 95 97 95 99 99 92 86 76 80 90 87 87 67 90 79 84 77 84 76 80 82 84 75 81 68 72 79 93 76 71 57 58 56 50 63 83 85 68
80 80 84 78 78 82 81 84 92 99 100 92 93 96 91 85 81 97 91 93 73 61 64 84 85 91 82 80 81 84 85 67 76 70 72 69 76 78 71 89 89 67 63 69 70 76 80
86 96 83 85 80 82 85 86 96 98 99 100 96 99 93 84 98 95 98 85 61 64 58 58 70 70 77 84 72 86 89 90 78 69 82 77 83 95 85 71 73 72 68 63 74 68 82
84 93 87 86 87 87 88 94 90 96 96 96 96 98 98 88 99 98 77 64 64 63 59 61 67 69 73 82 86 82 81 75 75 71 72 63 85 91 78 64 58 71 64 67 71 76 81
97 86 87 85 87 87 95 96 96 98 89 92 97 100 100 99 92 77 78 73 76 58 55 50 56 50 71 73 74 86 77 75 74 68 65 66 82 71 86 68 70 76 71 65 67 84 76
93 83 86 88 88 95 85 98 98 98 96 88 97 96 80 97 96 92 76 70 74 70 59 52 55 55 58 78 77 82 76 77 70 70 65 67 84 78 71 69 70 70 69 72 77 64 64
90 89 88 93 97 86 98 99 99 100 85 100 95 93 83 90 85 90 84 80 70 78 67 61 64 66 60 68 65 74 76 75 76 70 70 74 92 74 83 66 62 66 64 72 72 68 62
92 91 94 96 96 97 99 98 97 96 99 97 96 82 80 83 94 87 82 81 74 76 70 68 69 74 75 70 65 65 63 72 67 73 79 76 85 86 84 70 56 69 57 65 67 66 66
88 93 94 96 93 100 98 83 91 88 99 84 75 73 83 94 91 78 71 72 80 72 79 70 66 67 65 57 54 50 54 65 68 73 71 76 82 88 89 69 79 53 49 53 68 74 75
90 90 93 89 98 96 76 82 100 98 76 75 65 70 80 95 87 85 82 84 78 81 80 74 69 68 64 60 72 73 78 66 67 64 67 70 82 94 87 88 65 56 56 70 65 74 65
91 90 91 98 100 100 99 99 100 88 69 63 68 69 72 80 88 87 87 74 82 87 83 74 65 69 73 81 76 80 87 75 83 73 60 62 75 80 84 88 84 56 53 52 53 75 60
92 92 91 91 99 98 99 99 99 96 79 61 61 65 66 91 93 87 88 80 81 83 91 77 72 75 71 85 82 77 84 70 88 84 79 76 73 86 84 90 74 56 56 54 68 63 65
94 93 93 90 97 96 99 99 99 100 81 61 60 60 66 96 90 86 86 70 77 82 87 78 77 75 87 84 80 85 79 75 76 70 76 81 87 87 83 86 92 63 59 61 65 73 71
95 94 94 94 95 97 91 90 92 93 84 66 54 60 62 86 87 74 73 76 76 72 85 86 77 85 86 90 89 89 84 82 79 82 69 77 74 79 78 78 72 82 72 74 68 75 74

GFSGBSN_925_rhum_078.txt.gz
RH
81 80 80 84 87 90 97 98 98 97 98 97 97 99 100 100 90 92 92 94 91 88 88 89 82 91 80 81 75 42 68 64 55 55 69 72 86 84 91 84 81 90 76 72 63 60 65
85 85 82 79 79 81 84 94 98 98 98 98 98 95 100 99 94 91 97 93 88 91 90 84 82 95 78 92 49 43 49 61 50 58 70 78 82 81 91 85 76 74 76 70 69 68 63
83 87 81 83 84 79 77 82 94 98 98 99 98 92 100 98 96 92 96 91 89 90 85 77 84 95 84 80 42 58 65 58 49 55 77 72 75 77 81 82 66 68 86 82 68 64 78
83 81 90 85 84 85 78 77 90 93 95 97 99 95 100 98 97 91 96 86 91 80 86 82 85 92 90 52 50 50 60 53 47 50 58 65 75 75 83 72 81 89 76 95 73 65 78
82 69 82 88 85 82 80 85 83 78 83 87 86 93 100 100 96 92 91 81 88 88 86 83 94 81 79 59 67 49 54 53 50 52 58 73 76 82 86 98 99 87 96 92 78 64 71
73 74 66 75 80 79 86 83 87 85 84 86 90 83 100 100 94 89 86 81 83 90 96 89 88 91 77 59 52 53 54 56 64 65 72 84 93 100 100 100 95 86 97 99 78 79 76
70 67 72 72 65 70 74 77 86 88 87 89 88 98 100 100 89 89 87 82 87 89 86 78 75 75 60 55 56 59 62 70 70 76 97 88 99 98 91 96 91 98 80 84 75 84 83
69 70 64 65 74 76 71 72 81 84 88 92 93 86 100 99 91 91 86 82 76 63 84 80 78 77 68 62 75 67 65 76 91 94 85 95 98 78 78 94 98 100 81 96 92 76 82
63 62 66 64 60 67 70 73 76 92 88 91 96 97 100 97 92 98 89 76 70 71 76 69 75 74 67 70 74 82 72 77 90 96 87 92 75 73 80 96 100 92 82 93 87 86 83
68 60 67 60 61 59 70 69 72 86 88 94 96 94 100 96 93 89 93 67 72 70 88 79 84 73 74 70 84 71 75 78 85 94 85 92 71 86 93 100 84 88 87 83 87 92 98
68 74 72 72 63 62 60 66 67 85 92 94 87 91 98 83 82 87 77 71 73 63 79 61 86 63 70 88 79 85 86 83 89 91 96 95 88 91 95 82 77 92 78 82 86 97 97
75 77 80 74 68 68 67 68 71 81 87 90 89 84 100 91 94 86 75 70 71 80 76 90 82 87 95 86 80 82 88 88 85 99 100 99 85 76 62 75 85 82 82 84 94 94 94
69 77 75 73 76 77 75 71 79 76 82 91 95 96 98 92 93 86 73 76 90 88 53 94 87 81 84 81 80 88 91 99 100 100 99 98 91 83 80 86 82 78 77 98 96 97 98
75 73 77 77 82 84 84 83 80 79 85 95 97 95 100 91 86 85 77 83 87 65 84 78 79 81 87 79 72 78 94 100 97 97 100 97 96 89 85 90 95 80 84 92 93 93 93
77 78 89 84 83 85 83 82 81 83 92 98 94 99 100 91 92 82 88 95 77 72 79 89 78 87 84 74 82 79 87 95 85 86 91 99 100 92 90 72 62 68 84 57 73 63 90
74 78 84 91 87 82 87 83 81 86 91 94 97 96 97 90 91 79 94 84 80 67 82 72 80 74 77 76 79 81 85 75 84 83 84 87 98 79 66 61 56 51 52 64 83 85 78
73 85 85 86 92 90 88 88 85 90 96 100 92 96 92 95 90 96 97 90 80 66 77 80 88 87 80 80 82 85 86 68 83 78 72 68 77 80 71 90 90 65 65 71 70 76 74
81 84 85 85 86 84 90 91 87 97 94 91 92 100 98 94 99 93 98 82 65 69 60 66 71 73 79 82 69 87 90 91 81 76 81 77 83 96 84 71 75 76 70 60 74 70 81
88 84 88 92 81 88 94 92 99 88 97 97 97 98 100 91 100 98 86 72 70 64 64 65 74 65 69 82 87 83 83 75 79 76 77 66 82 89 75 64 60 72 67 71 70 73 80
86 88 93 93 91 87 96 95 89 96 94 96 96 99 99 99 89 85 79 73 80 59 58 54 59 67 74 79 77 84 78 78 76 74 70 67 80 71 83 66 71 77 72 64 64 81 78
91 89 96 95 95 95 91 97 95 98 97 86 95 100 95 99 97 93 83 71 75 72 58 54 58 60 66 84 80 82 78 77 70 73 68 67 84 80 76 73 72 71 72 70 76 64 60
95 92 94 95 94 99 98 96 98 98 99 88 97 97 92 88 82 91 85 72 73 80 66 63 66 70 62 68 63 80 76 75 78 70 73 74 92 74 82 67 62 69 69 74 71 65 62
86 91 95 95 98 90 100 100 99 97 97 96 97 84 74 80 91 92 83 72 72 72 72 74 65 72 72 69 65 67 68 77 71 74 80 77 84 86 85 72 61 66 57 67 70 68 67
88 88 90 98 100 94 81 85 86 96 94 78 88 73 77 87 92 89 72 69 78 73 78 73 69 67 65 58 58 52 60 70 71 78 72 75 83 88 87 71 76 52 52 55 66 74 77
88 91 91 96 99 94 73 70 82 100 81 70 68 67 85 97 88 80 79 84 81 82 82 78 76 73 66 60 71 74 78 62 70 68 77 72 82 93 87 90 62 59 59 68 65 65 68
92 90 92 100 100 91 90 98 99 92 79 58 61 67 79 89 85 87 84 74 83 86 84 77 69 71 70 79 74 79 83 74 79 72 59 65 71 81 83 88 80 58 56 57 55 73 62
90 92 95 100 84 94 95 82 77 68 56 48 65 59 70 96 96 88 85 82 77 81 92 81 75 72 69 83 78 79 85 70 80 79 80 81 77 81 80 91 74 58 59 55 68 62 62
94 94 96 95 95 84 96 98 86 71 61 49 61 63 67 97 88 86 86 78 78 78 84 78 76 74 85 81 79 84 80 79 78 70 76 79 84 86 80 79 90 74 61 58 64 73 70
91 96 92 93 92 82 93 97 87 74 66 58 52 58 63 88 86 75 74 76 80 76 86 86 76 83 84 89 88 90 84 84 80 80 73 78 74 79 80 74 72 80 74 74 72 76 74

GFSGBSN_925_rhum_081.txt.gz
RH
84 86 88 87 83 91 86 82 89 88 98 99 99 99 98 96 100 98 94 92 94 89 91 92 87 75 86 77 67 47 72 66 62 46 57 70 83 84 89 82 80 85 69 62 63 64 62
83 82 81 78 86 84 84 88 90 91 93 93 97 96 98 88 100 97 93 91 92 88 92 91 80 84 78 92 56 39 41 67 57 54 69 74 77 78 88 87 81 69 70 65 60 59 62
79 82 79 82 77 90 84 86 87 88 80 77 88 89 96 92 100 99 94 96 91 93 92 88 79 91 82 76 52 50 55 64 52 52 72 71 69 75 78 71 74 70 79 66 62 72 60
80 82 84 80 78 76 73 82 85 88 84 80 85 89 96 99 100 100 95 85 78 92 85 89 84 90 88 63 46 50 51 64 56 52 56 63 68 78 79 70 69 76 81 86 51 62 58
69 80 77 77 78 80 80 82 81 79 85 83 94 91 94 94 100 98 90 76 80 90 89 85 88 85 82 60 69 50 54 58 53 53 58 60 76 80 80 90 85 79 83 83 65 62 56
71 75 75 77 75 72 76 82 82 82 82 80 89 90 88 94 100 98 83 83 84 91 92 85 87 86 68 61 53 54 56 56 61 66 71 79 87 99 96 100 94 76 92 77 74 63 66
74 76 69 68 75 66 66 72 81 76 80 89 85 93 83 99 100 92 84 95 86 89 92 82 78 74 60 56 57 60 63 67 68 75 80 85 100 95 94 87 91 99 99 80 66 59 70
78 72 74 77 74 71 63 62 67 74 77 89 87 94 93 99 99 90 81 86 82 75 91 80 77 77 69 63 72 67 66 78 91 92 91 90 96 71 71 94 98 97 93 90 88 54 68
81 76 79 76 83 78 71 67 63 62 64 80 87 95 90 98 97 95 88 85 84 74 78 72 79 79 70 68 75 81 71 76 93 96 93 95 71 70 77 97 100 100 96 84 96 80 80
66 77 77 74 78 76 75 73 71 66 70 76 87 92 92 98 98 98 96 75 77 69 87 78 87 75 76 69 85 71 68 76 86 91 90 90 74 81 81 99 100 91 75 70 78 84 100
70 74 79 76 78 76 76 78 79 74 76 84 86 90 94 93 91 91 83 71 81 65 96 72 90 65 76 82 79 85 80 81 84 88 98 85 96 88 96 99 88 94 78 83 84 90 86
65 73 76 81 81 83 80 87 86 83 85 87 87 90 98 99 86 89 80 84 69 85 94 92 90 95 98 91 82 86 91 85 91 99 100 99 81 90 77 76 88 82 75 82 87 86 94
66 69 74 82 82 80 89 84 89 84 83 86 90 94 99 88 95 90 89 78 94 96 60 97 94 88 86 88 88 92 92 100 100 100 98 96 89 82 81 80 79 86 72 94 92 93 95
67 68 70 78 82 81 91 86 87 84 85 92 92 92 95 96 96 88 85 95 97 67 79 78 81 85 88 80 78 83 90 100 98 89 99 96 91 89 83 90 90 85 93 83 89 90 93
72 72 84 83 92 97 89 88 87 89 89 92 98 100 100 100 88 91 94 98 84 72 77 90 74 83 84 76 80 77 87 98 85 85 99 98 95 83 86 83 84 87 91 60 74 70 80
77 84 84 93 88 89 88 83 89 90 97 89 100 94 98 90 94 93 99 89 78 64 77 67 79 72 76 77 77 82 82 96 97 85 82 95 100 79 73 79 77 69 55 64 82 82 95
79 81 83 86 90 91 91 91 89 95 88 88 89 96 99 93 96 97 100 87 78 68 72 71 86 88 75 79 81 86 90 74 85 82 81 72 78 94 71 89 92 66 65 66 67 76 80
80 87 89 96 95 95 92 92 95 95 89 88 94 99 98 100 99 99 96 78 64 74 67 72 70 79 74 78 81 88 96 92 82 81 79 75 77 96 84 70 75 80 68 56 68 70 75
83 96 99 100 99 96 94 95 92 93 95 99 98 98 100 97 100 100 78 83 70 66 66 69 77 64 70 82 85 86 85 74 81 78 79 67 81 87 75 63 61 74 70 70 67 69 75
89 98 97 97 97 95 95 98 98 97 91 91 96 99 98 96 94 82 81 73 76 62 59 60 74 72 74 82 80 84 81 75 76 78 70 63 81 70 79 68 74 74 73 66 61 73 70
92 97 95 98 99 99 98 96 87 91 90 88 97 99 98 100 99 90 86 76 74 73 59 61 62 68 72 83 80 82 78 73 64 73 70 67 86 81 74 70 72 74 74 71 75 62 59
92 91 94 100 100 100 98 97 97 90 85 84 98 97 90 92 83 86 83 72 76 79 69 64 71 70 62 72 62 75 74 75 82 72 75 74 93 74 80 67 62 73 74 76 70 63 64
89 86 97 100 93 90 87 72 92 82 90 87 95 79 77 85 91 82 79 72 74 72 75 77 68 71 78 70 65 67 74 81 77 76 78 75 82 85 84 71 61 65 64 66 71 71 66
86 88 93 100 93 84 79 74 77 83 74 74 86 76 83 91 86 84 76 74 76 78 78 75 73 68 67 60 60 56 66 70 71 79 75 76 80 85 86 69 75 53 54 58 63 72 75
89 90 89 100 100 93 85 71 82 81 70 63 63 66 88 79 90 78 79 83 76 81 83 84 82 77 69 61 71 72 76 62 70 71 78 73 80 90 86 88 58 57 60 67 66 65 72
90 91 92 100 100 97 87 90 77 72 65 60 57 60 79 90 87 86 86 75 84 84 82 80 69 74 68 77 71 76 81 73 78 74 62 65 73 78 81 86 72 56 57 60 58 65 64
93 94 91 84 98 93 98 87 78 57 48 43 60 57 69 96 91 90 86 84 79 83 91 83 77 69 66 81 76 79 84 72 76 74 80 82 82 84 77 90 74 58 59 59 66 56 62
96 95 96 82 93 94 85 80 67 58 46 44 64 62 66 96 88 84 84 85 78 82 81 78 76 74 83 79 77 83 80 81 78 70 75 77 83 84 81 85 87 71 63 60 63 72 68
94 96 88 90 90 90 88 86 84 71 59 45 54 59 62 87 85 75 76 76 79 78 86 86 73 81 84 88 87 90 80 85 80 77 74 80 74 77 76 72 68 74 72 73 74 74 73

GFSGBSN_925_rhum_084.txt.gz
RH
82 82 82 81 76 78 84 86 87 84 83 81 77 84 86 91 98 84 100 98 94 90 89 94 83 76 76 70 62 50 72 69 67 53 47 45 44 46 48 48 53 54 38 32 32 42 45
77 84 82 80 81 80 77 77 81 88 86 90 90 89 88 97 87 88 100 98 96 89 87 93 82 73 70 74 57 43 39 67 62 49 54 48 44 50 52 53 55 37 48 48 44 41 42
76 70 81 80 79 80 80 81 83 83 84 88 86 91 93 95 100 99 100 95 93 74 90 92 86 82 70 57 57 45 53 58 61 50 48 56 50 53 48 50 41 52 60 44 43 44 47
75 74 75 74 74 74 71 79 80 85 80 85 89 82 88 89 97 99 99 100 82 93 94 87 83 78 70 66 63 56 52 58 60 57 54 56 58 55 59 45 50 52 47 72 32 33 43
72 75 75 74 69 72 80 73 73 76 80 77 85 82 89 95 88 99 100 88 87 83 91 87 82 67 66 61 64 55 53 49 56 57 61 62 59 62 63 79 71 60 58 50 47 36 39
83 84 86 79 80 80 82 73 68 67 75 75 78 85 90 96 84 100 92 86 92 86 89 80 80 73 66 53 55 57 61 53 51 57 64 64 66 78 75 86 85 64 83 57 49 36 44
68 69 79 82 85 84 82 79 76 64 64 68 78 86 84 98 99 99 78 92 90 87 82 67 68 58 55 55 57 56 60 59 58 66 76 64 87 90 78 70 70 72 86 88 62 39 45
67 69 73 81 86 80 75 82 80 79 73 66 74 84 87 93 99 92 81 83 72 72 84 72 65 64 64 61 62 59 62 60 63 74 65 86 91 58 53 58 81 97 89 71 57 51 51
65 64 70 74 82 83 80 81 83 77 77 76 73 86 90 90 99 96 83 85 79 72 65 72 69 65 59 61 61 62 61 62 67 82 75 78 52 53 59 67 99 97 97 79 82 60 54
70 65 62 68 78 83 83 85 87 84 86 82 84 90 90 88 100 96 86 75 82 74 84 77 80 68 70 61 71 62 61 58 71 74 72 82 60 71 77 87 97 98 87 92 95 96 79
72 63 71 69 75 82 87 94 70 92 91 87 91 91 92 80 99 95 81 69 82 70 90 74 85 67 63 72 71 78 66 75 76 74 96 69 80 96 100 99 97 76 64 94 96 86 70
72 64 84 79 82 82 86 93 99 91 91 90 88 76 89 85 96 84 75 72 86 90 79 93 83 82 86 75 71 86 86 82 88 99 100 92 63 81 85 63 73 60 67 93 74 68 91
71 68 91 87 86 87 90 91 90 91 92 93 85 86 90 97 93 86 76 88 97 93 66 95 84 81 73 76 78 84 94 100 100 97 95 77 83 70 72 81 72 77 77 89 87 76 83
70 77 93 88 83 90 88 89 88 89 93 96 88 97 94 88 84 100 92 98 95 75 68 69 68 73 72 69 69 77 95 98 97 89 87 93 85 75 70 73 90 77 76 77 72 83 92
70 80 84 84 93 92 92 86 88 94 96 98 90 94 99 93 83 100 93 96 84 73 65 71 71 78 79 68 67 69 94 97 82 88 99 97 84 66 72 73 80 73 80 49 64 60 61
72 85 94 99 97 97 89 96 94 94 89 98 97 91 96 97 96 93 99 93 82 62 66 55 57 57 61 63 66 66 93 96 96 89 82 97 98 76 90 81 78 82 53 66 66 73 81
80 86 94 99 95 93 94 94 92 92 94 86 88 95 100 100 92 96 100 86 72 61 62 57 65 62 56 66 63 68 93 88 72 71 68 62 67 90 66 75 77 59 54 51 52 54 50
86 93 98 96 92 94 95 94 94 96 98 82 92 99 100 88 99 98 97 78 69 72 68 61 59 60 56 64 67 70 78 77 64 67 62 57 59 80 69 54 57 67 60 48 49 52 48
88 98 98 98 99 100 98 98 98 90 93 89 97 98 90 96 99 100 72 70 83 73 62 62 62 55 61 68 69 69 72 61 63 65 67 54 60 77 67 55 54 58 54 49 46 47 57
91 93 93 100 100 97 98 97 86 72 79 84 93 100 97 94 90 70 79 96 91 60 54 57 64 58 61 63 60 68 65 64 62 63 68 52 57 64 57 68 66 62 58 52 46 58 41
92 94 98 96 96 91 89 96 78 76 77 82 92 99 89 100 86 66 77 92 68 69 53 50 57 58 58 60 61 64 63 56 58 62 56 50 78 72 58 57 63 64 62 55 60 50 48
92 87 99 93 89 86 83 89 66 71 76 85 84 83 88 78 73 62 67 83 68 71 65 57 60 61 52 55 54 59 58 59 66 54 59 55 82 65 73 49 54 62 59 60 56 53 48
90 89 98 92 90 72 71 68 79 76 85 86 93 78 53 78 72 62 71 75 68 63 66 66 58 56 60 65 59 60 57 59 61 62 58 57 68 77 72 54 49 51 50 56 61 59 53
88 94 99 95 93 75 70 75 83 80 71 73 82 62 52 71 63 67 71 71 72 71 66 67 61 57 61 53 53 46 46 49 50 56 53 57 63 68 71 54 65 48 44 52 52 60 59
94 97 99 95 90 78 78 85 78 69 60 55 61 60 57 67 66 67 71 69 66 65 72 75 70 65 56 51 53 55 54 55 56 54 54 52 56 69 67 57 50 53 53 56 56 56 60
93 98 89 97 97 93 81 71 60 52 47 44 58 63 58 55 72 77 74 67 65 67 66 72 63 66 58 52 50 62 60 62 63 59 52 52 51 54 61 65 52 50 52 52 54 49 56
94 97 99 84 96 86 76 65 54 49 44 44 58 60 62 70 78 76 71 72 67 67 69 70 67 61 57 54 55 56 60 62 56 57 64 61 58 65 61 64 53 46 47 51 56 46 54
94 89 98 93 76 92 89 80 70 63 48 49 65 61 65 71 77 76 75 71 69 68 59 68 64 62 65 60 58 61 58 62 61 59 60 60 59 57 60 63 54 54 57 53 49 55 53
96 91 91 96 90 66 78 95 88 77 59 45 59 60 61 67 73 76 77 77 78 75 72 70 62 67 64 65 64 61 57 63 60 50 62 61 53 52 53 46 51 55 58 58 55 53 58

GFSGBSN_925_rhum_087.txt.gz
RH
80 81 80 80 79 84 80 79 80 82 83 76 86 85 90 91 87 95 99 98 100 98 91 92 90 71 71 55 46 51 68 72 59 46 38 34 34 33 39 29 32 37 36 28 23 24 27
81 81 80 78 77 77 77 73 75 74 86 82 77 85 84 92 85 96 98 81 99 99 84 96 88 68 62 57 49 45 41 62 52 46 40 37 33 34 41 34 36 29 30 34 34 33 30
81 83 88 85 84 76 72 81 81 75 73 83 73 79 85 87 88 98 96 100 100 97 93 92 85 73 57 46 47 48 46 43 51 44 38 42 41 44 35 39 30 33 44 40 32 29 35
70 67 72 85 88 86 82 86 83 76 70 68 77 74 86 84 88 95 81 100 99 88 90 92 86 64 53 57 54 57 48 46 50 46 45 47 48 48 50 41 44 45 40 47 28 23 24
73 70 66 72 75 87 88 87 85 80 71 69 66 71 80 85 89 89 88 100 91 94 93 89 78 60 50 63 57 48 43 43 48 48 50 48 52 53 53 68 74 56 68 43 33 24 26
75 67 62 68 74 85 90 85 88 87 82 74 70 69 77 86 96 90 100 84 94 93 90 82 68 65 51 48 48 48 47 44 46 45 54 57 63 68 63 82 75 50 57 49 44 31 27
82 74 65 66 70 80 86 87 86 88 86 80 79 73 77 83 92 100 99 88 85 88 74 65 58 49 48 46 48 48 51 48 48 54 64 56 92 84 62 51 53 58 59 55 42 35 52
97 84 66 64 74 76 86 90 87 88 84 84 83 80 81 85 90 98 92 78 69 74 85 62 52 53 48 48 58 52 54 60 60 66 53 78 88 54 44 44 53 65 77 70 53 43 46
98 82 67 72 75 79 82 84 97 90 88 89 88 83 89 91 95 100 97 87 71 68 70 69 60 54 52 53 54 60 54 54 60 61 63 81 53 47 50 57 70 78 94 79 86 54 55
84 92 70 88 81 83 83 84 92 82 94 95 91 87 91 83 96 98 97 84 85 83 95 74 72 59 59 53 62 48 54 54 57 66 61 70 56 60 68 86 91 97 67 90 96 86 71
93 81 73 86 84 86 86 90 94 82 76 84 94 81 89 74 85 97 92 88 82 71 97 69 70 56 56 61 65 70 55 62 76 89 85 65 60 69 85 95 94 83 84 84 79 72 89
82 72 81 86 86 90 91 92 93 92 91 79 79 80 78 80 84 80 80 84 75 98 96 92 74 81 73 62 65 77 82 80 89 98 98 93 61 65 67 68 74 77 98 96 81 94 93
78 77 84 88 88 92 94 94 92 93 92 88 91 83 83 93 76 92 77 86 100 98 64 88 77 72 59 68 68 82 96 100 100 100 100 65 64 60 60 94 69 78 98 93 97 98 71
75 78 85 86 93 97 95 90 93 93 96 90 89 85 94 84 88 97 83 99 99 74 88 58 59 60 59 59 67 91 97 99 89 90 83 86 81 63 55 67 83 74 77 96 84 79 82
77 84 86 89 98 92 90 93 87 90 87 97 91 99 97 90 97 95 95 100 98 82 58 58 57 64 67 57 71 70 77 84 80 72 99 92 90 59 67 71 78 76 98 72 95 67 81
84 88 93 98 98 98 94 94 92 95 83 92 98 90 87 91 93 92 99 97 80 60 50 43 48 42 56 55 76 69 75 95 90 81 76 87 94 82 84 72 69 84 63 70 66 84 74
90 93 97 100 100 99 98 98 96 95 72 67 79 92 99 98 88 95 100 100 93 58 45 48 46 46 46 57 56 59 74 84 80 74 68 62 70 84 89 85 69 64 53 47 47 46 70
90 97 100 99 98 94 86 90 96 96 80 76 72 98 98 83 99 97 100 93 80 71 54 49 45 42 44 50 57 56 66 60 54 56 56 47 55 68 59 46 49 56 47 40 48 45 40
92 98 99 96 94 90 81 75 84 79 81 64 96 98 88 95 83 99 70 90 90 74 56 52 49 45 49 53 58 55 58 52 52 56 57 47 51 72 58 52 50 48 42 37 37 42 41
92 94 97 92 93 86 78 70 70 74 73 69 79 100 96 89 77 62 68 98 92 55 49 48 52 47 47 48 46 58 54 53 50 52 63 52 48 60 64 69 60 58 47 36 41 56 38
90 86 93 86 92 81 73 68 66 73 74 76 70 87 74 92 67 51 68 85 57 58 46 43 47 47 45 48 46 49 48 45 44 52 47 46 69 69 49 48 54 54 52 45 54 37 42
89 95 87 90 97 96 88 69 74 78 86 71 60 68 61 59 52 48 69 52 51 58 55 49 50 44 38 49 43 46 43 43 47 42 47 44 76 60 75 44 48 51 46 46 49 44 38
89 94 92 84 91 91 76 75 76 76 80 61 72 61 40 60 50 48 64 60 58 53 55 53 48 45 55 62 52 48 46 45 47 50 47 50 62 76 68 46 45 49 46 48 51 49 51
94 92 98 84 87 86 77 73 63 60 70 70 70 42 41 57 45 56 60 56 60 59 56 56 52 47 56 45 43 40 40 42 42 44 42 47 53 60 74 52 66 47 40 48 47 50 50
98 94 99 90 84 89 72 59 52 47 46 64 66 50 39 50 50 58 53 56 53 54 62 63 59 53 46 47 47 47 46 50 47 46 44 43 46 59 70 45 43 48 46 48 51 46 49
96 98 93 96 82 74 68 61 59 50 46 63 70 66 43 50 54 59 54 52 48 52 56 62 52 53 52 43 40 51 46 51 48 47 45 44 42 50 49 60 43 46 46 45 46 47 45
97 96 91 89 94 77 70 69 71 62 47 61 71 66 55 55 63 62 54 53 55 53 54 57 54 54 50 46 43 43 47 51 46 45 48 48 44 54 48 53 45 42 44 44 52 51 48
97 91 90 87 83 89 84 71 71 72 52 51 66 66 69 56 66 65 62 59 59 56 50 58 57 55 54 56 48 46 44 46 48 43 43 46 45 43 46 51 48 44 49 50 46 45 45
92 96 84 93 84 79 81 84 74 72 73 48 57 57 64 59 66 68 69 69 68 66 60 58 55 54 53 55 48 44 44 46 44 36 48 47 43 45 43 42 42 44 48 48 46 45 49

GFSGBSN_925_rhum_090.txt.gz
RH
89 82 88 90 93 90 85 75 84 83 76 74 78 84 84 88 83 87 87 97 98 98 100 93 92 66 67 60 50 70 78 79 59 45 37 33 36 34 41 34 32 37 35 31 31 31 27
74 73 72 70 83 85 86 86 86 84 80 73 68 81 78 78 87 83 88 97 97 100 94 94 92 67 75 59 46 52 54 69 49 41 39 35 35 36 42 41 39 31 35 34 33 35 36
76 75 72 69 67 75 83 87 89 88 83 75 69 67 68 73 84 82 86 95 98 100 98 95 88 74 60 48 44 42 39 52 49 42 37 40 41 45 44 48 34 36 47 42 39 37 38
81 76 74 67 65 71 79 84 90 90 90 83 79 72 70 74 78 87 98 95 100 98 96 94 84 67 58 52 46 49 43 41 48 43 42 46 46 48 52 46 48 54 51 63 39 34 32
92 93 81 75 64 68 74 83 89 90 90 89 81 78 78 75 83 90 78 97 100 95 99 87 79 68 55 58 53 45 41 42 46 45 48 44 48 54 54 70 80 65 78 60 45 30 31
92 97 87 88 68 75 78 81 86 89 87 87 85 83 81 77 84 97 99 96 99 96 90 78 68 67 52 49 48 44 41 42 47 46 52 54 63 76 68 89 91 69 65 58 53 38 37
96 87 97 88 81 80 77 80 86 87 73 92 87 85 85 82 86 91 98 94 90 95 87 71 63 48 44 43 45 45 45 45 44 48 62 59 90 90 68 66 69 71 77 69 55 40 42
78 70 96 93 85 83 82 81 83 87 69 95 88 89 87 87 89 92 98 98 82 76 95 60 50 45 44 44 54 49 48 57 59 75 57 70 86 60 50 52 58 62 74 80 61 51 52
75 92 83 82 85 83 82 83 86 90 86 91 96 92 90 86 91 99 92 99 89 74 78 76 65 56 52 51 49 56 54 53 63 59 55 69 57 48 56 64 78 82 86 87 86 71 65
94 75 76 82 81 83 87 88 91 91 91 93 96 94 93 59 87 98 97 89 90 79 98 88 79 55 54 50 58 49 52 53 59 65 55 67 58 60 63 84 87 97 68 84 95 98 92
73 77 79 82 88 88 90 90 91 93 93 93 80 96 88 65 81 88 90 88 86 80 94 73 63 49 49 62 64 66 52 58 69 66 88 71 60 72 84 82 80 97 85 94 90 95 91
76 80 80 82 83 88 94 95 95 94 92 78 80 80 66 77 82 82 87 86 89 96 97 97 74 79 69 67 65 67 73 74 85 98 90 91 67 76 72 57 65 89 96 79 76 94 97
82 84 87 88 90 95 95 91 94 94 90 86 84 84 84 79 86 90 77 83 98 96 74 85 77 66 60 66 70 74 86 92 99 99 98 79 69 60 62 76 65 83 100 98 97 97 98
86 92 98 99 99 99 97 94 88 83 86 85 84 86 85 88 77 88 78 97 97 99 90 60 62 64 90 57 63 78 88 98 92 89 98 86 90 63 54 72 85 82 92 99 96 96 96
90 91 98 99 99 98 94 96 94 90 94 99 81 84 90 87 81 86 90 98 100 100 63 59 59 72 67 58 60 72 79 74 72 77 100 96 96 60 68 72 75 82 99 92 100 96 99
92 91 98 94 99 99 92 96 86 87 97 83 80 83 84 90 87 80 97 98 99 73 46 47 52 44 64 57 69 85 79 86 75 73 72 81 95 75 75 69 74 89 73 82 93 97 94
95 97 96 88 92 95 85 70 92 85 90 74 71 92 99 90 80 95 100 100 88 53 49 52 41 43 51 56 65 69 78 82 75 75 72 76 88 85 83 81 71 76 65 62 51 61 96
94 96 82 90 89 86 70 70 76 78 77 75 77 97 96 82 96 98 99 84 80 69 47 45 42 41 46 51 56 60 62 61 52 55 68 57 66 84 62 50 49 57 53 45 76 67 63
98 96 73 89 89 78 71 68 69 71 74 70 96 98 85 89 94 97 85 92 85 57 49 44 47 46 48 48 59 56 53 51 50 55 63 60 70 88 70 59 51 52 47 44 42 60 61
98 94 74 93 89 80 69 72 72 71 72 66 83 99 88 90 81 69 86 90 72 50 46 45 48 44 44 47 45 58 53 51 48 51 63 62 56 73 84 70 63 68 55 47 60 82 66
93 98 80 70 82 66 65 70 72 72 71 85 65 82 70 92 67 60 66 71 55 56 44 41 46 46 46 49 47 48 44 44 49 58 57 54 74 72 50 47 54 56 55 54 61 48 64
90 100 97 70 74 75 69 63 59 65 69 76 69 76 73 55 45 54 62 53 55 56 60 49 50 45 46 60 61 53 51 52 53 47 45 47 84 66 82 44 47 52 51 54 58 56 46
92 94 96 81 70 66 60 50 45 47 79 58 58 52 59 55 50 53 61 58 58 54 56 54 57 50 62 67 59 50 44 44 45 52 53 55 74 87 86 54 48 64 52 53 53 57 60
100 97 92 84 76 70 60 53 45 42 52 66 67 63 51 57 52 59 54 53 59 60 60 56 58 54 58 48 48 49 40 40 41 44 44 52 57 77 94 65 81 51 44 48 51 50 54
100 98 96 84 77 71 63 56 51 42 46 61 69 74 62 55 55 54 52 56 56 57 62 64 59 54 52 55 60 53 57 52 45 45 47 48 56 77 87 82 49 50 50 54 61 57 52
99 100 91 88 82 80 76 70 66 53 46 56 59 64 72 58 70 57 52 49 55 58 63 60 52 52 55 60 49 52 58 50 51 46 44 46 49 63 70 77 58 54 50 46 47 68 52
74 95 93 82 80 80 81 79 74 70 50 57 56 57 78 65 69 66 69 67 58 57 65 58 53 57 52 64 54 56 64 49 60 52 54 58 52 61 67 70 55 48 47 46 61 65 52
80 75 83 91 78 74 73 72 78 74 68 43 60 56 70 71 71 65 62 71 68 64 66 65 64 66 68 71 60 56 57 56 55 42 45 54 58 62 54 60 67 47 51 57 55 47 48
81 86 74 81 87 81 75 76 77 82 70 54 56 48 63 73 76 66 67 67 69 70 82 65 62 58 70 74 62 54 56 52 48 52 48 60 53 65 53 59 47 44 52 52 50 54 50

GFSGBSN_925_rhum_093.txt.gz
RH
83 76 78 78 76 70 75 76 92 93 85 82 77 71 76 80 78 85 85 83 95 97 94 98 94 63 70 74 65 75 73 72 58 48 41 39 38 38 44 45 44 41 40 38 37 39 37
88 87 85 78 74 68 67 81 87 91 92 86 83 74 70 71 71 74 81 82 90 98 93 100 82 64 73 67 67 66 67 60 46 41 39 38 45 40 44 45 45 39 42 41 39 40 39
98 99 95 97 88 79 68 75 81 90 94 91 90 85 79 76 75 76 86 92 91 97 100 98 76 66 64 55 46 49 65 61 51 42 42 44 46 51 54 58 48 49 59 56 48 43 44
97 99 96 90 86 86 88 83 86 86 92 87 84 87 83 80 78 86 96 95 91 86 100 90 86 73 67 47 45 42 40 44 48 42 46 46 47 51 54 51 58 64 61 76 48 46 44
98 90 84 78 87 94 84 80 79 82 88 91 88 87 85 83 83 85 96 60 82 99 99 92 86 81 72 53 50 50 42 48 47 45 47 45 49 59 57 75 88 75 86 74 61 42 44
92 88 88 92 92 92 81 84 84 82 88 88 94 90 88 86 85 92 100 97 100 99 93 84 68 74 61 58 51 42 40 44 50 55 56 55 70 89 83 93 88 75 81 68 71 50 49
90 85 79 86 87 84 81 84 82 84 89 95 95 90 91 85 88 92 100 85 86 90 95 74 73 56 50 47 44 43 42 46 46 50 63 65 90 98 83 77 78 82 87 90 72 59 59
87 76 73 82 83 84 86 88 89 89 93 90 92 95 89 87 88 90 84 94 99 96 94 77 54 50 46 46 60 55 46 60 54 72 66 74 89 67 64 62 71 77 88 86 69 57 65
78 74 83 82 85 86 91 93 95 92 93 94 95 95 68 60 90 93 92 100 95 90 93 85 60 53 53 52 55 66 56 55 64 66 58 69 65 52 59 72 83 85 92 86 87 77 79
81 80 89 88 88 87 93 95 92 94 95 94 96 87 60 56 74 95 97 89 86 90 97 98 82 62 53 54 60 55 54 56 63 68 64 68 60 67 72 80 87 97 69 74 99 100 96
88 90 94 98 98 86 92 95 92 95 92 87 90 69 62 68 81 86 87 84 89 96 96 84 73 51 56 68 73 69 61 61 75 75 80 75 82 77 86 88 76 88 80 97 100 90 90
95 93 96 100 91 98 98 87 94 83 83 87 78 74 66 80 84 85 80 88 90 91 99 98 76 80 78 68 77 69 77 72 82 86 82 85 73 81 81 64 63 71 98 100 91 92 99
95 97 99 100 100 97 84 83 89 92 90 81 75 78 73 77 82 88 85 91 95 94 93 91 90 77 71 77 84 74 85 94 94 91 91 79 86 72 69 84 70 80 100 98 97 97 93
98 100 98 100 100 97 82 96 93 87 95 80 79 81 85 77 79 83 84 98 90 96 88 63 72 67 92 68 81 80 90 85 86 82 90 97 84 68 63 71 88 89 99 99 96 97 98
98 95 99 99 100 76 95 86 92 82 84 80 80 82 86 84 81 83 89 97 100 96 68 68 72 95 80 68 73 77 80 71 77 87 93 100 84 64 71 70 78 80 99 88 100 100 97
99 91 97 98 72 72 76 88 94 96 83 70 73 84 100 86 80 77 91 99 98 94 65 59 69 63 80 71 67 92 81 82 71 73 76 85 98 73 75 72 77 88 79 89 94 97 96
98 97 99 88 66 64 72 88 77 73 73 80 76 95 91 86 80 93 97 100 85 66 54 74 48 56 64 72 77 86 82 82 73 75 74 79 98 79 82 82 74 79 87 80 70 76 92
100 99 99 69 65 59 60 71 79 79 74 71 82 98 78 82 95 98 98 85 79 74 57 47 50 54 55 56 59 64 65 67 70 59 81 76 82 98 74 52 54 58 70 55 78 71 76
100 96 94 64 61 62 59 61 71 77 84 75 95 96 75 84 99 92 82 84 84 72 57 48 51 52 49 54 64 58 62 56 56 61 68 64 78 91 69 58 59 66 57 54 57 68 80
94 94 96 74 65 62 60 57 57 58 68 71 92 96 90 91 90 85 80 87 82 56 49 49 50 47 53 52 50 62 59 57 52 55 61 62 68 76 90 77 67 75 64 61 62 81 81
95 93 94 79 62 54 49 47 48 46 55 79 87 89 78 92 78 78 73 68 68 70 60 46 50 54 52 56 52 53 47 50 53 54 62 64 73 70 64 52 54 57 61 67 73 63 74
90 93 96 74 61 55 47 42 42 57 61 68 85 83 83 86 59 61 66 69 69 65 65 65 71 65 72 80 74 74 64 62 60 57 49 58 80 70 89 48 49 53 56 60 65 66 63
100 96 87 83 72 65 57 48 42 39 53 70 69 63 67 65 66 68 72 60 65 60 57 59 64 62 75 71 68 65 64 57 49 52 60 61 80 90 90 71 60 70 53 56 60 64 62
99 99 94 82 76 70 67 61 46 47 44 62 67 74 74 69 70 68 60 60 65 66 65 63 64 62 60 54 58 56 58 54 45 48 52 60 66 88 92 70 79 56 46 50 54 58 62
99 100 96 89 82 77 73 68 67 49 55 50 58 73 88 70 68 61 56 60 62 64 65 67 64 58 63 61 64 62 66 56 54 50 49 54 66 79 81 90 56 53 51 57 60 64 57
96 99 93 81 78 80 76 75 68 69 54 55 56 62 83 78 73 73 71 57 70 71 71 62 54 57 57 72 63 54 63 54 56 54 50 52 57 74 75 81 65 53 52 48 48 74 53
53 90 82 87 76 71 69 67 71 71 62 55 54 65 73 82 80 73 79 81 74 74 78 67 58 62 58 77 68 64 74 51 66 59 53 62 62 67 75 82 63 50 52 48 61 51 54
25 70 80 80 86 79 75 69 70 72 70 57 52 54 69 86 79 68 65 75 76 80 81 74 69 72 79 78 71 70 66 61 55 51 46 59 64 70 67 65 62 50 54 57 54 51 54
36 55 73 74 75 80 77 73 72 75 72 61 52 50 62 77 76 65 64 64 65 68 85 82 71 75 81 82 81 72 64 65 61 59 51 57 55 63 56 58 49 56 53 54 57 58 56

GFSGBSN_925_rhum_096.txt.gz
RH
85 96 91 87 96 94 85 79 77 84 87 91 88 86 80 72 72 72 75 81 82 86 93 98 98 88 65 79 70 72 64 68 57 46 38 38 41 41 48 48 43 42 39 39 39 40 40
96 93 92 78 72 81 78 88 86 81 86 86 82 84 86 87 78 77 75 78 83 86 95 95 90 66 74 67 73 74 70 49 44 40 39 44 49 41 46 46 46 46 55 53 49 47 44
87 88 80 86 93 95 96 96 89 87 87 90 82 76 87 84 82 80 87 90 93 92 97 99 94 67 61 59 76 71 58 49 46 41 51 49 48 53 55 59 54 56 61 60 51 50 49
84 82 82 84 88 89 87 86 88 89 86 90 93 84 89 86 86 86 87 90 99 91 98 100 82 72 69 54 52 55 64 54 45 45 46 46 47 52 55 53 63 68 63 78 51 45 49
86 86 79 80 83 84 82 82 85 83 88 88 88 81 85 89 86 88 86 84 69 92 100 98 79 70 67 46 43 41 44 50 46 45 46 46 50 61 59 79 81 75 79 77 68 48 52
81 78 73 79 83 82 83 83 86 87 90 92 94 94 93 90 88 95 89 94 80 99 93 83 78 80 66 60 51 48 44 48 51 54 59 58 80 89 86 89 73 70 80 77 74 56 57
78 80 78 82 80 88 88 90 90 93 94 94 87 95 92 90 90 89 84 98 86 90 91 84 74 63 66 54 43 44 44 50 53 55 71 68 90 96 79 81 71 77 89 93 73 59 68
85 89 87 90 85 84 93 95 92 92 94 95 84 85 89 90 96 74 97 92 99 82 95 70 60 52 48 47 61 54 46 58 60 74 65 77 91 70 69 72 78 83 91 87 73 61 73
89 96 97 97 99 92 72 94 92 94 94 90 88 69 78 76 90 79 95 98 98 95 95 88 60 52 55 51 65 64 53 59 57 64 66 73 64 56 61 72 85 87 95 87 87 70 74
92 98 100 100 99 98 88 94 86 94 94 81 64 65 66 71 77 95 96 91 93 92 98 99 81 62 54 56 70 54 54 59 64 66 67 75 62 64 73 84 82 95 72 76 85 98 95
100 99 100 99 97 87 92 76 84 83 84 69 66 66 72 65 73 86 85 92 89 94 94 97 84 55 56 72 73 73 63 62 72 73 78 73 81 79 88 84 81 85 75 83 97 100 99
99 99 98 92 93 94 80 81 80 76 76 76 73 68 74 81 83 98 84 90 87 82 98 97 76 81 75 72 76 74 75 72 81 84 76 84 72 85 83 69 72 62 80 97 100 99 100
98 98 97 88 93 97 96 93 81 84 81 78 72 79 78 80 88 92 80 82 85 94 94 95 91 84 78 79 88 79 83 90 81 82 84 79 91 82 73 85 72 80 99 97 94 97 93
92 97 91 95 93 97 99 97 97 82 77 65 78 76 84 92 94 83 78 82 89 92 93 72 70 71 77 76 81 78 88 89 87 83 85 90 80 73 73 78 84 89 98 99 96 97 98
93 93 93 97 72 94 88 75 87 80 67 67 71 83 95 92 85 75 87 93 96 84 67 74 78 88 88 74 81 78 83 75 77 81 87 95 85 61 66 70 77 84 99 91 100 100 97
93 97 97 95 73 62 61 62 63 64 71 80 79 85 85 82 76 78 90 91 97 86 66 71 76 69 88 82 79 93 85 79 67 76 73 83 99 68 72 72 76 86 80 93 95 96 96
95 98 98 93 73 70 76 80 83 75 68 74 78 91 69 75 76 90 96 94 86 72 55 69 57 66 68 75 78 88 82 77 71 73 75 81 92 81 82 79 70 80 89 87 81 77 95
94 95 86 71 61 63 68 71 68 63 61 62 79 94 61 76 94 91 98 88 80 77 64 57 52 52 62 68 78 72 72 70 72 69 92 77 86 97 76 60 60 62 70 69 83 71 82
89 94 88 65 59 54 55 59 61 60 66 66 91 95 68 83 94 94 78 76 83 68 58 52 56 52 50 56 65 59 66 57 71 67 73 67 82 93 66 54 57 71 66 62 65 72 89
94 84 71 58 50 47 45 49 53 51 62 60 88 85 85 92 92 86 83 84 75 55 50 49 53 49 53 54 55 63 61 59 61 60 60 62 74 76 89 74 70 77 66 68 65 85 85
96 92 76 68 61 50 44 42 53 63 64 60 87 87 81 94 81 81 76 70 68 72 58 62 62 72 56 62 60 67 61 59 53 54 60 66 77 73 68 67 59 60 60 70 78 70 71
98 93 90 76 69 67 54 44 42 49 70 63 82 78 85 86 71 64 72 71 72 66 65 66 70 67 73 76 69 73 70 62 61 55 55 64 80 73 90 56 57 58 54 62 68 67 67
96 96 92 88 74 69 69 61 46 44 50 72 77 72 72 66 71 70 74 66 68 61 60 61 64 65 66 66 68 67 65 67 68 56 62 65 80 90 75 72 66 71 52 57 63 64 66
81 98 96 96 86 73 68 68 63 50 48 65 68 74 71 68 76 72 62 62 68 72 63 63 63 63 58 61 65 61 66 66 63 56 60 64 70 89 89 70 72 56 47 51 55 62 63
36 97 100 99 87 80 72 69 70 59 52 49 61 74 79 70 78 69 70 62 63 66 67 67 63 59 66 64 61 61 65 57 56 57 55 60 74 81 84 88 59 53 53 60 64 65 59
45 52 96 94 81 74 69 63 69 71 54 51 54 66 83 77 76 68 75 68 75 76 74 62 55 57 60 77 65 56 60 57 58 56 49 58 66 75 84 84 67 47 53 51 48 62 58
78 28 70 71 84 83 77 69 66 73 69 53 52 63 75 77 79 74 78 70 74 77 82 78 69 67 62 82 74 69 75 54 58 62 50 60 67 77 79 88 71 52 55 49 56 35 61
88 52 42 73 70 82 82 76 70 72 72 62 56 53 66 85 80 70 67 75 79 82 80 71 69 70 82 79 76 74 72 64 66 55 50 54 67 73 73 74 69 56 57 54 44 57 58
91 74 26 67 78 70 79 81 75 70 75 65 49 49 62 76 77 67 64 64 66 68 80 82 73 76 85 84 85 84 68 74 66 66 49 69 58 55 60 58 43 58 45 52 56 57 55

GFSGBSN_925_rhum_099.txt.gz
RH
84 82 80 84 90 95 93 78 83 75 74 83 86 76 78 74 79 78 75 82 82 85 87 85 99 91 72 72 73 73 62 64 52 37 36 39 45 43 54 48 43 44 46 50 48 50 46
89 80 84 86 82 87 91 94 95 91 89 86 86 85 79 79 81 82 79 77 89 83 88 93 99 77 77 65 72 70 68 52 40 38 46 48 49 43 56 52 48 56 59 60 54 52 50
83 88 90 76 83 80 84 83 89 90 89 88 87 83 90 90 88 86 84 89 93 92 96 96 95 78 63 75 77 70 44 46 42 42 56 50 46 53 54 54 58 59 65 62 55 50 49
76 80 78 76 86 76 79 80 85 85 86 88 85 89 93 93 90 88 86 95 95 88 85 100 84 83 77 70 75 59 58 47 45 46 46 46 44 56 55 54 65 71 63 72 43 46 48
79 81 77 78 79 78 87 87 87 88 89 93 92 92 86 89 88 90 89 96 94 89 91 100 86 81 67 59 48 62 52 50 47 46 48 48 52 66 64 77 69 71 73 74 67 52 54
85 89 92 94 93 84 90 91 91 92 93 94 86 93 83 90 90 92 92 95 94 97 99 90 85 78 62 60 47 44 50 46 53 55 60 65 81 87 88 84 67 61 80 78 81 58 57
88 92 95 98 98 98 86 92 96 94 94 89 79 92 91 91 86 83 82 94 88 96 87 86 78 72 64 53 49 47 49 52 52 55 80 71 88 90 70 79 62 67 86 93 75 61 72
95 99 98 97 95 98 82 88 89 92 93 80 69 91 91 80 84 74 84 92 99 93 94 78 64 74 51 47 61 55 49 59 59 73 70 77 94 68 66 70 79 87 96 89 75 65 68
98 99 97 99 97 89 91 80 92 91 90 71 84 81 89 80 78 81 94 100 98 87 96 91 68 62 57 50 67 62 51 58 58 66 67 76 63 59 70 74 87 90 96 87 87 69 68
100 98 95 94 88 85 90 82 86 70 89 86 59 81 78 81 80 86 95 99 97 79 98 99 84 59 56 57 76 56 53 62 63 68 75 75 63 67 72 84 84 94 74 75 83 96 99
97 89 92 93 90 92 81 95 80 75 91 66 69 76 87 74 85 93 93 90 92 81 93 98 83 56 57 74 76 74 63 64 75 73 74 72 76 84 90 86 80 81 73 85 86 99 99
93 94 92 98 95 95 95 95 96 86 81 80 82 71 72 82 93 99 92 92 94 80 96 99 76 76 78 76 77 76 73 70 77 77 72 82 72 82 86 73 76 65 85 90 94 97 96
94 95 90 96 94 97 95 95 95 80 83 76 76 76 81 88 99 91 92 90 85 95 92 94 91 78 79 75 87 78 80 88 78 87 88 78 89 82 79 87 75 82 97 96 90 92 89
91 94 91 94 95 87 78 77 75 62 66 68 68 72 88 91 83 84 80 78 89 89 91 73 74 73 77 79 77 81 86 92 85 77 92 89 77 81 78 80 82 90 95 99 97 100 95
88 96 94 95 84 67 57 60 59 62 65 68 67 64 75 76 75 75 83 94 96 81 71 76 75 78 90 73 79 84 86 78 76 76 94 88 89 60 74 70 74 83 98 90 100 92 98
93 93 92 93 87 69 74 70 70 68 62 64 68 78 67 67 72 75 90 95 96 84 68 72 78 77 68 80 86 90 88 72 66 71 71 86 97 69 70 73 74 81 84 96 98 96 94
94 95 95 94 85 80 74 71 72 68 61 62 69 82 53 62 63 88 96 94 84 76 61 72 65 74 71 80 77 91 82 75 74 74 74 81 91 75 71 77 70 81 84 87 90 86 97
78 79 61 55 54 56 61 60 58 58 72 57 75 86 52 60 90 94 99 94 78 70 66 64 57 55 69 70 83 89 82 78 72 78 88 80 87 93 75 60 61 65 72 75 90 74 84
89 66 62 63 57 51 50 58 57 51 70 59 90 89 50 64 93 96 80 75 81 67 59 53 56 52 52 66 69 62 66 58 76 77 75 78 85 92 61 51 54 66 67 65 75 76 89
84 78 66 63 63 65 54 51 64 65 68 62 82 84 85 91 91 83 87 80 72 59 55 54 64 52 52 60 58 64 62 59 74 69 62 62 80 74 81 63 68 76 71 62 71 88 83
97 89 81 72 65 64 64 53 49 63 67 55 87 86 82 90 78 75 76 73 70 76 65 63 60 72 71 62 58 65 64 59 60 56 66 68 84 80 76 72 71 70 67 62 77 70 71
91 96 90 83 73 69 68 64 49 47 71 64 82 81 88 80 76 67 75 74 78 70 72 65 69 69 74 65 65 66 70 63 62 55 63 71 83 76 85 69 66 68 62 59 68 67 67
49 97 94 94 82 75 72 69 63 47 53 72 84 76 67 69 74 73 76 69 69 68 60 64 67 69 64 67 66 66 65 69 68 66 64 68 82 88 80 67 73 75 65 58 64 67 65
63 70 99 97 94 73 71 68 68 56 51 60 69 73 69 68 77 76 66 62 67 71 69 64 64 65 57 66 68 70 76 80 79 76 70 67 74 91 93 68 63 49 47 51 59 62 69
86 45 66 96 95 72 66 65 69 68 53 52 60 69 74 70 76 71 65 64 63 68 66 68 61 59 68 64 62 58 62 54 55 63 70 68 77 85 90 91 59 52 53 61 67 60 68
90 78 41 55 74 82 74 69 66 71 67 53 56 69 77 77 72 67 70 67 74 75 75 63 57 59 60 76 65 56 55 56 53 51 59 70 72 77 85 88 64 41 53 52 46 61 60
91 89 54 50 56 70 80 73 69 68 73 62 50 62 73 77 76 71 78 74 75 80 83 80 70 67 64 80 75 72 76 56 67 61 52 63 71 86 86 91 76 54 55 49 48 36 60
91 90 82 40 57 60 72 76 73 69 74 69 60 53 68 82 78 76 70 75 79 84 81 70 70 70 83 77 81 76 77 67 70 62 53 56 67 79 79 83 75 58 57 52 46 58 57
89 89 90 62 52 60 65 74 77 72 70 70 61 51 64 79 78 69 66 62 62 65 83 82 73 75 84 86 88 87 76 81 70 67 54 69 56 52 65 64 45 57 50 51 57 59 59

GFSGBSN_925_rhum_102.txt.gz
RH
79 81 92 92 78 82 87 89 92 93 89 87 88 90 79 80 80 79 80 76 80 86 71 87 100 92 65 67 76 73 65 61 39 37 37 41 46 46 55 49 43 47 55 55 53 55 51
77 84 77 75 81 77 78 83 88 90 92 86 87 88 75 76 76 84 85 81 81 85 54 93 99 75 80 85 78 68 64 41 38 37 48 47 46 45 53 56 50 61 61 63 56 54 52
84 80 83 79 78 85 82 83 86 88 87 87 85 87 82 78 78 90 89 85 89 95 71 94 96 87 79 93 76 56 43 43 42 40 54 49 44 52 53 54 60 61 57 56 47 51 46
82 84 93 93 94 90 79 80 85 88 88 89 89 90 87 72 91 90 88 90 82 95 76 94 94 82 96 86 64 50 44 47 46 45 45 47 44 57 57 55 58 69 60 53 36 52 47
90 95 96 97 99 98 88 86 86 91 91 89 88 95 81 86 91 77 91 87 79 95 90 98 88 87 96 83 61 50 46 50 47 49 50 47 54 70 65 66 59 68 59 67 64 51 53
96 97 97 96 98 85 81 92 89 92 93 90 95 94 92 86 71 69 95 84 96 95 99 89 84 77 65 62 48 50 48 47 55 53 63 67 78 86 87 76 56 56 69 75 78 58 57
96 90 89 88 99 77 86 80 92 92 92 92 92 91 88 87 78 69 92 89 87 97 86 88 88 82 59 52 45 53 49 49 51 59 82 72 80 72 60 69 55 65 80 89 77 63 75
86 86 88 90 98 98 83 92 92 90 89 91 90 90 86 80 94 83 74 92 99 92 97 81 64 61 50 48 61 56 49 59 59 75 69 75 86 63 64 69 74 82 94 92 78 67 70
91 90 90 92 99 94 91 96 91 91 90 91 91 94 83 88 64 88 99 100 94 91 95 91 77 71 62 52 66 62 51 58 59 66 69 76 60 61 66 74 85 93 97 89 88 68 67
83 93 94 93 94 94 94 93 93 94 93 90 96 93 79 79 81 92 98 97 93 90 95 100 89 64 58 60 80 58 56 63 62 69 80 75 63 67 72 81 83 100 75 77 79 92 96
87 91 91 94 93 95 95 95 95 86 93 89 78 86 79 80 90 93 94 86 84 90 92 94 80 56 64 74 73 70 62 63 70 77 70 70 75 82 90 85 77 79 69 81 84 98 98
89 86 89 87 94 94 95 95 79 67 72 68 69 70 79 81 93 100 97 91 90 78 98 96 78 76 76 80 81 75 70 67 73 68 68 77 71 79 81 77 77 66 86 88 90 87 97
93 93 93 92 94 84 59 56 62 65 68 70 73 72 72 82 94 83 85 78 83 94 90 94 88 78 72 81 82 77 79 74 78 84 90 76 82 80 78 88 80 82 99 97 89 94 86
93 96 96 97 95 88 74 66 68 73 69 62 69 59 63 69 73 73 78 78 90 87 87 77 78 71 65 78 78 83 86 94 80 75 95 97 76 81 82 78 80 86 90 99 98 98 93
78 85 91 84 95 97 99 94 81 73 68 64 56 63 64 69 73 72 83 92 94 81 73 76 76 78 90 75 81 81 85 81 76 72 89 85 87 62 79 70 76 85 95 84 92 83 99
96 66 62 63 55 59 64 78 93 84 80 74 65 69 62 65 67 68 90 91 91 81 68 71 75 75 74 85 82 82 84 70 69 68 70 82 98 70 70 76 77 84 81 90 85 99 94
96 80 57 55 53 48 50 57 58 62 73 67 64 77 47 54 63 88 96 95 84 75 60 66 67 75 71 78 76 91 84 73 70 72 71 80 92 74 68 84 73 82 81 80 88 94 98
99 88 75 62 62 56 49 48 64 58 69 55 68 85 44 46 88 94 98 95 77 69 66 67 59 59 71 71 77 85 88 74 72 78 89 80 84 90 78 60 61 67 72 76 94 79 87
74 88 78 72 64 61 62 50 47 68 73 59 82 80 44 47 92 95 78 75 76 68 62 57 58 55 55 69 73 82 71 59 77 82 79 80 89 94 55 46 53 65 68 65 77 81 86
74 78 89 76 70 64 58 58 48 46 68 56 80 82 83 91 88 81 83 80 70 61 60 60 67 55 54 61 65 66 64 61 79 76 67 69 83 78 77 54 65 74 68 62 76 92 81
61 86 86 84 76 68 64 57 51 46 60 56 88 86 81 86 78 75 75 73 71 76 67 66 60 73 75 65 61 62 64 61 68 61 71 71 87 86 80 77 74 74 73 71 80 74 78
61 82 93 93 80 73 68 63 56 45 55 63 78 84 88 79 76 68 77 77 75 71 68 65 68 71 70 70 67 71 71 66 64 57 69 76 85 82 90 71 79 79 72 71 66 71 76
90 55 88 91 92 71 68 64 64 48 52 71 83 74 67 72 74 74 77 70 68 72 61 63 66 71 64 64 68 70 70 68 66 68 68 73 85 89 86 72 72 74 69 70 63 69 67
90 84 54 89 95 74 67 66 66 63 49 58 74 67 70 68 80 77 71 67 67 72 73 64 66 68 56 68 72 73 80 85 84 83 78 74 75 91 94 75 66 44 49 52 61 61 73
92 90 76 54 71 76 73 70 66 66 59 51 61 69 73 67 78 72 71 67 65 65 73 70 65 61 69 65 63 57 56 52 60 72 81 76 78 87 91 96 61 41 53 58 60 55 66
93 91 89 56 55 62 74 74 71 67 68 55 53 68 75 77 68 63 71 68 76 76 76 68 58 63 62 74 63 53 47 52 51 55 77 76 75 79 90 90 54 30 52 54 47 60 47
88 90 89 86 41 61 63 74 72 69 71 68 53 59 72 78 75 71 78 75 75 80 83 81 70 67 65 79 72 73 75 59 65 58 61 76 78 92 91 92 79 56 54 50 51 30 59
88 89 85 89 78 41 68 68 75 72 68 71 67 55 66 83 78 75 68 74 82 85 80 69 74 72 84 75 82 79 78 73 73 64 58 59 69 83 88 90 81 58 57 52 45 54 56
92 88 85 86 88 48 51 72 73 80 67 69 67 56 56 78 76 67 64 62 63 63 80 83 76 73 83 87 89 87 83 85 75 70 58 62 54 53 66 64 47 56 57 50 53 56 57

GFSGBSN_925_rhum_105.txt.gz
RH
82 83 82 82 78 82 74 80 85 91 89 88 86 89 80 72 66 85 82 81 77 84 68 88 100 92 80 80 84 75 68 44 39 38 38 41 44 49 53 51 47 48 55 52 50 54 53
86 87 90 92 95 92 87 87 86 88 87 86 85 89 83 74 74 92 88 86 85 86 67 62 99 91 80 93 81 61 45 38 37 36 46 43 43 47 54 58 50 61 60 59 56 51 52
97 96 92 92 89 98 97 87 82 87 89 90 87 89 78 79 78 90 90 84 87 86 86 98 90 82 81 93 63 46 39 42 39 38 53 48 43 49 50 60 61 61 45 47 42 50 49
88 84 80 92 82 84 84 77 85 90 86 87 89 90 76 80 84 79 75 83 86 83 80 96 85 83 99 70 51 44 44 47 44 44 45 46 42 61 61 56 50 60 50 36 38 51 49
78 85 87 96 98 83 85 82 87 92 89 92 93 80 88 80 65 72 88 97 90 79 95 92 79 73 99 67 51 48 44 52 49 48 48 43 53 70 58 54 50 56 40 56 53 51 53
84 86 92 99 96 97 94 94 89 87 89 91 90 92 82 94 79 82 80 79 97 94 99 76 74 70 85 77 50 49 51 47 53 51 62 64 73 75 75 68 44 44 58 65 69 54 59
86 86 97 92 92 95 90 85 84 84 85 86 88 94 86 91 79 91 86 82 80 89 91 91 84 79 82 53 51 54 50 47 50 63 75 73 74 64 59 58 52 64 75 80 71 60 71
88 89 88 91 92 94 87 87 88 87 87 87 94 91 75 84 91 77 80 92 98 90 97 81 62 55 51 48 63 57 50 57 60 77 66 70 78 61 66 71 72 80 91 89 70 67 68
89 91 90 93 91 92 90 91 92 82 86 95 92 74 74 81 89 83 89 99 100 93 96 92 71 66 63 54 68 63 54 57 62 69 72 72 64 63 65 75 83 89 96 84 78 68 68
82 82 87 92 92 93 94 96 92 92 90 83 84 72 78 75 80 88 94 93 90 88 95 99 82 64 62 59 78 62 60 61 62 77 80 76 64 66 73 80 80 98 76 76 80 90 91
90 88 88 91 92 93 89 64 68 67 72 80 74 95 88 78 88 97 97 92 87 91 90 93 81 56 66 71 70 63 64 63 76 75 68 65 75 81 89 84 77 70 69 76 78 96 97
95 96 94 93 93 94 93 94 96 96 68 77 72 70 77 78 81 94 86 74 72 78 97 94 78 78 79 80 81 72 69 65 71 68 68 72 69 78 75 76 75 72 86 87 86 89 92
96 93 98 96 95 96 97 96 92 80 72 69 67 62 60 66 81 67 65 64 83 92 92 90 87 76 65 84 76 75 78 75 80 75 86 74 77 78 77 87 83 81 96 91 85 91 83
94 94 69 94 62 61 82 88 89 84 73 60 64 59 59 66 68 60 58 76 89 95 89 77 74 63 79 79 80 84 88 96 78 75 92 94 72 81 83 76 79 82 88 96 95 97 90
74 94 94 81 95 74 58 75 67 67 75 58 56 59 60 68 66 63 83 90 93 81 73 78 79 79 91 70 78 82 86 82 73 73 86 88 86 60 82 72 71 87 86 84 98 87 94
98 73 86 96 72 73 63 54 73 67 74 62 61 64 61 64 66 62 90 92 93 79 69 70 75 73 84 86 86 87 85 68 73 68 69 88 93 67 70 76 76 86 80 83 90 92 96
100 99 78 65 69 63 61 51 48 69 62 57 59 77 59 57 64 89 98 95 80 74 62 66 70 74 69 77 77 88 82 68 68 76 67 80 86 73 68 91 79 95 90 88 82 89 96
99 100 97 76 64 67 62 54 46 53 60 51 64 84 46 61 87 93 98 90 76 65 66 70 61 61 68 73 76 82 83 73 68 75 79 76 89 87 81 62 63 68 72 74 86 80 85
57 99 97 86 73 63 62 59 47 46 56 51 77 76 44 49 87 96 73 74 72 68 66 63 62 59 57 68 69 78 71 63 78 76 77 81 86 95 52 46 59 70 74 67 79 82 92
52 59 97 96 75 70 62 60 51 44 60 48 78 75 80 90 86 77 72 74 66 61 63 64 68 59 57 64 67 69 67 62 79 77 70 74 86 83 80 52 58 70 75 69 76 89 81
87 44 63 90 91 74 66 61 55 45 53 49 89 86 82 84 77 78 74 72 69 69 65 65 61 72 73 65 64 64 64 63 77 67 77 74 91 91 86 80 78 76 73 75 82 73 82
92 83 44 56 68 69 67 63 58 46 50 60 78 79 84 83 78 67 70 76 72 71 66 63 64 68 69 69 63 66 70 69 64 61 76 81 91 83 94 75 78 89 80 80 74 72 81
92 91 77 44 61 66 68 63 63 49 47 68 83 76 66 78 77 72 72 71 67 71 62 62 63 69 70 65 71 70 69 68 65 71 73 78 88 90 89 72 75 64 59 76 70 69 68
91 92 91 68 45 68 70 70 62 64 50 55 70 66 67 62 78 76 72 69 66 72 70 64 69 68 56 67 70 74 82 86 86 85 77 81 80 90 95 74 43 31 51 58 65 63 71
88 93 91 91 52 46 65 72 69 62 64 52 62 64 73 64 76 68 71 70 66 66 74 72 64 63 71 64 68 57 53 54 70 87 92 83 79 89 91 96 55 27 53 57 54 53 56
91 87 92 89 89 41 55 67 73 66 67 61 56 69 72 76 60 62 72 69 76 74 74 67 60 64 64 76 67 53 44 44 48 55 86 84 79 82 92 88 54 27 48 56 47 52 36
95 88 87 87 88 80 44 60 72 76 65 70 59 61 70 76 75 71 75 72 77 80 82 79 70 70 67 82 72 73 72 58 60 55 83 86 87 96 94 94 80 56 54 51 52 29 47
96 93 89 83 84 88 60 55 64 75 73 67 70 63 70 82 77 75 68 77 85 85 80 67 72 74 86 80 82 79 82 75 74 62 62 69 78 90 92 96 85 57 60 50 43 46 50
99 92 91 86 83 85 86 49 68 65 81 69 71 63 59 76 70 65 60 58 58 60 82 83 75 74 83 85 90 88 84 87 78 75 59 67 52 53 67 66 47 58 54 51 50 53 52

GFSGBSN_925_rhum_108.txt.gz
RH
90 85 79 88 88 96 98 87 78 88 84 84 87 86 72 75 78 82 75 83 79 70 73 75 95 84 62 69 76 72 63 44 42 36 36 32 27 30 31 34 34 32 36 36 35 38 35
87 84 92 94 100 98 85 87 73 87 88 86 87 90 78 72 68 77 82 85 89 54 63 94 99 92 82 90 76 49 43 37 40 40 40 33 29 30 34 37 32 38 40 34 36 33 35
84 90 95 95 97 99 97 85 88 89 88 87 88 91 76 74 75 85 91 78 87 65 83 98 86 98 82 92 67 48 37 40 40 40 39 43 35 30 31 39 43 38 28 29 32 34 34
87 90 92 96 94 93 90 88 88 85 88 89 90 87 75 82 74 88 87 74 74 79 93 98 84 96 95 69 64 47 47 50 42 46 47 48 39 42 38 36 30 29 27 17 28 37 40
90 90 93 96 85 85 82 84 84 88 88 89 86 73 80 90 89 85 87 65 78 71 97 99 84 76 92 68 50 50 47 47 49 49 47 45 44 43 37 30 27 24 16 23 26 40 42
89 88 92 91 82 81 81 81 79 81 84 86 93 94 96 91 95 88 82 96 82 91 97 85 88 79 86 71 54 54 52 49 44 46 45 46 44 42 38 42 43 22 26 33 36 36 43
92 94 95 91 86 83 84 84 85 86 88 91 94 95 95 90 87 85 96 94 74 91 79 88 82 81 76 61 52 50 52 43 42 44 47 52 68 56 51 39 41 47 50 50 36 42 56
80 88 93 97 96 88 89 90 91 93 95 92 68 75 91 90 76 75 81 82 97 90 96 65 64 63 50 49 52 48 47 44 46 54 52 52 66 53 53 55 56 57 59 48 46 49 55
85 82 82 86 87 84 88 91 94 95 95 96 70 71 84 83 76 71 97 99 96 93 95 88 59 56 55 48 59 56 49 48 50 57 54 47 55 53 53 62 67 62 71 60 69 58 47
95 92 88 90 90 92 94 94 93 97 96 95 93 70 78 78 73 79 96 97 90 86 92 98 71 53 52 51 57 56 56 54 52 65 62 59 56 56 59 62 63 76 55 60 71 80 78
97 96 100 97 96 96 94 94 94 96 96 97 82 80 66 69 86 88 89 82 80 92 84 94 70 55 56 55 54 51 60 50 56 59 58 68 62 65 69 75 57 61 58 64 72 87 84
94 95 94 95 95 97 98 91 94 85 69 72 69 71 71 71 79 77 75 71 78 87 92 86 69 64 59 61 63 56 55 52 59 59 59 61 60 62 59 62 59 57 73 77 76 79 89
95 96 96 95 95 96 89 79 71 85 67 64 62 57 59 65 70 69 64 58 92 88 82 77 67 64 61 65 66 61 64 64 71 90 97 60 60 64 63 70 69 75 80 82 84 90 69
96 96 97 99 97 96 95 96 75 65 66 54 54 56 57 56 57 56 63 59 85 81 76 68 62 62 68 66 65 67 64 64 60 59 75 81 76 62 66 65 63 61 65 81 92 76 66
99 98 94 98 95 90 87 60 70 66 67 57 50 54 60 65 63 58 53 91 90 68 65 66 65 66 75 64 61 61 63 60 58 56 77 88 85 53 62 57 62 68 77 74 92 79 84
99 99 100 95 82 70 65 65 53 54 45 52 56 61 68 63 59 66 73 92 76 64 59 61 60 59 62 66 62 62 67 57 61 57 56 70 94 58 63 65 64 68 72 75 80 84 76
91 99 99 98 69 63 64 57 48 58 43 47 56 59 57 57 61 62 98 79 62 60 57 56 59 58 57 62 62 66 64 59 56 61 55 61 65 59 58 65 61 82 76 75 62 64 72
48 95 99 99 74 64 59 60 47 49 50 45 65 78 49 59 74 79 85 62 68 54 61 60 51 54 55 60 64 65 62 60 52 55 59 63 66 74 58 53 52 55 54 52 54 61 61
80 48 92 99 78 65 62 58 50 48 56 43 66 70 49 58 78 79 68 67 64 60 59 57 56 53 51 57 59 63 60 55 59 57 59 64 68 79 43 50 54 59 56 54 54 61 68
84 76 47 85 87 63 60 60 55 49 57 48 51 80 58 65 69 55 58 63 62 59 58 58 54 52 53 57 58 58 58 59 62 60 68 64 66 64 45 34 42 52 48 56 56 68 46
87 83 66 38 64 63 58 57 57 48 55 52 59 74 69 74 60 63 61 59 60 60 56 56 58 55 52 53 55 55 53 54 66 66 68 64 80 71 65 56 56 60 59 54 65 59 56
90 89 85 53 39 60 61 57 54 48 49 66 56 58 64 60 61 56 62 62 60 60 59 53 54 58 57 52 46 45 50 53 46 63 68 68 80 71 83 49 54 66 56 56 56 54 53
84 92 90 86 42 38 56 59 57 49 46 66 81 70 48 67 61 52 56 62 61 64 58 59 59 56 57 54 55 52 51 54 55 55 60 65 74 79 68 53 54 50 41 46 52 52 51
90 95 92 89 84 35 43 59 58 59 52 58 70 63 44 46 57 52 64 61 59 62 61 58 60 58 50 56 55 58 60 62 62 60 57 63 69 72 82 60 43 31 39 42 47 43 45
91 88 90 90 88 78 37 54 62 59 60 52 65 67 51 37 49 56 63 64 61 60 64 62 55 49 58 54 49 43 36 45 56 68 69 64 63 74 82 66 38 29 46 49 50 37 37
92 90 86 89 86 87 59 44 63 65 61 63 56 67 66 53 42 49 57 61 58 58 59 61 58 61 57 54 50 46 30 32 35 50 68 73 65 73 70 76 42 23 40 45 45 37 30
98 92 86 86 86 85 86 44 53 68 68 64 66 58 69 60 53 56 53 52 60 63 58 63 61 67 62 59 53 46 44 46 40 44 68 77 82 90 75 78 56 37 44 45 43 24 33
99 98 91 88 87 85 85 82 42 62 70 68 70 70 62 62 55 62 59 64 71 64 49 57 60 68 69 66 58 51 57 49 55 45 47 51 62 71 73 81 80 42 54 41 29 34 37
99 99 99 91 88 87 85 86 59 61 67 76 73 68 64 67 58 62 58 56 60 57 54 66 58 60 56 61 62 60 63 63 51 48 49 52 37 34 43 41 34 41 36 38 39 41 42

GFSGBSN_925_rhum_111.txt.gz
RH
87 89 91 91 94 98 92 81 86 84 84 86 88 86 85 90 92 76 67 82 74 73 83 95 95 88 70 67 73 60 50 44 40 35 27 21 19 20 25 25 24 22 24 26 27 29 25
86 87 93 88 83 85 88 84 89 87 84 85 82 86 93 83 70 94 81 77 84 69 80 99 90 79 84 87 69 44 41 38 38 32 31 23 19 20 23 24 24 24 28 24 26 24 25
91 85 91 76 83 81 81 84 84 85 84 85 90 91 94 73 83 86 89 77 82 63 84 99 91 76 78 92 59 41 42 42 39 31 32 28 24 23 22 28 27 24 24 24 26 27 28
87 90 92 78 80 81 81 83 86 86 86 88 90 91 93 76 69 67 87 72 86 90 93 98 81 65 89 81 74 39 37 38 40 40 39 33 29 31 26 23 22 23 20 20 25 29 33
89 91 90 85 78 81 81 82 82 82 84 89 92 93 96 79 74 87 86 71 88 92 99 82 79 74 83 63 46 42 38 37 38 37 35 34 32 29 30 25 23 18 18 16 29 31 34
88 91 92 91 88 83 83 85 87 85 89 93 95 94 82 80 89 76 89 88 90 89 97 79 85 75 88 71 50 45 42 40 36 36 34 33 32 32 26 41 56 22 17 20 21 31 36
82 86 91 89 89 83 86 90 93 95 90 93 88 92 82 96 70 86 97 82 80 88 86 85 83 82 80 62 48 42 44 36 34 34 34 37 62 59 38 30 32 31 30 30 24 34 48
88 88 86 88 88 89 89 92 94 96 96 88 81 93 75 87 93 88 79 81 91 86 97 80 78 74 58 45 44 42 39 37 37 40 39 44 60 42 42 45 44 43 42 35 37 41 47
96 97 96 94 94 92 90 94 95 97 96 93 70 82 83 70 72 82 81 94 99 94 92 86 66 58 50 41 51 52 41 39 39 43 37 42 44 44 44 50 54 48 56 52 63 52 42
92 93 96 98 99 99 98 94 94 96 98 96 69 75 70 75 84 91 87 82 98 92 89 85 62 52 46 45 51 45 48 47 45 49 47 50 45 46 47 52 53 62 46 54 61 70 70
95 98 98 98 100 100 98 96 88 84 77 89 75 72 64 70 74 80 83 96 89 84 88 72 58 50 43 47 48 45 47 39 48 49 50 59 53 54 57 70 48 58 53 59 64 74 73
100 96 98 98 99 98 100 99 88 71 65 68 69 72 74 72 73 76 71 84 78 91 93 70 54 54 48 46 50 44 45 42 45 48 48 51 50 52 52 52 51 52 64 69 63 64 87
99 99 98 95 96 96 96 99 98 57 57 60 61 62 63 65 62 66 80 62 94 89 65 62 57 48 48 53 50 49 50 55 62 92 99 51 52 54 54 61 59 63 70 81 80 85 71
96 99 98 98 77 68 97 96 100 74 50 50 53 57 60 71 68 61 65 52 87 76 65 52 51 48 57 53 52 52 50 55 50 46 64 78 80 54 55 57 62 52 56 77 84 69 62
100 97 99 99 96 63 58 69 71 68 45 44 49 66 66 72 60 69 49 93 83 59 52 52 53 51 62 51 49 50 51 51 50 48 67 84 85 48 52 48 56 57 65 58 84 58 76
95 94 95 100 81 68 63 49 45 54 48 50 60 57 59 55 55 71 64 79 64 49 49 49 45 45 49 51 51 49 53 50 53 49 47 56 83 49 56 56 56 62 55 67 78 74 68
74 94 96 96 84 60 61 56 43 45 48 51 58 44 54 48 66 48 91 62 54 47 47 47 47 45 46 52 48 51 50 48 46 47 45 48 57 56 51 59 55 74 65 64 49 49 62
90 71 81 85 65 63 58 54 45 39 45 51 54 67 48 51 64 56 69 50 52 51 51 49 43 44 44 48 48 48 46 46 41 45 50 48 50 62 46 40 45 49 47 43 49 43 48
87 86 41 57 58 58 60 54 48 43 43 58 40 47 56 67 72 65 58 57 52 52 49 50 47 45 43 46 47 47 46 43 47 50 48 48 55 63 47 41 43 53 44 45 43 45 55
84 86 83 37 48 58 56 55 48 43 44 53 39 76 42 41 47 41 47 52 54 52 49 48 46 44 46 47 45 46 46 50 49 51 65 58 54 57 49 35 38 42 40 44 47 63 48
87 85 84 77 33 40 53 52 50 43 44 53 47 58 58 59 47 46 46 46 50 52 49 47 47 47 44 43 43 43 41 42 53 63 59 58 66 58 53 47 46 47 46 43 48 51 61
88 93 86 84 72 31 48 50 50 43 48 54 44 44 46 45 48 44 53 47 46 50 48 46 52 45 44 46 42 45 43 41 37 54 59 56 72 57 79 46 39 46 42 41 43 44 44
88 92 93 84 83 58 35 56 50 45 53 49 61 53 43 57 43 40 35 43 46 50 49 46 45 44 43 40 39 38 38 37 39 42 53 56 65 73 66 39 46 48 35 36 38 37 39
85 86 88 90 82 82 40 42 54 54 48 62 65 51 37 32 42 37 47 47 48 48 44 43 48 46 41 43 44 45 48 44 42 43 41 47 60 61 76 56 60 32 30 30 32 32 32
87 87 86 87 85 81 79 35 49 55 58 62 71 58 41 32 32 34 48 49 47 47 55 52 43 40 45 46 44 37 35 41 46 48 50 47 51 64 74 56 38 29 40 43 44 30 27
94 90 86 86 87 82 82 68 37 50 57 70 59 59 54 44 34 34 40 41 45 39 44 50 50 50 50 46 42 42 28 23 30 54 54 55 55 58 52 68 49 23 36 36 40 42 28
99 96 89 85 87 86 82 84 51 45 54 64 75 62 64 51 37 40 38 37 41 45 43 48 51 60 54 48 48 37 34 34 31 33 68 71 75 83 74 67 50 30 38 39 40 27 29
98 98 98 95 87 88 86 84 82 48 52 65 73 68 70 54 45 48 46 47 54 52 40 50 53 59 63 59 44 40 43 34 43 28 37 46 58 69 61 64 73 34 46 39 26 28 30
98 97 97 98 97 90 88 87 85 72 56 61 71 67 68 70 53 59 52 52 51 45 43 47 44 48 44 54 48 42 48 43 38 38 30 40 28 29 39 44 29 35 26 29 33 35 33

GFSGBSN_925_rhum_114.txt.gz
RH
85 85 79 70 76 79 81 86 85 84 84 84 86 90 94 94 80 69 74 70 75 65 85 98 81 87 87 70 67 45 40 39 38 34 25 24 25 23 30 27 23 23 24 24 28 28 25
86 82 74 73 77 78 82 86 85 84 83 84 86 90 92 91 85 71 77 85 66 67 94 96 84 84 82 88 68 39 38 36 34 30 28 22 20 21 23 24 27 25 25 24 25 23 24
85 86 76 77 78 78 76 77 83 89 85 85 86 89 72 75 94 87 87 86 76 62 98 85 83 63 78 85 70 42 39 38 34 29 30 31 26 26 24 29 25 25 28 27 28 26 28
88 87 86 84 83 82 82 81 80 82 88 88 90 91 86 87 76 87 87 92 90 72 92 98 82 65 88 60 53 44 35 36 37 37 37 33 27 32 28 24 22 26 20 31 29 29 36
85 87 85 84 81 87 91 93 86 85 90 92 92 93 66 67 75 76 76 96 70 100 86 74 65 64 84 60 43 39 34 34 34 33 29 30 29 30 27 29 35 22 30 22 38 30 34
84 85 86 87 89 92 94 95 94 89 91 92 97 89 81 77 62 80 90 81 94 80 73 61 68 68 73 62 49 39 38 36 33 33 36 32 35 45 37 78 80 41 21 20 23 41 36
96 93 93 90 88 88 94 96 96 93 90 96 84 90 78 80 67 91 79 71 80 86 86 90 78 73 72 62 49 39 41 33 31 36 38 38 86 78 43 40 36 36 33 33 29 41 49
92 92 92 95 95 96 94 95 96 96 94 92 71 88 95 92 82 77 75 75 85 80 95 80 75 76 74 57 44 44 38 37 40 47 36 57 71 44 42 44 47 47 44 50 49 41 50
92 95 96 95 93 92 97 94 94 97 95 78 77 74 75 78 78 78 88 97 94 94 94 92 77 71 60 43 51 52 45 40 43 42 43 60 49 41 41 47 56 50 63 61 65 57 53
95 94 95 93 95 93 93 93 92 75 86 87 76 75 70 67 71 87 90 85 90 90 96 94 79 54 44 46 52 42 48 49 46 52 52 54 42 43 45 63 56 67 49 55 64 80 92
99 98 97 99 97 99 98 98 95 73 69 70 67 63 67 69 67 79 80 93 86 88 91 69 57 46 40 49 48 47 41 40 50 48 51 59 54 53 57 78 47 64 55 63 65 71 77
99 100 99 98 99 100 98 99 91 66 64 65 64 73 71 71 72 79 81 79 80 97 95 65 48 48 48 46 47 43 44 41 44 48 52 54 49 52 56 50 51 50 68 68 60 67 87
99 100 99 99 99 100 100 95 55 53 55 57 63 67 67 65 73 74 67 67 96 92 59 62 55 44 46 48 48 46 51 56 73 92 97 60 56 54 52 66 61 66 92 96 92 92 94
97 99 100 99 98 96 100 94 63 47 46 48 51 53 57 60 59 62 72 82 88 74 62 48 48 46 54 47 50 51 53 72 48 46 86 93 83 60 58 61 64 54 59 92 91 93 88
95 97 99 100 99 92 78 88 53 52 46 45 58 64 65 67 60 73 78 92 87 62 47 51 50 55 57 49 51 48 51 53 50 48 67 97 90 49 53 47 56 58 68 56 86 74 86
94 95 89 79 83 62 61 50 45 45 45 44 62 57 57 49 56 76 82 80 68 44 41 45 45 45 52 51 53 52 51 50 52 47 48 54 87 53 57 57 58 68 55 81 81 93 87
94 85 77 57 55 58 56 51 44 44 40 41 63 61 53 46 68 67 98 70 55 44 47 49 42 42 48 52 46 49 50 49 45 47 45 48 61 65 53 70 76 81 80 69 57 60 88
77 81 48 40 50 50 54 52 46 42 48 52 62 83 43 47 79 65 86 50 48 51 48 48 46 44 43 45 45 45 46 48 41 44 53 56 59 78 61 46 47 52 59 60 80 55 63
81 77 77 37 29 42 44 50 46 42 42 57 55 54 47 53 90 84 55 58 51 53 49 49 46 46 43 44 49 44 44 46 44 50 61 51 66 85 59 49 46 56 52 55 52 57 73
84 81 79 75 33 27 43 46 44 43 41 54 56 90 60 54 50 47 50 51 56 53 48 46 46 43 45 46 44 48 46 55 48 52 58 59 61 68 74 47 52 56 50 47 56 84 68
92 93 81 78 72 28 33 40 41 40 49 55 59 65 62 82 53 45 45 44 50 54 50 46 48 48 45 46 42 46 40 51 56 65 60 64 78 67 66 56 57 59 56 52 56 59 70
88 89 90 81 79 59 27 34 39 36 51 50 66 60 54 48 46 48 54 48 47 49 47 48 53 42 43 50 43 46 41 41 42 65 64 64 87 68 79 58 57 64 54 51 51 49 49
89 87 87 89 78 78 39 32 38 38 44 51 52 48 53 57 44 44 45 43 45 47 45 46 46 46 47 46 46 42 44 44 45 47 69 64 84 82 86 65 65 75 48 48 45 43 46
88 90 89 87 85 78 75 31 38 44 50 60 65 61 55 48 44 40 43 44 46 47 54 42 46 50 52 44 45 48 55 52 50 48 46 55 65 73 83 74 89 49 28 31 39 39 39
91 92 92 90 86 82 79 70 33 41 48 64 62 70 62 58 38 33 41 47 44 47 55 50 46 45 48 50 58 48 46 44 46 50 52 51 61 80 91 87 61 46 38 44 46 41 35
100 92 94 92 91 88 80 78 65 37 42 67 62 61 66 65 45 33 40 36 51 47 47 55 51 49 51 59 51 55 47 29 46 63 52 59 58 68 71 88 78 36 40 39 41 61 34
96 95 96 97 97 92 89 81 78 58 43 60 65 64 75 70 46 38 46 48 42 50 55 50 58 67 55 66 66 57 59 35 41 40 82 80 69 83 76 78 70 38 44 41 43 37 32
97 96 95 96 98 97 94 90 83 80 52 53 70 60 70 79 67 47 45 50 55 60 52 60 62 68 74 76 63 57 55 44 48 37 64 76 90 88 76 84 87 46 49 46 38 32 34
94 93 93 91 92 96 98 95 90 85 78 55 75 70 66 78 70 59 50 47 50 57 62 53 56 54 59 70 67 60 60 51 50 56 32 46 46 55 61 65 41 45 40 42 38 40 37

GFSGBSN_925_rhum_120.txt.gz
RH
85 83 87 93 90 82 78 85 86 82 83 88 93 97 97 91 90 88 90 86 74 99 95 96 68 61 48 62 65 48 40 37 32 29 30 29 26 32 36 29 26 34 30 35 34 29 26
78 81 91 96 95 96 83 83 88 85 84 86 90 92 92 90 89 87 93 76 94 98 99 95 75 59 54 71 55 48 40 34 30 29 32 32 29 26 30 31 32 30 35 34 27 26 25
92 93 92 95 95 95 87 88 88 89 86 88 90 94 97 94 91 93 68 90 99 99 96 80 65 52 63 66 50 41 38 36 31 28 35 33 32 27 28 32 26 29 30 28 29 28 31
87 87 94 98 96 95 90 89 90 90 90 91 91 92 93 62 72 82 71 96 99 92 75 64 55 47 65 50 42 37 33 32 31 27 28 27 23 29 30 27 24 27 29 31 30 30 35
92 94 95 97 95 93 93 89 91 96 81 76 79 72 70 68 85 95 83 91 93 82 72 59 53 57 69 43 44 40 36 34 25 26 27 26 25 33 40 42 49 40 33 29 33 32 36
91 93 94 97 97 92 95 91 93 96 94 70 64 56 52 99 99 93 98 88 75 70 70 64 67 60 54 54 51 42 36 34 35 36 34 45 64 60 61 75 49 41 27 29 33 40 40
93 94 94 95 96 94 94 91 95 96 98 88 74 52 74 83 86 84 74 74 77 83 75 82 81 70 62 52 54 47 46 38 35 37 45 55 72 69 52 48 40 40 38 39 47 44 59
89 92 96 96 92 95 94 94 87 90 96 89 68 76 76 75 76 76 72 87 88 72 79 79 74 68 61 57 54 52 43 41 40 45 48 64 74 50 45 48 50 48 49 62 55 50 63
90 94 92 94 96 92 94 87 96 74 73 82 83 81 78 75 70 70 77 88 85 77 81 70 76 73 59 50 59 58 53 49 53 62 62 61 54 44 48 61 62 64 63 65 70 71 61
94 98 98 96 91 99 93 88 68 70 67 67 78 77 76 75 70 85 80 81 84 85 91 81 70 52 52 49 48 44 44 49 54 63 59 58 45 48 58 55 70 61 57 64 75 81 71
99 99 100 100 100 95 99 85 63 62 61 65 65 69 68 70 76 82 70 76 84 82 92 72 66 42 48 50 41 46 43 47 55 59 51 58 56 57 63 58 57 68 59 67 71 78 84
97 100 100 100 99 100 98 97 60 57 54 52 59 62 66 69 73 75 75 79 82 81 96 72 60 54 55 51 51 47 50 47 48 62 63 61 52 56 60 54 53 60 74 76 66 79 91
97 97 100 99 98 87 97 94 71 55 60 58 63 66 62 60 70 71 72 81 82 95 63 66 58 51 54 58 56 54 58 62 72 57 82 71 63 58 55 69 64 73 78 83 68 94 87
92 90 85 89 96 75 44 42 48 53 50 55 57 57 54 57 60 72 77 73 91 78 74 54 52 52 63 56 55 55 64 79 56 69 94 71 51 63 60 67 70 78 72 82 48 85 90
97 92 47 46 51 71 68 44 41 42 44 48 50 55 62 59 63 68 70 94 84 76 56 59 55 67 63 53 55 56 59 67 57 58 68 94 74 60 61 54 60 70 83 66 85 90 96
100 99 76 37 44 50 62 91 44 40 41 44 54 65 63 57 61 69 86 83 69 53 48 52 56 51 63 59 60 60 62 54 57 52 56 68 85 63 58 57 60 68 66 81 90 71 80
72 94 76 47 35 44 50 53 71 46 38 42 54 76 59 59 70 76 89 73 58 52 57 56 61 54 57 59 57 59 60 52 54 54 50 56 71 71 65 79 80 84 88 81 77 83 90
72 73 74 69 30 35 47 45 44 46 47 53 76 67 60 69 81 90 89 60 49 53 52 61 54 51 55 54 53 55 59 54 49 51 62 57 74 88 76 57 65 71 79 79 83 59 85
84 79 71 71 60 26 31 42 49 49 47 58 70 71 71 74 80 92 63 61 56 57 59 56 55 49 47 51 54 50 55 51 54 55 64 60 72 85 51 58 56 72 74 72 67 74 81
86 83 78 70 70 41 25 28 39 50 49 56 74 70 72 74 72 68 62 62 60 54 55 51 54 48 50 53 49 52 55 56 53 57 61 58 77 66 38 30 60 70 67 70 74 95 75
88 85 84 77 62 55 29 23 30 41 45 50 75 68 71 80 63 55 54 57 61 62 55 51 54 53 54 59 54 57 51 63 60 61 65 69 86 84 80 74 73 71 70 66 72 69 78
91 88 85 80 73 63 44 27 23 31 42 47 67 68 73 68 57 50 59 55 56 54 56 55 58 52 53 57 50 56 49 56 59 78 74 79 82 84 94 77 77 82 70 72 69 66 63
89 87 86 84 76 72 66 41 26 24 29 47 62 63 65 68 60 53 57 51 50 48 48 50 53 55 56 54 53 53 53 52 50 80 84 85 93 86 89 74 78 77 56 54 63 68 63
96 92 90 91 86 78 75 68 38 34 36 47 70 75 62 57 59 54 49 47 51 52 50 50 52 56 49 51 52 53 65 72 68 68 74 84 82 87 94 79 65 36 47 42 52 49 56
99 97 94 97 93 86 85 76 67 40 49 41 60 70 72 51 59 48 42 46 50 51 56 54 51 52 56 52 63 55 47 46 66 69 76 70 80 83 92 96 63 50 40 39 43 38 40
96 95 96 93 93 92 91 88 77 66 48 50 52 64 74 62 46 43 45 43 54 61 60 57 57 57 56 67 65 55 46 38 39 64 67 73 67 74 89 97 65 33 39 40 35 44 29
97 97 97 94 92 93 90 91 90 81 67 56 55 48 71 72 65 48 52 46 56 60 63 61 61 64 63 82 75 78 74 44 48 47 78 85 86 83 85 92 76 52 46 38 45 26 28
94 94 95 95 92 89 91 90 89 90 83 68 67 57 55 79 73 58 47 55 61 65 55 49 58 70 81 77 78 75 72 54 51 49 75 78 92 96 87 88 89 50 50 47 38 33 31
97 99 93 90 91 87 86 86 86 86 88 84 68 71 67 70 67 61 56 55 49 49 62 62 60 70 76 77 83 76 72 69 61 61 62 62 54 69 72 68 45 51 45 42 40 38 33

GFSGBSN_925_rhum_123.txt.gz
RH
94 94 95 96 95 87 82 86 85 80 84 88 94 93 91 92 90 80 84 70 90 80 89 71 62 56 43 60 60 49 38 32 30 26 30 27 27 34 36 29 29 35 33 35 33 29 27
88 93 98 95 92 85 86 87 89 84 86 86 91 90 91 92 94 92 80 96 92 94 82 90 67 60 48 67 52 46 36 30 28 27 33 33 30 28 33 33 33 32 38 32 28 26 28
93 94 96 93 93 89 88 90 89 87 88 91 90 95 93 95 96 94 80 97 99 98 89 84 76 68 56 63 47 37 35 32 28 27 33 32 31 27 30 32 29 29 28 28 31 29 32
92 96 96 91 92 92 88 92 95 94 90 91 89 88 88 82 91 87 82 88 94 88 84 60 48 43 56 44 40 37 32 29 26 26 27 25 20 30 30 27 29 26 29 25 29 31 36
94 95 96 89 89 86 89 95 97 95 86 88 89 87 84 98 90 93 97 90 77 72 67 56 46 47 59 41 43 41 38 33 28 26 27 27 28 41 49 40 45 38 31 28 31 33 37
94 94 95 94 90 89 92 95 98 87 82 74 66 100 100 93 94 92 94 68 66 66 60 47 54 55 48 58 51 44 38 33 36 30 38 48 55 57 63 68 45 32 26 29 31 46 46
94 95 97 92 92 88 94 95 96 95 92 90 86 90 84 85 76 83 68 68 77 84 75 86 76 64 62 52 48 47 46 37 34 44 51 58 70 68 54 50 40 40 40 37 44 53 61
91 87 96 95 91 94 96 83 93 94 75 84 78 81 77 76 69 68 63 84 94 86 80 65 66 64 59 57 53 52 42 40 38 57 44 60 72 51 48 54 52 48 45 51 54 52 65
92 93 93 86 87 94 96 71 65 69 72 71 74 74 71 65 68 65 81 93 87 78 85 75 73 67 57 49 59 58 52 47 55 62 61 56 53 46 50 63 60 64 55 62 67 74 62
96 96 89 96 91 98 90 85 65 65 70 75 70 70 65 61 54 73 78 80 78 81 91 84 66 53 50 50 50 43 45 47 56 59 58 58 47 49 53 59 67 50 60 66 75 78 65
98 100 96 95 100 99 98 85 65 63 68 68 68 62 65 59 73 73 73 71 67 64 91 70 65 42 49 47 43 46 44 50 59 63 42 52 56 60 60 58 61 65 61 68 73 80 85
98 97 99 100 97 99 98 70 59 54 58 58 62 60 61 62 66 68 69 71 68 78 95 72 60 54 54 55 54 48 50 50 51 60 66 65 53 58 60 56 57 63 74 74 78 84 84
84 68 81 96 99 100 99 95 53 54 56 56 63 67 65 58 67 72 67 69 82 94 62 65 59 54 60 61 58 55 59 63 68 52 77 67 64 59 56 72 67 73 69 72 62 82 69
93 48 38 44 56 76 79 92 73 50 50 57 62 65 64 58 64 69 73 73 94 84 76 55 53 56 63 57 56 58 63 78 59 69 92 68 52 64 58 68 70 76 67 73 43 67 83
99 96 43 40 45 49 53 76 62 51 46 46 53 54 57 69 70 71 74 91 82 77 57 60 57 63 63 54 58 58 62 69 59 62 58 87 69 60 62 57 61 73 85 65 84 92 95
86 90 84 42 40 47 48 64 55 45 44 45 50 67 67 68 72 73 85 84 72 61 51 53 55 54 63 61 62 62 64 55 57 54 58 68 75 65 59 57 64 68 66 75 89 57 68
84 72 70 57 36 42 47 48 45 41 40 46 51 72 70 70 78 78 90 76 60 54 55 56 61 59 58 62 59 64 63 54 56 57 53 64 68 71 68 78 80 84 87 82 77 81 85
92 81 73 66 37 35 44 44 44 42 45 51 76 68 71 74 77 89 89 60 51 55 57 61 55 52 55 55 56 58 57 56 53 55 64 60 74 86 76 59 64 72 80 81 80 62 89
86 84 79 72 56 31 31 41 45 51 47 58 73 75 73 72 77 93 66 64 56 58 59 57 57 53 49 53 54 52 55 54 55 55 62 60 70 78 41 55 69 79 80 76 69 75 83
82 78 76 74 68 52 29 29 38 50 51 59 68 69 69 79 75 69 66 64 63 56 56 53 55 49 51 54 51 53 56 56 54 59 64 60 76 63 39 26 60 79 72 81 75 96 81
83 79 76 72 67 64 48 29 30 43 51 53 74 72 72 78 67 61 56 61 62 61 56 53 56 53 54 59 56 58 54 64 61 63 67 70 81 85 80 77 71 65 64 71 88 76 83
90 87 82 78 74 67 62 45 29 30 44 49 66 67 75 71 60 52 62 58 57 56 55 55 58 54 57 59 56 59 52 61 58 79 74 81 84 86 98 80 82 86 78 77 71 65 67
99 97 89 82 80 76 67 60 41 28 29 51 69 68 64 72 63 50 58 53 51 49 49 50 55 56 57 58 52 53 52 52 51 78 84 89 94 87 88 76 79 72 61 64 72 75 69
99 100 91 85 77 80 80 68 60 41 36 44 74 76 54 55 59 56 52 49 51 53 50 52 55 55 48 52 52 54 65 70 69 73 77 90 86 89 96 78 49 31 44 48 57 57 63
98 98 99 91 87 83 84 84 72 61 46 44 66 71 62 43 58 46 45 48 51 54 58 55 52 54 60 57 62 52 42 53 73 71 79 78 83 84 92 97 61 41 39 53 50 40 45
98 98 97 98 88 88 86 86 86 77 63 48 53 63 74 56 55 40 46 44 51 56 57 57 59 60 60 72 69 50 46 36 43 71 81 80 72 79 90 93 58 27 38 40 33 46 29
97 96 97 97 93 88 87 88 88 88 82 64 62 57 68 68 62 52 54 45 58 63 60 60 62 66 61 81 71 74 70 49 48 48 88 90 90 92 87 91 76 55 42 36 39 25 25
93 94 92 92 95 91 84 86 86 85 86 83 72 70 65 76 71 59 51 57 68 64 54 49 58 71 85 80 78 76 77 63 54 46 75 84 94 96 88 96 89 51 51 45 36 33 30
94 90 93 94 88 89 85 84 85 85 84 83 81 83 82 75 73 61 58 57 58 54 61 63 56 73 74 79 87 85 81 78 66 62 63 62 59 80 78 71 48 50 49 44 44 46 45

GFSGBSN_925_rhum_126.txt.gz
RH
95 95 92 89 84 85 84 86 85 84 82 86 87 91 91 82 62 70 73 93 78 93 91 73 82 58 44 57 55 45 38 30 28 28 30 27 31 33 35 31 31 38 36 35 31 30 28
94 94 90 90 88 84 86 86 90 88 88 87 91 91 94 74 62 70 89 93 99 92 76 81 66 53 44 62 50 41 34 27 26 26 33 32 27 29 33 34 34 36 36 30 30 29 36
95 94 84 87 88 87 93 96 94 89 89 88 88 93 95 79 72 81 95 95 98 98 83 88 82 52 57 61 45 36 32 29 26 26 32 30 30 27 30 33 33 28 25 28 34 32 35
94 95 86 86 78 91 94 97 93 88 89 87 94 97 94 89 78 92 97 97 98 94 93 77 72 48 56 44 41 32 30 27 26 23 23 23 21 33 31 28 30 25 26 20 30 33 39
93 94 91 88 87 92 95 92 90 86 86 97 98 99 98 92 99 85 77 76 85 77 72 64 62 49 55 40 43 42 35 32 27 28 28 25 31 47 42 38 40 33 22 24 29 44 41
96 94 94 92 85 92 95 89 92 92 92 93 89 85 84 85 74 68 68 70 74 65 67 64 56 55 51 57 52 44 38 33 32 27 32 41 52 56 64 65 45 24 25 29 30 50 56
95 96 93 95 95 94 93 95 94 94 96 92 82 76 75 68 70 67 61 64 77 78 72 76 73 64 61 52 47 45 44 37 34 49 44 53 71 73 59 53 40 38 38 33 39 59 62
96 88 91 82 95 95 94 96 95 93 84 73 69 71 67 69 64 64 64 90 93 74 74 69 65 62 58 56 52 52 39 38 48 58 43 59 73 52 52 54 50 45 37 42 48 56 66
98 96 92 92 92 96 78 72 86 83 77 75 71 68 70 66 56 61 78 90 85 83 76 63 65 58 57 48 57 56 51 48 53 59 59 52 53 48 51 60 55 64 46 58 64 74 64
98 98 98 99 94 96 81 66 64 71 71 72 70 67 61 52 51 68 76 66 73 77 85 73 64 52 49 51 52 45 46 48 56 53 57 61 49 53 50 66 63 40 62 68 76 77 58
95 99 98 99 100 98 95 68 65 67 67 71 70 70 66 57 64 70 68 69 72 70 92 65 63 43 47 51 46 48 46 52 62 64 40 54 59 63 61 62 62 60 63 70 76 84 84
96 95 97 98 97 99 92 64 57 60 61 61 64 66 60 57 65 73 73 73 70 78 93 69 58 56 53 58 55 50 50 52 52 58 66 65 55 60 60 59 60 65 74 66 82 85 80
93 91 94 90 97 93 75 61 56 54 54 54 58 62 66 65 67 69 64 60 81 93 61 61 61 56 62 63 59 56 60 65 61 50 71 61 61 60 58 71 68 70 64 69 57 73 64
97 93 51 60 60 73 89 58 46 51 53 54 55 57 63 61 66 69 60 71 89 85 78 55 56 57 66 60 59 61 60 78 63 63 88 63 48 63 59 68 68 79 63 73 36 62 66
98 94 50 38 44 55 89 95 57 39 46 50 53 51 57 68 70 69 69 91 82 77 59 62 57 60 63 58 60 61 65 66 60 62 49 75 66 63 62 61 61 74 86 64 84 91 94
100 86 67 39 37 49 69 97 59 41 42 47 52 66 71 70 68 64 86 85 74 61 54 52 55 54 63 63 63 62 66 56 57 57 57 63 68 66 61 58 67 70 67 76 85 45 49
99 82 74 54 35 37 49 55 46 40 41 47 51 74 78 73 73 76 89 76 63 56 57 56 60 61 58 63 61 66 60 54 56 60 56 71 64 72 71 78 79 88 88 85 73 73 79
90 84 77 70 47 35 32 36 48 44 43 51 74 74 82 81 77 90 88 60 52 57 58 60 55 53 57 60 60 63 61 58 57 57 63 63 73 86 74 63 65 71 78 78 75 60 90
90 85 83 78 69 43 32 33 41 51 47 60 76 78 86 80 74 92 69 66 57 60 60 59 57 52 51 57 58 55 58 56 58 59 66 61 68 69 40 52 73 80 81 77 71 73 85
88 85 84 80 72 64 43 32 29 46 50 56 63 68 69 80 78 69 64 64 64 57 58 55 56 51 52 55 54 55 57 59 57 58 64 62 75 52 35 24 60 82 81 86 76 95 81
87 85 84 78 72 67 59 40 29 42 56 48 76 74 72 74 70 65 58 61 61 57 58 55 55 55 54 58 58 59 56 66 62 67 70 69 76 84 78 75 67 63 63 80 91 74 76
96 96 92 89 83 73 62 56 35 29 40 50 65 66 77 75 65 54 61 60 58 58 56 55 58 56 57 57 55 51 57 63 60 80 73 83 81 87 97 81 86 90 81 77 69 69 78
100 100 94 89 84 78 68 60 53 36 32 54 72 71 62 72 64 49 58 61 59 53 52 52 57 58 59 59 54 50 53 57 54 78 83 87 92 87 85 76 80 70 64 67 77 78 69
99 99 98 89 87 85 80 71 62 49 40 42 73 74 51 56 62 54 55 52 57 56 51 55 59 56 48 54 52 54 60 66 67 68 77 92 86 89 96 78 51 29 41 54 68 62 71
98 98 99 93 87 85 84 80 78 67 51 51 60 70 61 47 58 49 48 51 52 55 60 57 56 55 60 56 61 50 42 52 77 74 80 79 84 82 91 98 61 28 44 54 53 41 44
98 98 98 98 90 86 86 84 82 80 69 55 64 62 68 64 62 42 46 46 52 55 57 59 61 64 61 70 65 48 46 36 50 76 86 84 77 76 92 93 54 26 38 41 34 38 28
98 98 98 98 98 90 84 85 83 80 78 64 71 68 60 73 65 52 55 47 56 61 57 60 66 69 62 77 66 71 68 52 51 54 92 96 94 95 92 90 78 56 45 40 39 33 28
95 95 93 93 96 97 87 84 86 84 81 76 77 81 72 84 80 60 55 58 68 64 53 53 61 68 83 72 72 73 74 67 55 49 82 87 96 94 86 90 85 55 51 42 35 39 35
94 94 90 91 90 91 88 84 85 86 86 87 81 81 82 80 78 63 60 61 59 56 63 68 54 72 78 76 84 84 78 83 70 62 64 58 63 82 78 71 49 50 46 43 48 54 52

GFSGBSN_925_rhum_129.txt.gz
RH
90 86 86 85 82 86 91 89 88 84 82 86 88 92 93 85 93 80 84 90 98 97 77 89 73 52 45 52 54 42 35 31 30 31 29 28 31 33 36 34 34 42 37 33 30 30 32
92 84 79 81 87 92 94 90 89 88 86 88 92 92 71 59 72 79 89 97 96 84 85 84 61 48 41 60 48 38 31 29 27 25 31 29 28 29 33 35 35 36 35 30 32 32 40
92 87 83 84 92 94 95 89 89 87 90 95 96 94 63 79 96 90 95 99 100 76 67 58 78 54 57 59 45 34 28 28 26 23 30 29 26 28 30 36 34 28 26 28 37 34 38
94 88 85 88 92 88 91 85 84 94 97 96 98 91 90 98 94 89 97 98 86 71 72 72 65 53 59 44 42 30 28 30 26 20 20 22 21 36 31 30 27 23 23 20 33 40 37
95 94 91 90 91 89 90 91 90 97 97 99 96 86 82 80 83 85 89 89 83 80 81 69 71 50 52 40 43 42 33 30 28 28 28 24 32 45 38 34 37 29 20 20 30 59 46
94 96 95 93 92 86 84 92 94 98 86 85 80 84 72 70 69 80 80 67 67 75 81 75 64 50 51 56 51 43 36 28 30 26 30 40 52 54 62 60 47 21 25 29 27 49 59
96 95 96 96 94 94 93 97 96 95 92 78 73 75 74 73 64 65 66 59 69 77 72 84 70 63 59 52 46 45 40 31 34 47 40 51 69 71 59 51 36 34 34 30 40 60 62
90 94 95 96 96 94 95 87 82 94 93 79 78 65 72 66 68 59 54 86 90 76 68 64 62 59 57 54 50 50 36 37 46 49 40 60 71 54 56 51 46 39 31 36 44 55 63
97 92 96 98 97 96 91 94 68 78 76 74 71 67 63 60 62 55 70 83 84 81 67 61 62 57 56 46 55 56 47 47 50 60 59 54 55 50 51 57 50 63 41 54 57 71 65
98 98 98 99 99 78 64 63 68 68 68 69 68 66 55 57 58 68 77 83 74 73 83 70 59 51 48 49 51 47 48 48 57 54 60 65 52 49 52 68 56 33 64 70 77 73 51
95 97 97 99 98 98 61 59 62 64 65 66 65 62 54 52 58 67 73 68 71 62 90 56 62 43 48 48 43 47 48 51 63 62 40 55 60 57 56 63 62 59 64 76 78 82 81
94 95 96 97 95 96 71 58 57 61 60 60 60 60 59 56 61 70 65 65 59 77 90 65 57 58 49 60 57 50 50 51 54 55 64 65 56 62 61 64 65 66 74 65 74 79 72
99 94 93 77 90 88 82 54 55 54 55 56 55 57 60 64 66 71 68 60 80 90 60 62 61 57 63 66 61 58 61 69 55 50 65 55 57 60 61 72 70 63 59 66 55 70 57
99 97 90 81 64 74 94 90 48 49 50 52 57 61 61 60 64 65 54 71 88 86 76 56 57 58 68 62 64 64 56 78 68 59 80 59 47 61 60 69 67 80 58 68 33 52 53
99 90 58 45 50 88 97 99 76 35 42 49 50 53 68 76 73 69 68 90 82 78 60 64 54 59 63 59 62 63 66 64 61 60 47 66 66 64 63 63 61 76 82 61 80 91 82
99 92 70 48 40 50 83 88 56 41 39 43 48 61 74 71 74 62 85 85 74 60 56 52 54 54 62 65 62 59 61 57 60 60 55 59 71 68 64 60 71 68 67 69 76 44 42
99 93 75 66 43 38 47 54 49 41 40 46 50 72 77 75 70 77 90 77 68 60 58 55 58 62 60 65 63 68 60 58 56 63 61 70 58 74 72 76 81 88 86 82 67 61 57
90 92 79 73 60 42 34 35 49 44 44 50 69 75 78 78 75 89 88 63 54 60 59 60 55 56 58 62 63 64 60 57 59 59 64 64 70 88 71 67 66 73 76 73 66 54 85
77 82 84 77 67 58 40 31 45 52 47 59 81 83 74 72 74 93 68 67 59 60 60 60 58 53 52 59 59 57 58 58 60 60 68 63 62 60 40 51 74 81 81 76 67 69 84
88 86 83 77 68 62 51 35 38 50 51 53 62 70 72 83 80 70 66 65 67 59 59 57 57 52 54 57 56 59 62 60 59 57 63 60 71 44 32 24 62 82 86 85 72 89 75
97 97 82 72 70 64 58 43 32 45 56 48 78 76 74 76 74 65 59 62 64 63 60 57 58 55 54 61 61 61 58 70 64 71 72 67 70 82 74 72 63 60 62 86 89 71 63
99 98 89 83 75 67 62 53 41 32 38 49 66 64 78 78 66 55 64 61 57 61 59 57 55 57 59 55 50 60 63 68 64 80 74 83 78 87 96 77 82 89 79 73 69 74 77
98 98 93 86 81 74 65 61 50 44 36 55 74 71 58 74 64 46 53 58 55 54 52 52 55 61 62 61 57 49 53 59 57 80 84 85 88 85 82 73 76 60 66 71 78 76 66
98 99 98 88 83 80 75 66 61 52 47 45 68 61 47 54 59 51 54 54 55 56 54 57 58 56 53 55 56 55 64 69 68 74 78 93 84 88 94 73 47 28 45 55 69 65 70
97 98 99 95 84 82 80 76 71 64 57 54 62 63 59 52 60 48 47 48 51 52 59 58 57 59 63 58 60 48 44 56 81 84 78 80 83 84 89 95 58 33 52 59 53 37 51
96 97 98 98 93 85 81 80 75 72 62 62 68 64 60 73 66 43 47 48 54 53 52 55 65 65 61 71 63 48 48 37 68 85 89 84 79 77 92 92 48 25 36 44 38 42 30
93 97 97 98 98 94 83 80 79 76 71 67 78 70 60 78 71 53 56 51 56 60 56 61 67 70 61 75 63 65 68 52 51 66 98 96 93 93 90 93 77 55 42 44 42 40 36
93 92 94 94 95 95 88 79 79 78 76 73 80 78 76 87 83 62 52 60 68 65 57 58 67 71 82 73 70 67 75 63 60 53 84 93 94 90 76 86 86 53 48 40 42 51 47
91 90 91 90 89 89 90 83 80 77 77 80 81 84 83 87 82 66 61 62 59 56 61 72 56 66 74 74 82 81 79 85 70 59 65 61 67 84 79 73 52 51 50 44 51 54 55

GFSGBSN_925_rhum_132.txt.gz
RH
88 88 80 91 92 93 88 86 86 88 93 92 90 83 64 63 72 75 82 92 96 97 99 93 90 66 42 35 39 42 35 31 33 35 31 29 30 28 29 28 30 33 30 24 24 24 23
89 85 88 91 89 89 86 85 95 94 94 94 83 68 65 68 71 81 95 98 100 86 69 58 48 48 38 41 45 43 32 30 31 31 29 27 26 23 26 28 28 29 25 23 23 25 29
91 80 88 90 82 87 84 91 96 96 92 94 99 91 82 87 79 85 93 96 87 68 71 57 42 43 40 47 45 32 30 28 26 30 27 29 23 22 24 28 23 22 24 24 28 27 29
94 92 89 91 85 86 89 96 97 95 95 99 94 89 89 90 88 93 94 92 72 69 66 60 46 42 44 42 47 38 34 31 24 26 26 29 24 25 25 22 18 17 17 23 30 33 30
96 96 89 90 83 88 95 96 96 98 98 98 88 73 77 89 90 81 76 74 73 66 58 51 46 40 41 39 43 44 38 29 30 31 28 26 29 28 24 21 24 18 22 18 28 44 41
93 97 95 89 94 94 96 96 95 95 82 77 74 68 69 83 74 72 68 63 62 60 57 47 44 36 38 47 52 43 36 29 26 26 26 27 29 28 30 34 50 20 18 21 20 36 37
95 90 95 96 92 96 96 96 84 96 87 81 73 70 66 71 68 61 58 54 56 63 66 61 65 52 50 49 48 42 38 29 26 27 23 36 62 51 39 31 21 21 21 20 29 43 44
98 96 96 95 99 96 95 86 76 73 73 70 69 69 72 60 64 58 56 76 88 66 63 58 54 50 54 53 31 38 38 26 28 31 33 41 56 46 43 36 30 26 23 26 29 44 43
94 98 98 98 100 99 95 81 70 68 66 66 67 59 61 56 45 47 72 85 82 78 51 53 49 47 47 41 46 45 37 35 34 41 33 33 45 44 39 35 36 42 34 38 45 46 46
96 96 96 96 99 100 90 67 65 65 64 64 60 50 57 53 50 63 77 74 70 75 76 67 45 42 41 43 43 46 46 37 41 41 46 46 46 39 40 54 43 30 55 56 58 47 40
96 95 94 95 97 95 78 65 64 63 62 61 58 54 51 48 60 66 67 66 75 69 85 47 47 40 42 40 39 40 44 35 43 48 41 53 50 40 46 59 51 50 56 61 63 56 55
97 95 95 95 96 90 77 57 58 59 60 59 57 54 54 54 54 66 66 64 54 81 84 55 49 50 40 44 46 40 38 37 43 40 46 57 52 54 54 59 56 58 62 56 57 57 68
99 98 73 86 94 98 100 71 50 56 56 54 55 58 59 61 66 66 64 54 90 84 54 54 54 50 51 52 47 46 49 47 46 80 89 43 50 54 55 56 60 56 48 68 63 78 46
97 98 65 45 58 93 100 100 91 45 46 49 54 58 58 68 67 65 57 50 88 73 61 53 52 50 52 52 51 46 43 49 51 35 52 58 61 51 54 59 53 56 44 58 43 38 30
87 78 72 60 50 67 92 100 100 91 43 47 47 53 70 81 70 68 45 88 82 59 52 53 45 44 53 51 45 44 47 46 51 46 38 60 65 58 57 56 56 57 56 42 64 73 62
99 71 70 65 54 44 49 78 61 74 64 49 53 69 78 73 71 58 62 73 61 53 51 48 39 44 44 48 44 40 43 51 54 54 48 37 69 61 60 57 60 60 47 52 55 48 33
99 91 67 64 60 46 41 40 47 43 44 52 58 58 76 76 59 48 88 70 61 55 53 47 46 48 48 51 49 48 43 52 46 55 49 45 43 66 65 61 50 62 58 58 45 37 33
90 89 74 70 61 54 39 37 48 43 46 56 69 65 74 76 58 58 69 56 52 57 56 54 47 48 46 52 51 48 43 45 46 48 52 53 46 61 52 58 56 59 52 43 32 39 48
90 77 70 69 65 57 44 36 50 47 48 59 56 58 63 61 63 68 61 59 55 56 56 54 53 48 48 50 50 50 51 53 51 50 50 50 44 40 36 51 60 61 57 52 44 41 48
93 88 71 62 62 61 50 39 44 54 52 48 44 69 49 53 56 47 51 57 60 59 56 54 53 48 49 50 49 52 54 58 53 52 62 49 46 35 20 21 43 57 60 59 47 58 30
98 98 78 65 60 60 57 47 38 51 55 49 53 63 64 62 49 50 50 54 57 56 56 52 52 48 46 47 50 51 52 61 59 69 61 54 53 60 46 43 40 39 37 58 64 48 40
95 98 89 72 63 60 59 52 48 40 40 55 47 46 57 56 55 47 53 52 49 56 53 50 52 50 51 44 40 44 50 54 52 70 60 65 63 70 80 55 60 64 52 50 47 48 45
92 97 98 80 67 62 59 57 51 48 42 56 73 66 41 63 51 38 43 53 50 51 54 49 49 51 54 52 48 48 44 46 46 57 62 65 66 71 54 55 52 42 35 43 49 49 45
91 96 98 89 80 71 62 58 56 52 49 48 65 54 35 46 43 38 51 52 54 53 46 53 51 48 45 50 49 44 49 56 54 62 57 67 65 67 70 49 45 29 37 38 46 42 45
88 94 98 97 86 80 74 64 59 57 56 54 64 61 44 45 44 43 47 47 49 50 55 52 54 50 51 47 46 42 35 51 65 69 65 63 55 57 65 56 34 35 46 46 43 34 36
89 93 97 98 95 86 80 75 67 60 60 63 68 61 55 52 49 35 39 43 42 40 44 56 62 60 52 50 46 36 31 32 50 73 70 69 63 53 60 62 39 24 35 36 33 36 35
88 92 95 97 98 96 84 78 72 67 64 66 74 71 64 61 56 42 43 44 43 45 41 52 64 64 58 52 43 40 42 43 39 50 79 82 76 73 61 64 48 41 39 38 42 43 42
93 90 90 92 92 93 90 78 74 71 68 68 75 76 78 72 65 55 46 48 55 50 47 53 60 64 64 57 50 48 50 45 48 42 66 66 76 73 69 74 74 45 45 42 46 43 42
98 93 90 88 89 88 89 84 78 73 68 70 79 84 83 82 74 71 64 64 58 56 47 64 52 55 54 53 57 55 56 60 48 43 55 51 44 54 53 51 42 44 43 42 42 45 47